     2              OBSERVATION DATA    G (GPS)             RINEX VERSION / TYPE
TRRINEXO V2.3.4 LH UCLA / SCEC 15-OCT-95 13:00              PGM / RUN BY / DATE
LOS ANGELES BASIN 1995                                      COMMENT
ARCHIVED BY: SOUTHERN CALIFORNIA EARTHQUAKE CENTER (SCEC)   COMMENT
ANTENNA DELTA H: DIRECT HEIGHT TO PRE-AMP BASE (DHPAB)      COMMENT
NOTE:                                                       COMMENT
FOR FURTHER INFORMATION CONTACT: DAVE JACKSON               COMMENT
UCLA / GEOLOGY BLDG., 595 CIRCLE DR E. RM 3806              COMMENT
LOS ANGELES CA 90024 DJACKSON@CYCLOP.ESS.UCLA.EDU           COMMENT
BIT 2 OF LLI (+4) FLAGS DATA COLLECTED UNDER "AS" CONDITION COMMENT
USGLO T7N R3E S19 S30 1919                                  MARKER NAME
J.DUTTON UCLA                                               OBSERVER / AGENCY
1051 TRIMBLE 4000 SST 4.81                                  REC # / TYPE / VERS
271 TRIMBLE 4000 SST                                        ANT # / TYPE
 -2361086.0000 -4691248.0000  3609067.0000                  APPROX POSITION XYZ
        0.8931        0.0000        0.0000                  ANTENNA: DELTA H/E/N
     1     2                                                WAVELENGTH FACT L1/2
     3    C1    L1    L2                                    # / TYPES OF OBSERV
    30                                                      INTERVAL
  1995    10    22     0     1   30.000000                  TIME OF FIRST OBS
                                                            END OF HEADER
 95 10 22  0  1 30.0000000  0  6 14 15 18 29 25 22
  20514940.922          -0.42217
  23383059.797          -0.04815
  24240500.742          -0.56613
  22151061.141          -0.89717
  22734442.484          -0.90316
  21680844.813          -0.83217
 95 10 22  0  2  0.0000000  0  6 14 15 18 29 25 22
  20501873.406      -68669.342 7        -0.25418
  23394554.344       60366.525 5        -0.16015
  24218227.297     -117041.242 3
  22134020.773      -89553.961 7        -0.35917
  22743017.297       45052.719 6
  21664231.508      -87307.117 7        -0.02917
 95 10 22  0  2 30.0000000  0  6 14 15 18 29 25 22
  20488902.648     -136835.761 7    -53116.939 8
  23406079.594      120865.138 5     47141.580 5
  24195957.188     -234059.890 3        -0.00211
  22116995.531     -179008.431 7    -69705.120 7
  22751618.242       90267.426 6        -0.08016
  21647713.789     -174106.478 7    -67635.859 7
 95 10 22  0  3  0.0000000  0  6 14 15 18 29 25 22
  20476024.633     -204506.334 7   -105847.241 8
  23417607.531      181486.081 5     94378.652 5
  24173701.813     -351057.668 4    -91167.065 2
  22099990.719     -268376.951 7   -139342.908 7
  22760249.719      135632.037 6     35348.947 6
  21631293.641     -260398.483 7   -134876.348 7
 95 10 22  0  3 30.0000000  0  6 14 15 18 29 25 22
  20463237.094     -271697.146 7   -158203.710 8
  23429161.172      242221.187 5    141704.685 5
  24151439.750     -468031.306 3   -182315.271 2
  22083004.242     -357655.687 7   -208910.730 7
  22768914.484      181139.726 6     70809.467 6
  21614965.406     -346197.560 7   -201732.737 7
 95 10 22  0  4  0.0000000  0  6 14 15 18 29 25 22
  20450543.859     -338411.156 7   -210188.641 8
  23440739.258      303072.501 5    189121.273 5
  24129187.391     -584969.244 4   -273435.723 2
  22066026.594     -446844.116 7   -278408.189 7
  22777606.141      226813.801 6    106399.652 6
  21598734.250     -431497.818 7   -268200.433 7
 95 10 22  0  4 30.0000000  0  6 14 15 18 29 25 22
  20437940.398     -404649.669 7   -261803.062 8
  23452339.164      364033.653 5    236623.446 5
  24106939.578     -701875.998 4   -364531.841 1
  22049070.297     -535949.043 7   -347840.581 7
  22786330.602      272658.278 6    142122.618 6
  21582595.703     -516301.244 7   -334280.995 7
 95 10 22  0  5  0.0000000  0  6 14 15 18 29 25 22
  20425428.313     -470409.319 7   -313044.338 8
  23463963.211      425109.196 5    284214.749 5
  24084688.289     -818764.058 5   -455613.398 2
  22032130.883     -624957.946 7   -417198.141 7
  22795086.578      318685.023 6    177987.599 6
  21566553.461     -600604.589 7   -399971.882 7
 95 10 22  0  5 30.0000000  0  6 14 15 18 29 25 22
  20413001.898     -535691.748 7   -363913.760 8
  23475608.133      486294.809 5    331891.815 5
  24062457.859     -935632.197 5   -546679.401 3
  22015221.078     -713862.591 7   -486474.458 7
  22803880.336      364895.497 6    213995.753 6
  21550604.648     -684396.030 7   -465263.890 7
 95 10 22  0  6  0.0000000  0  6 14 15 18 29 25 22
  20400672.281     -600496.833 7   -414411.212 8
  23487266.594      547580.630 5    379646.981 5
  24040217.047    -1052487.439 5   -637735.392 2
  21998312.344     -802680.133 7   -555682.918 7
  22812706.508      411274.153 6    250134.959 6
  21534764.156     -767657.741 7   -530143.122 7
 95 10 22  0  6 30.0000000  0  6 14 15 18 29 25 22
  20388435.234     -664797.237 7   -464515.415 8
  23498953.344      608977.844 5    427488.929 5
  24017985.469    -1169325.946 5   -728778.349 3
  21981432.359     -891391.511 7   -624808.647 7
  22821564.953      457821.795 6    286405.843 6
  21519021.852     -850376.205 7   -594599.039 7
 95 10 22  0  7  0.0000000  0  6 14 15 18 29 25 22
  20376294.508     -728600.951 7   -514232.586 8
  23510654.883      670466.455 5    475402.118 5
  23995756.133    -1286150.496 5   -819810.424 2
  21964571.000     -979995.870 7   -693850.988 7
  22830446.555      504512.153 6    322787.931 6
  21503385.070     -932562.836 7   -658640.554 7
 95 10 22  0  7 30.0000000  0  6 14 15 18 29 25 22
  20364246.188     -791899.691 7   -563556.266 8
  23522365.984      732049.329 5    523388.740 5
  23973530.281    -1402936.870 5   -910812.717 3
  21947737.984    -1068482.304 7   -762801.434 7
  22839362.531      551338.492 6    359275.987 6
  21487845.953    -1014208.231 7   -722260.317 7
 95 10 22  0  8  0.0000000  0  6 14 15 18 29 25 22
  20352299.711     -854687.480 7   -612481.809 8
  23534106.211      793720.651 5    571444.283 5
  23951308.766    -1519701.324 5  -1001797.959 3
  21930915.094    -1156859.471 7   -831666.743 7
  22848289.711      598288.505 6    395860.397 6
  21472413.844    -1095324.338 7   -785467.655 7
 95 10 22  0  8 30.0000000  0  6 14 15 18 29 25 22
  20340449.711     -916956.044 7   -661002.763 8
  23545858.492      855478.529 5    619567.280 5
  23929093.859    -1636451.219 5  -1092771.856 4
  21914122.500    -1245114.645 7   -900436.991 7
  22857253.313      645360.369 6    432539.754 6
  21457076.156    -1175924.830 7   -848273.215 7
 95 10 22  0  9  0.0000000  0  6 14 15 18 29 25 22
  20328702.563     -978700.035 7   -709114.952 8
  23557623.328      917319.301 5    667754.859 5
  23906885.695    -1753178.064 5  -1183727.802 4
  21897351.719    -1333247.585 7   -969111.994 7
  22866232.484      692548.602 6    469309.791 6
  21441835.148    -1255998.904 7   -910668.568 7
 95 10 22  0  9 30.0000000  0  6 14 15 18 29 25 22
  20317051.570    -1039917.492 7   -756816.862 8
  23569405.992      979243.064 5    716007.115 5
  23884673.969    -1869892.967 5  -1274674.439 2
  21880601.438    -1421270.076 7  -1037700.936 7
  22875233.453      739854.688 6    506171.658 6
  21426700.695    -1335533.791 7   -972643.784 7
 95 10 22  0 10  0.0000000  0  6 14 15 18 29 25 22
  20305506.188    -1100601.916 7   -804103.413 8
  23581208.445     1041246.117 5    764321.147 5
  23862468.094    -1986595.864 5  -1365611.715 2
  21863872.023    -1509187.225 7  -1106207.790 7
  22884256.938      787289.847 6    543134.102 6
  21411665.984    -1414524.280 7  -1034194.788 8
 95 10 22  0 10 30.0000000  0  6 14 15 18 29 25 22
  20294057.539    -1160763.382 7   -850982.471 8
  23593016.750     1103322.631 5    812692.440 5
  23840262.133    -2103272.580 5  -1456528.581 2
  21847158.156    -1597002.044 7  -1174634.905 7
  22893311.070      834851.255 6    580194.918 6
  21396740.117    -1492960.077 7  -1095313.568 8
 95 10 22  0 11  0.0000000  0  6 14 15 18 29 25 22
  20282705.242    -1220412.162 7   -897462.038 8
  23604849.039     1165466.624 5    861116.301 5
  23818067.711    -2219912.668 5  -1547416.914 2
  21830466.836    -1684727.621 7  -1242992.480 7
  22902384.930      882537.664 6    617353.139 6
  21381923.664    -1570833.840 7  -1155994.393 8
 95 10 22  0 11 30.0000000  0  6 14 15 18 29 25 22
  20271445.281    -1279569.439 7   -943558.605 7
  23616685.969     1227674.584 5    909590.013 4
  23795875.422    -2336515.125 4  -1638275.913 2
  21813789.398    -1772369.255 7  -1311284.637 7
  22911478.781      930352.258 6    654611.250 6
  21367212.258    -1648155.474 7  -1216244.993 8
 95 10 22  0 12  0.0000000  0  6 14 15 18 29 25 22
  20260279.781    -1338239.061 7   -989275.190 7
  23628534.516     1289945.008 5    958112.382 4
  23773690.625    -2453075.481 4  -1729102.126 3
  21797130.227    -1859922.416 7  -1379507.861 7
  22920609.422      978295.431 6    691969.559 6
  21352599.680    -1724944.037 7  -1276080.209 8
 95 10 22  0 12 29.9990000  0  6 14 15 18 29 25 22
  20249210.323    -1396424.308 7  -1034614.343 8
  23640396.276     1352270.187 5   1006677.417 5
  23751523.511    -2569600.420 4  -1819900.720 1
  21780484.823    -1947384.321 7  -1447659.972 7
  22929748.659     1026350.650 6    729415.166 6
  21338085.651    -1801202.726 7  -1335502.539 8
 95 10 22  0 12 59.9990000  0  6 14 15 18 29 25 22
  20238230.745    -1454123.636 7  -1079574.853 8
  23652270.089     1414653.809 5   1055288.019 5
  23729356.167    -2686098.025 4  -1910678.012 1
  21763859.769    -2034757.194 7  -1515742.717 7
  22938917.026     1074529.121 6    766956.817 6
  21323671.761    -1876937.619 7  -1394516.708 8
 95 10 22  0 13 29.9990000  0  6 14 15 18 29 25 22
  20227344.761    -1511320.315 7  -1124143.691 8
  23664151.745     1477097.259 5   1103945.226 4
  23707193.831    -2802562.991 4  -2001429.898 2
  21747253.987    -2122028.186 7  -1583746.074 7
  22948110.823     1122829.999 6    804593.849 6
  21309364.495    -1952137.148 7  -1453113.715 8
 95 10 22  0 13 59.9990000  0  6 14 15 18 29 25 22
  20216562.909    -1567997.076 7  -1168307.397 7
  23676038.503     1539590.157 5   1152640.971 3
  23685038.011    -2918998.683 4  -2092158.974 2
  21730663.261    -2209206.735 7  -1651677.387 8
  22957325.722     1171241.113 6    842316.785 6
  21295156.761    -2026790.630 7  -1511285.237 8
 95 10 22  0 14 29.9990000  0  6 14 15 18 29 25 22
  20205877.964    -1624142.417 7  -1212057.006 7
  23687940.292     1602128.765 5   1201372.327 4
  23662884.159    -3035386.426 5  -2182850.672 2
  21714088.761    -2296292.907 7  -1719536.722 8
  22966554.065     1219763.190 6    880126.186 6
  21281060.081    -2100875.236 7  -1569013.478 8
 95 10 22  0 14 59.9990000  0  6 14 15 18 29 25 22
  20195291.229    -1679757.484 7  -1255393.416 7
  23699847.690     1664703.777 4   1250132.037 4
  23640742.519    -3151727.028 5  -2273505.647 1
  21697533.683    -2383292.895 7  -1787328.908 7
  22975806.925     1268384.319 6    918012.768 6
  21267072.433    -2174393.296 7  -1626300.251 8
 95 10 22  0 15 29.9990000  0  6 14 15 18 29 25 22
  20184816.589    -1734822.791 7  -1298301.445 8
  23711767.628     1727325.221 5   1298927.935 3
  23618621.269    -3268012.972 5  -2364118.033 1
  21680999.683    -2470176.198 7  -1855030.160 7
  22985082.128     1317112.644 6    955982.881 6
  21253191.136    -2247329.056 7  -1683133.288 8
 95 10 22  0 15 59.9990000  0  6 14 15 18 29 25 22
  20174440.315    -1789337.406 7  -1340780.363 7
  23723693.964     1789997.971 5   1347763.807 4
  23596499.222    -3384244.228 5  -2454687.825 2
  21664493.347    -2556926.699 7  -1922627.939 8
  22994381.198     1365968.295 6    994052.196 6
  21239422.597    -2319683.721 7  -1739513.520 8
 95 10 22  0 16 29.9990000  0  6 14 15 18 29 25 22
  20164168.175    -1843323.667 7  -1382847.568 8
  23735620.073     1852707.888 4   1396628.644 4
  23574392.628    -3500452.143 5  -2545239.410 2
  21648010.753    -2643544.985 7  -1990122.695 7
  23003699.612     1414939.391 6   1032211.485 6
  21225760.605    -2391478.565 7  -1795457.538 8
 95 10 22  0 16 59.9990000  0  6 14 15 18 29 25 22
  20153995.847    -1896781.497 7  -1424503.019 7
  23747566.073     1915458.765 4   1445525.397 3
  23552272.761    -3616654.323 5  -2635786.540 3
  21631554.519    -2730022.186 7  -2057507.511 7
  23013049.081     1464033.067 6   1070466.292 6
  21212203.464    -2462717.203 7  -1850968.138 8
 95 10 22  0 17 29.9990000  0  6 14 15 18 29 25 22
  20143920.901    -1949716.590 7  -1465751.133 7
  23759518.276     1978246.406 5   1494450.799 4
  23530157.112    -3732846.253 5  -2726325.685 3
  21615123.784    -2816363.947 7  -2124786.790 8
  23022417.479     1513257.081 6   1108822.650 6
  21198754.659    -2533408.278 7  -1906052.071 8
 95 10 22  0 17 59.9990000  0  6 14 15 18 29 25 22
  20133948.534    -2002128.812 7  -1506591.820 7
  23771468.347     2041063.589 5   1543399.207 4
  23508050.862    -3849021.658 5  -2816851.947 3
  21598716.073    -2902600.536 7  -2191984.129 7
  23031797.612     1562602.836 6   1147273.873 6
  21185401.253    -2603551.685 7  -1960709.249 8
 95 10 22  0 18 29.9990000  0  6 14 15 18 29 25 22
  20124075.729    -2054005.133 7  -1547014.922 7
  23783426.151     2103904.071 5   1592365.793 4
  23485952.511    -3965166.535 5  -2907354.431 4
  21582320.370    -2988740.384 7  -2259106.062 8
  23041201.979     1612040.484 6   1185796.702 6
  21172162.729    -2673143.268 7  -2014936.437 8
 95 10 22  0 18 59.9990000  0  6 14 15 18 29 25 22
  20114303.855    -2105364.146 7  -1587034.928 7
  23795385.026     2166748.474 5   1641335.410 5
  23463858.745    -4081277.726 5  -2997830.655 5
  21565944.761    -3074797.373 7  -2326163.436 8
  23050628.323     1661552.374 6   1224377.396 6
  21159020.972    -2742193.881 7  -2068742.085 8
 95 10 22  0 19 29.9990000  0  6 14 15 18 29 25 22
  20104633.120    -2156187.772 7  -1626637.748 7
  23807347.878     2229609.734 5   1690318.189 4
  23441766.104    -4197329.727 5  -3088260.740 4
  21549589.300    -3160755.494 7  -2393143.768 7
  23060064.339     1711143.300 6   1263019.671 6
  21145987.526    -2810676.938 7  -2122105.484 8
 95 10 22  0 19 59.9990000  0  6 14 15 18 29 25 22
  20095063.409    -2206470.553 7  -1665819.138 7
  23819315.784     2292488.635 5   1739314.702 5
  23419699.394    -4313338.343 5  -3178657.052 3
  21533249.026    -3246607.059 7  -2460041.069 8
  23069510.237     1760807.718 6   1301719.213 6
  21133068.105    -2878583.629 7  -2175019.769 8
 95 10 22  0 20 29.9990000  0  6 14 15 18 29 25 22
  20085594.964    -2256232.205 7  -1704594.434 7
  23831280.698     2355377.824 5   1788319.229 5
  23397631.698    -4429312.036 5  -3269026.135 4
  21516937.331    -3332338.159 7  -2526844.506 8
  23078978.511     1810547.862 6   1340477.765 5
  21120253.128    -2945920.603 7  -2227490.118 8
 95 10 22  0 20 59.9990000  0  6 14 15 18 29 25 22
  20076220.979    -2305483.528 7  -1742972.091 7
  23843249.612     2418270.461 5   1837326.458 5
  23375564.448    -4545263.659 5  -3359378.009 4
  21500643.511    -3417958.400 7  -2593561.552 8
  23088474.065     1860380.853 6   1379308.661 6
  21107548.276    -3012688.298 7  -2279516.874 8
 95 10 22  0 21 29.9990000  0  6 14 15 18 29 25 22
  20066952.519    -2354202.500 7  -1780934.922 7
  23855220.651     2481166.877 5   1886336.603 5
  23353500.065    -4661207.724 5  -3449724.003 5
  21484367.128    -3503479.636 7  -2660201.457 8
  23097961.261     1910310.855 6   1418215.153 6
  21094950.573    -3078884.055 7  -2331097.964 8
 95 10 22  0 21 59.9990000  0  6 14 15 18 29 25 22
  20057784.128    -2402383.277 7  -1818478.385 7
  23867187.120     2544065.083 5   1935348.177 5
  23331444.190    -4777135.979 5  -3540057.664 4
  21468114.815    -3588898.537 7  -2726761.625 8
  23107481.284     1960345.946 6   1457203.512 6
  21082462.284    -3144508.995 7  -2382234.264 8
 95 10 22  0 22 29.9990000  0  6 14 15 18 29 25 22
  20048714.612    -2450019.216 7  -1855597.297 7
  23879156.675     2606963.799 5   1984360.117 5
  23309390.222    -4893030.845 5  -3630365.318 4
  21451883.222    -3674197.078 7  -2793228.003 8
  23117025.323     2010484.042 6   1496272.143 6
  21070090.229    -3209544.786 7  -2432911.484 8
 95 10 22  0 22 59.9990000  0  6 14 15 18 29 25 22
  20039757.659    -2497098.941 7  -1892282.793 7
  23891125.433     2669857.495 5   2033368.153 5
  23287336.815    -5008899.702 5  -3720652.692 4
  21435675.815    -3759383.518 7  -2859607.034 8
  23126579.347     2060708.208 5   1535407.838 6
  21057822.190    -3273986.408 7  -2483125.716 8
 95 10 22  0 23 29.9990000  0  6 14 15 18 29 25 22
  20030905.550    -2543627.871 7  -1928539.099 7
  23903090.323     2732739.626 5   2082367.177 3
  23265293.589    -5124740.784 5  -3810918.424 3
  21419487.573    -3844440.354 7  -2925885.079 8
  23136152.815     2111003.401 6   1574598.866 6
  21045672.003    -3337834.502 7  -2532877.460 8
 95 10 22  0 23 59.9990000  0  6 14 15 18 29 25 22
  20022155.042    -2589606.596 7  -1964366.680 7
  23915057.519     2795615.025 4   2131360.968 4
  23243259.300    -5240520.668 5  -3901136.460 5
  21403333.362    -3929336.900 7  -2992038.214 8
  23145738.394     2161368.350 6   1613844.270 5
  21033639.604    -3401076.893 7  -2582157.228 8
 95 10 22  0 24 29.9990000  0  6 14 15 18 29 25 22
  20013512.229    -2635022.324 7  -1999755.558 7
  23927018.659     2858483.577 4   2180349.405 4
  23221240.956    -5356239.597 5  -3991307.004 4
  21387208.644    -4014071.786 7  -3058065.391 8
  23155334.729     2211809.664 6   1653149.176 6
  21021721.878    -3463705.826 7  -2630958.976 8
 95 10 22  0 24 59.9990000  0  6 14 15 18 29 25 22
  20004975.058    -2679885.734 7  -2034714.064 7
  23938979.776     2921327.315 4   2229318.522 4
  23199229.073    -5471909.230 5  -4081439.124 4
  21371102.995    -4098693.286 7  -3124004.220 8
  23164956.323     2262324.266 6   1692511.180 6
  21009918.683    -3525748.975 7  -2679304.268 8
 95 10 22  0 25 29.9990000  0  6 14 15 18 29 25 22
  19996545.925    -2724179.400 7  -2069228.604 7
  23950937.050     2984162.458 4   2278280.904 2
  23177232.151    -5587507.057 5  -4171515.298 4
  21355026.667    -4183182.762 7  -3189840.166 8
  23174576.776     2312938.078 5   1731950.494 6
  20998223.925    -3587199.717 7  -2727187.943 8
 95 10 22  0 25 59.9990000  0  6 14 15 18 29 25 22
  19988222.073    -2767922.803 7  -2103314.373 7
  23962884.151     3046964.696 3   2327217.690 3
  23155240.651    -5703061.137 5  -4261557.393 4
  21338968.878    -4267583.651 7  -3255607.087 8
  23184231.003     2363635.282 6   1771454.793 6
  20986634.714    -3648077.247 7  -2774624.966 8
 95 10 22  0 26 29.9990000  0  6 14 15 18 29 25 22
  19980005.550    -2811108.260 7  -2136965.380 7
  23974833.519     3109735.664 3   2376130.102 5
  23133259.159    -5818587.203 5  -4351577.642 4
  21322917.558    -4351914.360 7  -3321319.326 8
  23193900.511     2414426.831 6   1811032.608 5
  20975158.776    -3708384.760 7  -2821617.807 8
 95 10 22  0 26 59.9990000  0  6 14 15 18 29 25 22
  19971893.370    -2853746.858 7  -2170190.262 7
  23986772.440     3172475.355 3   2425018.115 3
  23111278.933    -5934090.903 5  -4441580.479 4
  21306882.909    -4436175.819 7  -3386977.598 8
  23203565.370     2465295.357 5   1850670.413 6
  20963790.198    -3768125.529 7  -2868169.039 8
 95 10 22  0 27 29.9990000  0  6 14 15 18 29 25 22
  19963881.440    -2895841.057 7  -2202990.937 7
  23998699.855     3235183.650 3   2473881.721 2
  23089300.347    -6049583.394 5  -4531574.567 2
  21290867.354    -4520342.092 7  -3452561.695 8
  23213265.581     2516231.278 6   1890360.726 5
  20952531.745    -3827291.916 7  -2914272.695 8
 95 10 22  0 27 59.9990000  0  6 14 15 18 29 25 22
  19955977.042    -2937381.536 7  -2235360.143 7
  24010634.534     3297863.209 3   2522722.884 1
  23067327.526    -6165057.677 5  -4621554.489 4
  21274870.511    -4604408.033 7  -3518067.617 8
  23222978.362     2567234.464 6   1930103.464 6
  20941387.878    -3885858.457 7  -2959908.944 8
 95 10 22  0 28 29.9990000  0  6 14 15 18 29 25 22
  19948176.183    -2978379.849 7  -2267306.879 7
  24022550.675     3360502.114 3   2571532.364 1
  23045353.831    -6280527.652 5  -4711531.041 4
  21258893.284    -4688370.018 7  -3583492.533 8
  23232696.394     2618284.897 6   1969883.026 6
  20930354.565    -3943835.269 7  -3005085.657 8
 95 10 22  0 28 59.9990000  0  6 14 15 18 29 25 22
  19940476.644    -3018837.776 7  -2298832.539 7
  24034463.956     3423104.051 3   2620313.071 2
  23023384.237    -6395974.765 5  -4801489.791 3
  21242940.151    -4772203.229 7  -3648817.102 8
  23242409.065     2669383.793 6   2009700.342 5
  20919440.315    -4001192.406 7  -3049779.503 8
 95 10 22  0 29 29.9990000  0  6 14 15 18 29 25 22
  19932880.144    -3058758.746 7  -2329939.785 7
  24046367.698     3485651.527 4   2669051.299 1
  23001422.433    -6511395.459 5  -4891427.967 3
  21227011.784    -4855909.695 7  -3714042.908 8
  23252148.784     2720537.816 6   2049560.610 5
  20908639.550    -4057938.645 7  -3093997.335 8
 95 10 22  0 29 59.9990000  0  6 14 15 18 29 25 22
  19925386.839    -3098134.397 7  -2360622.106 7
  24058257.612     3548149.267 4   2717750.821 2
  22979468.823    -6626772.863 5  -4981332.402 4
  21211106.675    -4939485.209 7  -3779166.670 8
  23261889.081     2771758.035 5   2089472.464 6
  20897959.315    -4114071.216 7  -3137736.979 8
 95 10 22  0 30 29.9990000  0  6 14 15 18 29 25 22
  19917996.339    -3136963.774 7  -2390878.766 7
  24070138.151     3610593.620 3   2766408.759 2
  22957521.565    -6742100.681 5  -5071198.182 3
  21195229.894    -5022931.196 7  -3844189.503 8
  23271647.581     2823034.100 6   2129427.820 5
  20887392.151    -4169606.074 7  -3181010.862 8
 95 10 22  0 30 59.9990000  0  6 14 15 18 29 25 22
  19910711.206    -3175239.379 7  -2420703.909 7
  24082013.386     3672984.258 3   2815024.786 2
  22935586.128    -6857356.372 5  -5161007.802 4
  21179373.854    -5106243.431 7  -3909108.125 8
  23281408.815     2874365.838 6   2169426.594 5
  20876940.144    -4224546.045 7  -3223821.216 8
 95 10 22  0 31 29.9990000  0  6 14 15 18 29 25 22
  19903535.229    -3212951.958 7  -2450090.332 7
  24093877.253     3735314.861 4   2863594.068 2
  22913671.479    -6972547.788 5  -5250767.297 3
  21163544.526    -5189424.797 7  -3973924.750 8
  23291196.011     2925747.371 6   2209464.134 5
  20866592.245    -4278918.571 7  -3266189.399 8
 95 10 22  0 31 59.9990000  0  6 14 15 18 29 25 22
  19896467.050    -3250106.615 7  -2479042.018 7
  24105721.612     3797581.800 4   2912113.725 2
  22891758.034    -7087690.059 5  -5340488.532 4
  21147740.112    -5272482.984 7  -4038645.399 8
  23300973.901     2977148.092 5   2249516.649 5
  20856351.979    -4332726.144 7  -3308117.355 8
 95 10 22  0 32 29.9990000  0  6 14 15 18 29 25 22
  19889505.456    -3286698.361 7  -2507555.064 7
  24117557.745     3859787.278 4   2960585.493 4
  22869857.222    -7202781.514 5  -5430170.145 5
  21131958.964    -5355409.730 7  -4103263.627 8
  23310760.683     3028564.145 5   2289581.100 5
  20846220.105    -4385954.867 7  -3349594.265 8
 95 10 22  0 32 59.9990000  0  6 14 15 18 29 25 22
  19882649.331    -3322717.453 7  -2535621.895 7
  24129386.808     3921936.162 4   3009013.142 3
  22847968.315    -7317823.696 5  -5519813.382 5
  21116206.667    -5438192.793 7  -4167769.893 8
  23320556.245     3080028.208 5   2329682.971 5
  20836204.151    -4438594.235 7  -3390611.934 8
 95 10 22  0 33 29.9980000  0  6 14 15 18 29 25 22
  19875901.920    -3358169.614 7  -2563246.952 7
  24141198.592     3984014.160 4   3057385.577 2
  22826078.115    -7432833.994 5  -5609431.755 5
  21100475.131    -5520852.906 7  -4232180.351 8
  23330350.092     3131537.460 5   2369820.054 5
  20826302.990    -4490645.613 7  -3431171.432 8
 95 10 22  0 33 59.9980000  0  6 14 15 18 29 25 22
  19869260.607    -3393074.184 7  -2590445.321 7
  24152997.521     4046016.858 4   3105699.352 4
  22804198.607    -7547821.811 5  -5699032.622 5
  21084766.873    -5603409.120 7  -4296509.854 8
  23340165.178     3183096.043 5   2409995.569 5
  20816510.014    -4542103.774 7  -3471268.679 8
 95 10 22  0 34 29.9980000  0  6 14 15 18 29 25 22
  19862725.076    -3427427.523 7  -2617214.158 7
  24164783.732     4107940.401 3   3153951.427 4
  22782324.498    -7662771.603 5  -5788603.860 5
  21069076.022    -5685856.201 7  -4360754.315 8
  23349995.365     3234729.801 5   2450229.675 5
  20806830.264    -4592960.179 7  -3510897.029 8
 95 10 22  0 34 59.9980000  0  6 14 15 18 29 25 22
  19856293.350    -3461220.563 7  -2643546.398 7
  24176554.904     4169787.510 3   3202143.930 2
  22760457.178    -7777670.383 5  -5878135.334 5
  21053410.686    -5768186.324 7  -4424907.639 8
  23359827.256     3286456.034 5   2490535.837 5
  20797267.084    -4643212.069 7  -3550054.330 8
 95 10 22  0 35 29.9980000  0  6 14 15 18 29 25 22
  19849967.272    -3494454.500 7  -2669442.974 7
  24188305.396     4231562.126 3   3250279.950 3
  22738601.771    -7892510.789 5  -5967621.320 5
  21037769.357    -5850381.026 7  -4488955.443 8
  23369683.482     3338258.535 5   2530901.431 4
  20787824.646    -4692852.153 7  -3588734.899 8
 95 10 22  0 35 59.9980000  0  6 14 15 18 29 25 22
  19843747.881    -3527148.822 7  -2694919.070 7
  24200051.459     4293252.068 3   3298349.980 4
  22716760.139    -8007305.280 5  -6057071.546 5
  21022155.865    -5932432.412 7  -4552891.571 8
  23379568.912     3390118.116 5   2571311.493 5
  20778487.865    -4741895.363 7  -3626950.376 8
 95 10 22  0 36 29.9980000  0  6 14 15 18 29 25 22
  19837627.350    -3559305.355 7  -2719976.110 7
  24211766.701     4354853.024 3   3346350.689 3
  22694922.475    -8122061.050 5  -6146491.584 5
  21006568.756    -6014334.896 7  -4616711.676 8
  23389438.818     3442023.321 5   2611757.110 5
  20769271.021    -4790351.800 7  -3664708.615 8
 95 10 22  0 36 59.9980000  0  6 14 15 18 29 25 22
  19831611.037    -3590925.451 7  -2744615.145 7
  24223474.256     4416359.706 2   3394277.930 3
  22673091.857    -8236782.672 5  -6235885.009 5
  20991011.803    -6096093.110 7  -4680419.363 9
  23399316.631     3493947.827 5   2652217.763 5
  20760158.654    -4838229.945 7  -3702016.243 8
 95 10 22  0 37 29.9980000  0  6 14 15 18 29 25 22
  19825694.514    -3622009.393 7  -2768836.395 7
  24235155.514     4477772.866 2   3442132.342 4
  22651268.029    -8351472.092 5  -6325253.346 5
  20975480.225    -6177714.830 7  -4744020.690 9
  23409206.772     3545878.848 5   2692683.480 5
  20751160.092    -4885514.222 7  -3738861.125 8
 95 10 22  0 37 59.9980000  0  6 14 15 18 29 25 22
  19819886.396    -3652538.396 7  -2792625.235 7
  24246824.154     4539098.549 2   3489918.533 3
  22629450.131    -8466109.248 5  -6414580.974 5
  20959969.857    -6259216.268 7  -4807528.294 8
  23419096.287     3597830.094 5   2733164.971 5
  20742281.389    -4932171.885 7  -3775217.727 8
 95 10 22  0 38 29.9980000  0  6 14 15 18 29 25 22
  19814186.092    -3682485.598 7  -2815960.718 7
  24258480.881     4600338.936 2   3537638.256 3
  22607652.920    -8580674.107 5  -6503852.246 5
  20944482.850    -6340597.138 7  -4870941.947 9
  23428982.170     3649799.720 5   2773660.783 5
  20733527.311    -4978181.888 7  -3811069.663 8
 95 10 22  0 38 59.9980000  0  5 14 18 29 25 22
  19808600.170    -3711857.319 7  -2838847.780 7
  22585858.912    -8695179.473 5  -6593077.174 5
  20929016.936    -6421879.992 7  -4934279.230 9
  23438859.459     3701771.274 5   2814158.090 5
  20724891.295    -5023546.096 7  -3846418.385 8
 95 10 22  0 39 29.9980000  0  6 14 15 18 29 25 22
  19803116.795    -3740650.852 7  -2861284.299 8
  24281736.889          -0.92213
  22564081.412    -8809627.266 5  -6682257.247 5
  20913569.740    -6503048.330 7  -4997527.273 9
  23448760.615     3753760.229 5   2854668.966 5
  20716387.350    -5068257.350 7  -3881258.308 8
 95 10 22  0 39 59.9980000  0  6 14 15 18 29 25 22
  19797749.037    -3768864.018 7  -2883268.587 8
  24293324.232       60919.398 2        -0.01211
  22542315.068    -8924016.458 5  -6771391.650 5
  20898149.232    -6584085.047 7  -5060672.760 9
  23458653.725     3805774.404 5   2895199.489 5
  20707999.193    -5112333.006 7  -3915602.960 8
 95 10 22  0 40 29.9980000  0  6 14 15 18 29 25 22
  19792492.295    -3796499.576 7  -2904802.787 7
  24304894.662      121734.573 3     47388.434 1
  22520553.897    -9038355.516 5  -6860487.000 5
  20882759.139    -6664964.956 7  -5123696.053 9
  23468558.428     3857824.258 5   2935757.822 5
  20699725.350    -5155792.429 7  -3949467.434 8
 95 10 22  0 40 59.9980000  0  6 14 15 18 29 25 22
  19787339.037    -3823575.119 7  -2925900.618 7
  24316447.350      182440.595 3     94691.795 1
  22498804.615    -9152660.148 6  -6949555.509 5
  20867397.647    -6745689.850 7  -5186598.558 9
  23478479.568     3909914.632 5   2976347.735 5
  20691569.092    -5198660.075 7  -3982870.781 8
 95 10 22  0 41 29.9980000  0  7 14 15 18 29 25 22 19
  19782289.404    -3850099.516 7  -2946568.980 8
  24327978.811      243031.703 4    141905.628 1
  22477060.107    -9266932.993 6  -7038599.258 5
  20852066.615    -6826258.783 7  -5249379.537 9
  23488395.342     3962041.031 5   3016965.705 5
  20683523.303    -5240954.962 7  -4015827.837 8
  24273417.412          -0.80513
 95 10 22  0 41 59.9980000  0  7 14 15 18 29 25 22 19
  19777348.662    -3876064.219 7  -2966801.221 8
  24339486.514      303505.462 3    189028.061 1
  22455325.350    -9381156.804 6  -7127604.803 5
  20836761.193    -6906685.413 7  -5312049.625 9
  23498326.107     4014198.972 5   3057608.268 5
  20675584.084    -5282673.209 7  -4048335.541 8
  24249089.068     -127879.782 3
 95 10 22  0 42 29.9980000  0  6 14 18 29 25 22 19
  19772515.537    -3901472.150 7  -2986599.613 8
  22433597.928    -9495333.906 6  -7216573.937 5
  20821479.943    -6986987.600 7  -5374622.746 9
  23508248.146     4066369.740 5   3098260.830 5
  20667753.615    -5323811.296 7  -4080391.183 8
  24224774.514     -255625.218 3
 95 10 22  0 42 59.9980000  0  7 14  4 18 29 25 22 19
  19767791.436    -3926302.547 7  -3005947.975 8
  24327580.967          -0.14414
  22411882.646    -9609442.206 6  -7305489.462 5
  20806223.615    -7067160.128 7  -5437094.833 9
  23518175.506     4118557.131 5   3138926.325 5
  20660038.959    -5364349.211 7  -4111979.157 8
  24200496.975     -383226.884 2        -0.47411
 95 10 22  0 43 29.9980000  0  7 14  4 18 29 25 22 19
  19763178.615    -3950539.152 7  -3024833.642 8
  24315879.506      -61510.685 4
  22390184.951    -9723467.731 6  -7394340.481 5
  20790991.084    -7147204.964 7  -5499467.416 9
  23528115.631     4170768.279 5   3179610.356 5
  20652446.139    -5404263.114 7  -4143080.874 8
  24176238.467     -510689.200 2    -99321.687 2
 95 10 22  0 43 59.9980000  0  6  4 18 29 25 22 19
  24304274.998     -122488.354 4
  22368499.482    -9837413.760 6  -7483129.560 5
  20775786.232    -7227116.450 7  -5561736.090 9
  23538046.061     4223000.708 5   3220310.954 5
  20644975.350    -5443536.653 7  -4173683.636 8
  24152011.264     -638009.617 2   -198532.316 1
 95 10 22  0 44 29.9980000  0  7 14  4 18 29 25 22 19
  19754289.146          -0.78317
  24292762.709     -182949.202 3
  22346827.334    -9951302.393 6  -7571873.903 5
  20760605.225    -7306883.224 7  -5623892.001 9
  23547998.365     4275255.140 5   3261028.688 4
  20637621.842    -5482178.846 7  -4203794.423 8
  24127801.615     -765193.655 1   -297636.669 2
 95 10 22  0 44 59.9980000  0  6 14  4 18 29 25 22
  19750012.514      -22479.263 7        -0.16618
  24281354.686     -242905.141 3
  22325167.568   -10065129.547 6  -7660570.344 5
  20745454.998    -7386501.359 7  -5685932.093 9
  23557948.826     4327548.383 5   3301776.665 5
  20630387.748    -5520193.427 7  -4233416.158 8
 95 10 22  0 45 29.9980000  0  7 14  4 18 29 25 22 19
  19745841.514      -44398.576 7    -17080.147 8
  24270038.881     -302384.571 3        -0.44111
  22303516.725   -10178906.563 6  -7749227.709 5
  20730331.201    -7465977.582 7  -5747861.599 9
  23567902.029     4379858.999 5   3342538.184 4
  20623268.779    -5557588.671 7  -4262555.292 8
  24079490.850     -126895.503 2
 95 10 22  0 45 59.9980000  0  7 14  4 18 29 25 22 19
  19741773.397      -65778.161 7    -33739.563 8
  24258808.576     -361387.095 3    -45976.386 1
  22281873.295   -10292639.510 6  -7837850.750 5
  20715233.818    -7545313.418 7  -5809681.715 9
  23577852.232     4432172.982 4   3383302.325 3
  20616268.326    -5594381.165 7  -4291224.755 8
  24055363.826          -0.45812
 95 10 22  0 46 29.9980000  0  7 14  4 18 29 25 22 19
  19737812.678      -86591.327 7    -49957.615 8
  24247680.967     -419892.712 3    -91565.199 1
  22260245.092   -10406298.729 6  -7926416.330 5
  20700164.490    -7624505.221 7  -5871389.598 9
  23587821.100     4484508.347 5   3424083.128 4
  20609382.779    -5630566.877 7  -4319421.399 8
  24031276.990     -126593.048 3        -0.27313
 95 10 22  0 46 59.9980000  0  7 14  4 18 29 25 22 19
  19733959.021     -106838.228 7    -65734.421 8
  24236638.350     -477906.920 3
  22238630.607   -10519886.622 6  -8014926.340 5
  20685117.771    -7703571.022 7  -5932999.299 9
  23597780.607     4536840.719 5   3464861.606 2
  20602610.943    -5666151.692 7  -4347149.815 8
  24007219.521     -253018.888 3    -98513.852 2
 95 10 22  0 47 29.9980000  0  7 14  4 18 29 25 22 19
  19730215.717     -126515.784 7    -81067.577 8
  24225691.857     -535435.578 3
  22217026.912   -10633412.021 6  -8103387.659 5
  20670098.662    -7782502.784 7  -5994504.557 9
  23607728.115     4589157.046 5   3505627.602 2
  20595953.756    -5701135.975 7  -4374410.277 8
  23983192.373     -379301.062 3   -196915.483 2
 95 10 22  0 47 59.9980000  0  7 14  4 18 29 25 22 19
  19726584.662     -145591.744 7    -95931.958 8
  24214841.498     -592448.837 3
  22195442.084   -10746853.381 6  -8191783.492 5
  20655109.639    -7861273.734 7  -6055884.496 9
  23617696.521     4641497.541 5   3546412.407 4
  20589414.014    -5735496.350 7  -4401184.586 8
  23959185.100     -505419.375 3   -295189.413 4
 95 10 22  0 48 29.9980000  0  7 14  4 18 29 25 22 19
  19723069.607     -164065.890 7   -110327.397 8
  24204087.615     -648960.909 3        -0.33511
  22173868.764   -10860212.497 6  -8280115.237 5
  20640151.959    -7939874.714 7  -6117131.998 9
  23627655.811     4693861.946 5   3587215.856 4
  20582994.936    -5769233.942 7  -4427473.601 8
  23935218.342     -631370.300 3   -393332.923 3
 95 10 22  0 48 59.9980000  0  7 14  4 18 29 25 22 19
  19719668.537     -181948.799 7   -124262.131 8
  24193429.029     -704973.719 3    -43646.663 1
  22152312.475   -10973486.351 6  -8368380.550 5
  20625229.482    -8018283.778 7  -6178229.965 9
  23637623.209     4746253.178 5   3628040.208 2
  20576695.514    -5802333.486 7  -4453265.441 8
  23911282.795     -757171.059 3   -491359.465 2
 95 10 22  0 49 29.9980000  0  7 14  4 18 29 25 22 19
  19716378.279     -199247.020 7   -137741.264 8
  24182861.232     -760489.554 3    -86905.750 2
  22130774.686   -11086679.342 6  -8456582.861 5
  20610347.287    -8096492.735 7  -6239171.994 9
  23647604.787     4798674.151 5   3668887.734 4
  20570517.217    -5834791.892 7  -4478557.695 8
  23887367.873     -882820.484 3   -589268.060 3
 95 10 22  0 49 59.9980000  0  7 14  4 18 29 25 22 19
  19713194.967     -215971.641 7   -150773.437 8
  24172397.787     -815501.330 3   -129772.079 1
  22109248.670   -11199784.811 6  -8544716.972 5
  20595500.264    -8174516.982 7  -6299970.090 9
  23657576.100     4851114.651 5   3709750.491 4
  20564460.771    -5866614.424 7  -4503354.463 8
  23863492.139    -1008301.416 4   -687045.387 2
 95 10 22  0 50 29.9980000  0  7 14  4 18 29 25 22 19
  19710113.365     -232155.002 7   -163383.846 8
  24162017.490     -870036.645 3   -172267.059 1
  22087737.904   -11312826.441 6  -8632801.340 5
  20580682.850    -8252384.201 7  -6360645.831 9
  23667550.842     4903532.392 5   3750595.495 5
  20558523.021    -5897834.136 7  -4527681.504 8
  23839640.420    -1133637.210 4   -784709.563 2
 95 10 22  0 50 59.9980000  0  7 14  4 18 29 25 22 19
  19707136.600     -247797.569 7   -175572.862 8
  24151736.068     -924085.823 3   -214383.318 1
  22066237.295   -11425819.295 6  -8720847.701 5
  20565894.529    -8330102.586 7  -6421205.598 9
  23677517.232     4955921.217 5   3791417.975 5
  20552696.451    -5928452.889 7  -4551540.257 8
  23815816.529    -1258837.033 3   -882267.868 3
 95 10 22  0 51 29.9980000  0  7 14  4 18 29 25 22 19
  19704264.771     -262903.155 7   -187343.449 8
  24141541.514     -977641.687 3   -256115.147 2
  22044741.662   -11538773.620 6  -8808864.038 5
  20551131.170    -8407684.519 7  -6481659.037 9
  23687485.772     5008276.177 5   3832214.057 5
  20546979.225    -5958483.397 7  -4574940.643 8
  23792023.600    -1383887.764 5   -979709.974 1
 95 10 22  0 51 59.9980000  0  7 14  4 18 29 25 22 19
  19701492.201     -277460.776 7   -198687.048 8
  24131443.084    -1030686.354 3   -297448.651 1
  22023260.787   -11651661.953 6  -8896828.958 5
  20536393.240    -8485129.628 7  -6542005.861 9
  23697446.084     5060612.370 5   3872995.526 5
  20541377.436    -5987921.440 7  -4597879.373 8
  23768254.225    -1508782.225 3
 95 10 22  0 52 29.9980000  0  7 14  4 18 29 25 22 19
  19698827.443     -291458.166 7   -209594.109 8
  24121449.889    -1083212.053 3   -338377.762 1
  22001788.623   -11764490.697 6  -8984747.438 5
  20521684.834    -8562423.362 7  -6602234.729 9
  23707401.889     5112939.581 5   3913769.981 5
  20535891.639    -6016762.936 7  -4620353.256 8
  23744514.592    -1633517.286 4
 95 10 22  0 52 59.9980000  0  7 14  4 18 29 25 22 19
  19696269.912     -304914.610 7   -220079.651 8
  24111547.537    -1135248.317 3   -378925.469 2
  21980325.147   -11877291.205 6  -9072643.921 5
  20506998.561    -8639596.083 7  -6662369.305 9
  23717351.662     5165239.521 5   3954523.225 5
  20530509.264    -6045024.657 7  -4642375.370 8
  23720804.256    -1758125.117 3        -0.43411
 95 10 22  0 53 29.9980000  0  7 14  4 18 29 25 22 19
  19693812.670     -317812.595 7   -230130.030 8
  24101735.576    -1186789.546 2   -419087.441 2
  21958872.506   -11990025.274 6  -9160488.643 5
  20492339.178    -8716632.780 7  -6722397.891 9
  23727304.475     5217525.350 5   3995265.440 5
  20525248.787    -6072691.882 7  -4663934.236 8
  23697122.803    -1882581.566 3    -96979.474 2
 95 10 22  0 53 59.9970000  0  7 14  4 18 29 25 22 19
  19691469.501     -330136.616 7   -239733.166 8
  24092028.853    -1237839.875 3   -458866.887 1
  21937437.634   -12102681.761 6  -9248272.904 5
  20477707.532    -8793524.121 7  -6782313.206 9
  23737251.892     5269803.819 5   4036001.925 5
  20520096.196    -6099751.998 7  -4685020.032 8
  23673457.157    -2006878.794 2   -193834.398 1
 95 10 22  0 54 29.9970000  0  7 14  4 18 29 25 22 19
  19689228.368     -341897.829 7   -248897.749 8
  24082405.306    -1288414.983 3   -498276.037 2
  21916005.532   -12215287.403 6  -9336017.543 5
  20463103.829    -8870267.176 7  -6842112.978 9
  23747205.321     5322076.820 5   4076734.165 5
  20515065.876    -6126198.645 7  -4705627.799 8
  23649847.610    -2131033.233 2
 95 10 22  0 54 59.9970000  0  7 14  4 18 29 25 22 19
  19687099.478     -353096.333 7   -257623.849 8
  24072873.595    -1338519.654 3   -537318.673 1
  21894591.173   -12327825.027 6  -9423709.178 5
  20448527.884    -8946858.046 7  -6901794.166 9
  23757144.829     5374348.878 4   4117465.632 5
  20510152.759    -6152013.302 7  -4725743.101 8
  23626251.493    -2255033.915 4
 95 10 22  0 55 29.9970000  0  7 14  4 18 29 25 22 19
  19685076.415     -363729.887 7   -265909.735 8
  24063430.626    -1388138.972 3   -575983.023 1
  21873193.485   -12440274.551 6  -9511332.172 5
  20433984.938    -9023286.734 7  -6961348.977 9
  23767098.853     5426626.313 5   4158201.307 5
  20505363.556    -6177187.458 7  -4745359.317 8
  23602683.360    -2378862.571 4
 95 10 22  0 55 59.9970000  0  7 14  4 18 29 25 22 19
  19683159.907     -373810.050 7   -273764.409 8
  24054079.946    -1437279.049 3   -614274.034 2
  21851807.204   -12552651.832 6  -9598898.871 6
  20419470.751    -9099556.613 7  -7020780.042 9
  23777047.548     5478906.632 5   4198939.216 4
  20500690.220    -6201729.352 7  -4764482.857 8
  23579153.189    -2502529.598 4
 95 10 22  0 56 29.9970000  0  7 14  4 18 29 25 22 19
  19681347.603     -383316.967 7   -281172.400 8
  24044825.126    -1485916.664 3   -652173.436 1
  21830443.329   -12664921.657 6  -9686381.831 5
  20404990.642    -9175644.702 7  -7080069.449 9
  23786997.689     5531204.533 4   4239690.837 5
  20496144.657    -6225634.251 7  -4783110.045 8
  23555650.181    -2626027.173 3
 95 10 22  0 56 59.9970000  0  7 14  4 18 29 25 22 19
  19679649.056     -392244.709 7   -288129.078 8
  24035660.462    -1534059.786 2   -689687.566 2
  21809100.767   -12777075.387 6  -9773774.323 6
  20390545.884    -9251563.210 7  -7139226.722 9
  23796946.884     5583500.927 4   4280441.273 4
  20491711.142    -6248925.839 7  -4801259.324 8
  23532180.642    -2749357.127 4        -0.15613
 95 10 22  0 57 29.9970000  0  7 14  4 18 29 25 22 19
  19678063.196     -400593.743 7   -294634.825 8
  24026586.462    -1581713.055 3   -726819.955 1
  21787779.384   -12889119.456 6  -9861081.374 5
  20376130.110    -9327309.411 7  -7198249.723 9
  23806898.712     5635786.782 5   4321183.518 3
  20487387.923    -6271631.740 7  -4818952.223 8
  23508740.017    -2872534.322 3    -95982.343 2
 95 10 22  0 57 59.9970000  0  7 14  4 18 29 25 22 19
  19676581.149     -408369.497 7   -300693.851 8
  24017616.509    -1628893.534 3   -763583.935 1
  21766474.165   -13001075.844 6  -9948320.101 5
  20361748.368    -9402888.771 7  -7257142.717 9
  23816846.907     5688048.654 5   4361907.096 2
  20483177.282    -6293784.201 7  -4836213.874 8
  23485323.993    -2995580.377 4   -191862.319 2
 95 10 22  0 58 29.9970000  0  7 14  4 18 29 25 22 19
  19675212.267     -415559.689 7   -306296.596 8
  24008726.329    -1675585.935 3   -799967.624 1
  21745187.853   -13112939.283 6 -10035486.399 5
  20347399.673    -9478295.727 7  -7315901.376 9
  23826784.837     5740287.092 3   4402612.342 2
  20479067.212    -6315370.266 7  -4853034.170 8
  23461940.251    -3118482.676 4   -287630.253 3
 95 10 22  0 58 59.9970000  0  7 14  4 18 29 25 22 19
  19673956.954     -422179.532 7   -311454.921 8
  23999931.571    -1721784.018 3   -835966.107 1
  21723915.720   -13224725.705 6 -10122592.680 5
  20333082.392    -9553529.763 7  -7374525.290 9
  23836715.907     5792506.152 4   4443302.570 3
  20475067.321    -6336376.337 7  -4869402.528 8
  23438579.103    -3241216.299 3   -383266.759 2
 95 10 22  0 59 29.9970000  0  7 14  4 18 29 25 22 19
  19672798.876     -428239.926 7   -316177.303 8
  23991237.243    -1767474.862 3   -871569.337 1
  21702657.899   -13336441.439 6 -10209643.883 5
  20318800.571    -9628582.393 7  -7433007.840 9
  23846657.235     5844716.413 5   4483985.908 2
  20471187.462    -6356787.479 7  -4885307.307 8
  23415262.688    -3363775.811 3   -478767.620 3
 95 10 22  0 59 59.9970000  0  7 14  4 18 29 25 22 19
  19671748.103     -433761.688 7   -320479.979 9
  23982642.189    -1812674.651 3   -906789.948 1
  21681411.110   -13448101.424 6 -10296651.651 5
  20304549.462    -9703472.065 7  -7491363.420 9
  23856589.681     5896904.500 5   4524651.965 3
  20467416.267    -6376596.354 7  -4900742.784 8
  23391976.884    -3486163.606 5   -574134.646 3
 95 10 22  1  0 29.9970000  0  7 14  4 18 29 25 22 19
  19670801.649     -438756.781 7   -324372.258 9
  23974132.548    -1857391.642 3   -941634.376 1
  21660169.962   -13559714.012 6 -10383622.480 5
  20290328.978    -9778207.691 7  -7549598.955 9
  23866513.751     5949065.156 5
  20463762.845    -6395781.259 7  -4915692.059 8
  23368716.415    -3608375.430 5   -669364.578 4
 95 10 22  1  0 59.9970000  0  6 14  4 18 29 22 19
  19669952.532     -443217.156 7   -327847.877 9
  23965721.165    -1901618.495 3   -976096.842 1
  21638941.384   -13671280.099 6 -10470557.076 6
  20276140.540    -9852764.134 7  -7607694.879 9
  20460232.563    -6414332.357 7  -4930147.443 8
  23345489.673    -3730406.825 3   -764453.908 2
 95 10 22  1  1 29.9970000  0  6 14  4 18 29 22 19
  19669206.728     -447123.671 7   -330891.914 9
  23957397.634    -1945364.367 3  -1010184.524 1
  21617719.837   -13782795.748 6 -10557452.363 6
  20261987.782    -9927134.129 7  -7665645.516 9
  20456822.696    -6432254.869 7  -4944113.025 8
  23322301.118    -3852274.813 4   -859415.934 3
 95 10 22  1  1 59.9970000  0  6 14  4 18 29 22 19
  19668573.149     -450461.942 7   -333493.166 9
  23949161.376    -1988631.101 3  -1043898.900 1
  21596509.009   -13894252.287 6 -10644301.586 6
  20247869.595   -10001327.140 7  -7723458.244 9
  20453532.392    -6449550.403 7  -4957590.056 8
  23299136.165    -3973968.023 4   -954241.725 2
 95 10 22  1  2 29.9970000  0  6 14  4 18 29 22 19
  19668045.735     -453225.426 7   -335646.530 9
  23941018.399    -2031402.328 3  -1077227.070 1
  21575313.681   -14005635.656 6 -10731093.795 6
  20233784.267   -10075346.787 7  -7781135.886 9
  20450357.767    -6466233.329 7  -4970589.736 8
  23276021.610    -4095488.581 3  -1048933.041 2
 95 10 22  1  2 59.9970000  0  6 14  4 18 29 22 19
  19667626.345     -455430.562 7   -337364.816 9
  23932978.087    -2073680.954 3  -1110171.449 1
  21554137.540   -14116930.631 6 -10817817.129 6
  20219731.821   -10149197.468 7  -7838681.867 9
  20447294.118    -6482332.213 7  -4983134.313 8
  23252931.978    -4216843.899 5  -1143495.578 1
 95 10 22  1  3 29.9970000  0  6 14  4 18 29 22 19
  19667313.259     -457079.619 7   -338649.798 9
  23925021.439    -2115472.875 3  -1142736.579 1
  21532980.446   -14228101.846 6 -10904444.018 6
  20205704.876   -10222902.173 7  -7896114.094 9
  20444342.899    -6497849.321 7  -4995225.563 8
  23229870.290    -4338027.600 4  -1237924.427 2
 95 10 22  1  3 59.9970000  0  6 14  4 18 29 22 19
  19667104.899     -458181.965 7   -339508.772 9
  23917162.704    -2156770.595 3  -1174916.606 2
  21511851.892   -14339130.696 6 -10990959.980 6
  20191708.907   -10296457.404 7  -7953429.855 9
  20441502.079    -6512777.012 7  -5006857.529 8
  23206839.603    -4459023.583 4  -1332206.959 2
 95 10 22  1  4 29.9970000  0  6 14  4 18 29 22 19
  19666997.743     -458747.749 7   -339949.640 9
  23909392.923    -2197566.466 3  -1206705.620 2
  21490752.626   -14450010.914 6 -11077360.122 6
  20177745.712   -10369833.416 7  -8010605.958 9
  20438770.853    -6527118.358 7  -5018032.591 8
  23183847.017    -4579843.547 4  -1426352.346 2
 95 10 22  1  4 59.9970000  0  6 14  4 18 29 22 19
  19666990.993     -458787.530 7
  23901722.931    -2237874.734 3  -1238114.622 1
  21469678.470   -14560758.696 6 -11163657.058 6
  20163816.603   -10443027.289 7  -8067640.140 9
  20436151.970    -6540876.187 7  -5028752.971 8
  23160891.743    -4700496.842 3  -1520367.917 2
 95 10 22  1  5 29.9970000  0  6 14  4 18 29 22 19
  19667082.978     -458285.749 7
  23894152.954    -2277703.828 3  -1269150.313 1
  21448622.493   -14671398.780 6 -11249870.084 6
  20149924.587   -10516042.592 7  -8124535.175 9
  20433645.243    -6554044.416 7  -5039013.930 8
  23137961.282    -4820994.130 5  -1614261.845 1
 95 10 22  1  5 59.9970000  0  6 14  4 18 29 22 19
  19667282.829     -457239.697 7   -338774.539 9
  23886661.681    -2317047.261 3  -1299807.514 1
  21427585.149   -14781958.933 6 -11336020.829 6
  20136066.228   -10588858.985 7  -8181275.213 9
  20431251.704    -6566629.923 7  -5048820.810 8
  23115060.392    -4941340.592 5  -1708038.313 1
 95 10 22  1  6 29.9970000  0  6 14  4 18 29 22 19
  19667585.868     -455640.050 7   -337528.065 8
  23879266.306    -2355891.353 3  -1330075.595 2
  21406560.657   -14892441.097 6 -11422110.792 6
  20122249.306   -10661466.735 7  -8237852.680 9
  20428972.243    -6578621.381 7  -5058164.798 8
  23092190.134    -5061538.296 5  -1801698.828 2
 95 10 22  1  6 59.9970000  0  6 14  4 18 29 22 19
  19667998.001     -453462.677 7   -335831.413 8
  23871967.954    -2394242.351 2  -1359959.503 2
  21385551.829   -15002843.933 6 -11508138.951 6
  20108471.962   -10733867.861 7  -8294269.133 9
  20426806.345    -6590008.325 7  -5067037.735 8
  23069339.618    -5181573.827 4  -1895232.997 2
 95 10 22  1  7 29.9970000  0  6 14  4 18 29 22 19
  19668526.095     -450710.685 7   -333687.007 8
  23864767.243    -2432111.381 3  -1389467.846 1
  21364558.368   -15113163.962 6 -11594102.590 6
  20094734.251   -10806058.719 7  -8350521.744 9
  20424752.228    -6600791.232 7  -5075439.998 8
  23046529.368    -5301448.032 5  -1988641.374 3
 95 10 22  1  7 59.9970000  0  6 14  4 18 29 22 19
  19669155.868     -447405.816 7   -331111.788 8
  23857647.024    -2469502.629 3  -1418603.849 2
  21343583.860   -15223398.070 6 -11679999.270 6
  20081036.728   -10878040.429 7  -8406611.383 9
  20422811.165    -6610979.683 7  -5083379.041 8
  23023753.962    -5421154.668 5  -2081919.210 2
 95 10 22  1  8 29.9970000  0  6 14  4 18 29 22 19
  19669886.095     -443557.854 7   -328113.376 8
  23850623.610    -2506434.026 3  -1447381.567 2
  21322621.337   -15333547.128 6 -11765829.689 6
  20067373.743   -10949838.326 7  -8462557.784 9
  20420986.970    -6620587.009 7  -5090865.267 8
  23001004.829    -5540705.731 5  -2175075.839 2
 95 10 22  1  8 59.9970000  0  6 14  4 18 29 22 19
  19670719.329     -439168.055 7   -324692.750 8
  23843678.774    -2542916.193 3  -1475809.237 2
  21301676.564   -15443609.219 6 -11851592.335 6
  20053744.321   -11021462.863 7  -8518369.115 9
  20419266.774    -6629628.431 7  -5097910.525 8
  22978287.165    -5660092.007 5  -2268104.049 2
 95 10 22  1  9 29.9970000  0  6 14  4 18 29 22 19
  19671655.446     -434263.657 7   -320871.149 8
  23836824.806    -2578945.453 2  -1503883.953 1
  21280749.446   -15553591.546 6 -11937292.835 6
  20040145.837   -11092924.488 7  -8574053.490 9
  20417652.009    -6638102.086 7  -5104513.362 8
  22955592.610    -5779308.810 5  -2361000.163 2
 95 10 22  1  9 59.9970000  0  6 14  4 18 29 22 19
  19672684.251     -428844.394 7   -316648.350 8
  23830057.610    -2614507.593 3  -1531594.733 1
  21259836.657   -15663483.506 6 -12022922.917 6
  20026578.774   -11164219.248 7  -8629607.839 9
  20416147.626    -6646008.416 7  -5110674.128 8
  22932949.376    -5898346.894 5  -2453757.067 4
 95 10 22  1 10 29.9970000  0  6 14  4 18 29 22 19
  19673812.556     -422910.909 7   -312024.861 8
  23823377.931    -2649607.332 3  -1558945.117 1
  21238941.134   -15773287.449 6 -12108484.415 6
  20013040.314   -11235365.665 7  -8685046.601 9
  20414753.728    -6653356.289 7  -5116399.739 8
  22910318.665    -6017223.731 4  -2546388.304 4
 95 10 22  1 10 59.9970000  0  6 14  4 18 29 22 19
  19675044.946     -416451.766 7   -306991.764 8
  23816792.618    -2684223.181 3  -1585918.546 2
  21218069.274   -15882971.359 6 -12193952.383 6
  19999536.056   -11306323.168 7  -8740338.158 9
  20413462.884    -6660106.959 7  -5121659.992 8
  22887735.267    -6135916.287 5  -2638875.959 4
 95 10 22  1 11 29.9970000  0  6 14  4 18 29 22 19
  19676370.220     -409469.882 7   -301551.338 8
  23810294.376    -2718357.755 3  -1612516.929 2
  21197220.368   -15992533.095 6 -12279325.151 6
  19986072.235   -11377084.775 7  -8795477.071 9
  20412298.767    -6666251.413 7  -5126447.864 8
  22865186.790    -6254435.727 5  -2731228.713 3
 95 10 22  1 11 59.9970000  0  6 14  4 18 29 22 19
  19677807.603     -401938.923 7   -295683.062 8
  23803889.204    -2752005.159 3  -1638735.631 1
  21176397.376   -16101953.839 6 -12364588.056 6
  19972645.634   -11447645.506 7  -8850459.453 9
  20411241.524    -6671791.560 7  -5130764.852 8
  22842668.899    -6372776.739 5  -2823442.447 5
 95 10 22  1 12 29.9970000  0  6 14  4 18 29 22 19
  19679339.376     -393870.556 7   -289396.025 8
  23797573.478    -2785190.092 3  -1664594.042 1
  21155596.149   -16211260.719 6 -12449762.233 6
  19959251.509   -11518024.546 7  -8905300.250 9
  20410301.251    -6676736.605 7  -5134618.120 8
  22820167.321    -6490958.478 4  -2915532.078 3
 95 10 22  1 12 59.9970000  0  6 14  4 18 29 22 19
  19680979.806     -385259.522 7   -282686.132 8
  23791355.532    -2817917.341 3  -1690095.811 1
  21134817.056   -16320458.067 6 -12534851.060 6
  19945899.845   -11588192.029 7  -8959976.210 9
  20409472.829    -6681086.653 7  -5138007.757 8
  22797725.556    -6608964.242 5  -3007484.580 4
 95 10 22  1 13 29.9970000  0  6 14  4 18 29 22 19
  19682723.688     -376093.114 7   -275543.477 8
  23785210.071    -2850174.162 3  -1715230.993 1
  21114054.595   -16429564.380 6 -12619868.959 6
  19932585.978   -11658157.321 7  -9014494.617 9
  20408754.712    -6684861.664 7  -5140949.313 8
  22775298.032    -6726777.675 5  -3099287.206 5
 95 10 22  1 13 59.9970000  0  6 14  4 18 29 22 19
  19684572.415     -366368.423 7   -267965.809 8
  23779164.126    -2881961.978 3  -1740000.709 1
  21093309.368   -16538585.944 6 -12704820.815 6
  19919310.634   -11727915.637 7  -9068851.736 9
  20408141.767    -6688074.472 7  -5143452.790 8
  22752919.173    -6844397.028 5  -3190938.621 5
 95 10 22  1 14 29.9960000  0  6 14  4 18 29 22 19
  19686530.184     -356102.576 7   -259966.446 9
  23773201.254    -2913287.295 3  -1764410.083 1
  21072579.277   -16647530.451 6 -12789712.634 6
  19906075.723   -11797463.323 7  -9123044.735 9
  20407636.418    -6690732.008 7  -5145523.584 8
  22730565.629    -6961828.622 5  -3282443.715 4
 95 10 22  1 14 59.9960000  0  6 14  4 18 29 22 19
  19688582.957     -345297.682 7   -251547.058 9
  23767326.160    -2944146.619 3  -1788456.277 1
  21051860.184   -16756399.223 6 -12874545.428 6
  19892879.207   -11866811.835 7  -9177082.532 9
  20407238.184    -6692849.788 7  -5147173.790 8
  22708257.012    -7079077.091 5  -3373806.129 4
 95 10 22  1 15 29.9960000  0  6 14  4 18 29 22 19
  19690741.566     -333958.044 7   -242710.979 9
  23761546.074    -2974527.061 2  -1812129.372 1
  21031164.856   -16865163.027 6 -12959296.430 6
  19879719.895   -11935967.540 7  -9230970.086 9
  20406933.332    -6694415.500 7  -5148393.816 8
  22685980.598    -7196140.435 4  -3465024.283 4
 95 10 22  1 15 59.9960000  0  6 14  4 18 29 22 19
  19693001.348     -322090.746 7   -233463.742 9
  23755857.137    -3004442.852 3  -1835440.376 2
  21010491.754   -16973799.645 6 -13043948.323 6
  19866596.770   -12004929.857 7  -9284706.953 9
  20406744.246    -6695418.878 7  -5149175.663 8
  22663737.379    -7313026.940 4  -3556104.643 5
 95 10 22  1 16 29.9960000  0  6 14  4 18 29 22 19
  19695354.176     -309708.283 7   -223815.078 9
  23750245.012    -3033900.457 3  -1858394.322 1
  20989842.426   -17082300.138 6 -13128494.142 6
  19853510.605   -12073704.749 7  -9338297.772 9
  20406663.574    -6695866.014 7
  22641529.168    -7429741.981 5  -3647051.387 4
 95 10 22  1 16 59.9960000  0  5 14 18 29 22 19
  19697811.113     -296805.418 7   -213760.901 9
  20969226.371   -17190642.615 6 -13212916.843 6
  19840461.184   -12142272.676 7  -9391727.321 9
  20406682.066    -6695739.401 7
  22619358.824    -7546277.280 5  -3737858.056 4
 95 10 22  1 17 29.9960000  0  6 14  4 18 29 22 19
  19700362.465     -283404.967 7   -203319.001 9
  23739293.543          -0.33313
  20948637.481   -17298841.778 6 -13297227.868 6
  19827451.254   -12210640.375 7  -9445000.851 9
  20406814.418    -6695046.691 7  -5148885.624 8
  22597212.426    -7662647.161 5  -3828535.827 4
 95 10 22  1 17 59.9960000  0  6 14  4 18 29 22 19
  19703007.613     -269501.270 7   -192484.959 9
  23733942.496      -28112.400 3
  20928074.684   -17406899.754 6 -13381428.868 6
  19814482.488   -12278792.697 7  -9498106.545 9
  20407057.574    -6693792.265 7  -5147908.142 8
  22575098.270    -7778841.275 5  -3919076.640 3
 95 10 22  1 18 29.9960000  0  6 14  4 18 29 22 19
  19705744.645     -255105.416 7   -181267.417 9
  23728684.402      -55777.354 3        -0.25811
  20907535.363   -17514830.149 6 -13465530.450 6
  19801557.324   -12346714.624 7  -9551032.718 9
  20407400.035    -6691983.307 7  -5146498.556 8
  22553017.285    -7894861.273 5  -4009481.771 4
 95 10 22  1 18 59.9960000  0  6 14  4 18 29 22 19
  19708576.473     -240226.949 7   -169673.810 9
  23723502.137      -83001.733 3    -21214.035 1
  20887018.707   -17622650.121 6 -13549546.004 6
  19788672.449   -12414421.586 7  -9603791.387 9
  20407847.551    -6689626.210 7  -5144661.853 8
  22530975.887    -8010701.234 5  -4099746.619 4
 95 10 22  1 19 29.9960000  0  6 14  4 18 29 22 19
  19711503.238     -224853.776 7   -157694.729 9
  23718409.754     -109769.583 3    -42072.137 1
  20866522.770   -17730353.438 6 -13633470.645 6
  19775829.160   -12481916.015 7  -9656384.448 9
  20408398.715    -6686725.779 7  -5142401.774 8
  22508973.887    -8126352.130 5  -4189864.141 2
 95 10 22  1 19 59.9960000  0  6 14  4 18 29 22 19
  19714523.645     -208977.329 7   -145323.479 9
  23713403.191     -136080.767 3    -62574.359 1
  20846050.840   -17837934.226 6 -13717299.818 6
  19763026.598   -12549194.554 7  -9708809.279 9
  20409051.949    -6683285.364 7  -5139720.924 8
  22486991.418    -8241819.734 5  -4279838.850 4
 95 10 22  1 20 29.9960000  0  6 14  4 18 29 22 19
  19717644.957     -192584.344 7   -132549.730 9
  23708484.637     -161941.534 3    -82725.607 2
  20825602.191   -17945393.748 6 -13801034.490 6
  19750263.715   -12616257.741 7  -9761066.302 9
  20409812.676    -6679302.612 7  -5136617.476 8
  22465056.254    -8357101.863 5  -4369669.029 2
 95 10 22  1 20 59.9960000  0  6 14  4 18 29 22 19
  19720865.207     -175655.809 7   -119358.676 9
  23703648.106     -187343.743 3   -102519.518 1
  20805181.301   -18052711.048 6 -13884658.336 6
  19737543.043   -12683106.738 7  -9813156.418 9
  20410673.746    -6674764.740 7  -5133081.469 8
  22443158.481    -8472189.903 5  -4459347.972 4
 95 10 22  1 21 29.9960000  0  6 14  4 18 29 22 19
  19724191.582     -158187.536 7   -105747.049 9
  23698896.543     -212300.578 3   -121966.410 1
  20784780.348   -18159910.039 6 -13968189.999 6
  19724863.301   -12749741.710 7  -9865079.770 9
  20411642.629    -6669681.186 7  -5129120.247 8
  22421290.043    -8587118.662 5  -4548902.809 3
 95 10 22  1 21 59.9960000  0  6 14  4 18 29 22 19
  19727617.012     -140182.569 7    -91717.207 9
  23694226.613     -236818.629 3   -141071.345 1
  20764400.934   -18267006.627 6 -14051641.871 6
  19712226.152   -12816155.293 7  -9916830.607 9
  20412712.856    -6664048.887 7  -5124731.438 8
  22399453.457    -8701878.821 5  -4638326.252 4
 95 10 22  1 22 29.9960000  0  6 14  4 18 29 22 19
  19731145.613     -121639.258 7    -77267.882 9
  23689646.981     -260889.901 3   -159828.210 1
  20744042.582   -18373991.059 6 -14135006.345 6
  19699631.043   -12882343.308 7  -9968405.681 9
  20413889.496    -6657856.190 7  -5119905.952 8
  22377644.285    -8816459.790 5  -4727610.096 4
 95 10 22  1 22 59.9960000  0  6 14  4 18 29 22 19
  19734777.027     -102560.733 7    -62401.510 9
  23685158.332     -284509.208 3   -178232.860 1
  20723708.332   -18480851.517 6 -14218274.221 6
  19687076.832   -12948309.339 7 -10019807.771 9
  20415177.176    -6651099.375 7  -5114640.889 8
  22355870.582    -8930877.072 5  -4816766.370 5
 95 10 22  1 23 29.9960000  0  6 14  4 18 29 22 19
  19738505.824      -82959.238 7    -47127.632 9
  23680742.137     -307685.394 3   -196292.236 1
  20703394.043   -18587595.363 6 -14301451.234 6
  19674567.762   -13014057.347 7 -10071039.982 9
  20416568.441    -6643794.837 7  -5108949.033 8
  22334131.840    -9045132.391 5  -4905796.448 4
 95 10 22  1 23 59.9960000  0  6 14  4 18 29 22 19
  19742332.098      -62855.111 7    -31462.082 9
  23676417.801     -330415.815 3   -214004.247 1
  20683111.738   -18694189.321 6 -14384511.447 6
  19662096.785   -13079582.813 7 -10122098.781 9
  20418062.559    -6635940.857 7  -5102829.038 8
  22312424.152    -9159199.458 5  -4994679.855 4
 95 10 22  1 24 29.9960000  0  6 14  4 18 29 22 19
  19746252.168      -42253.877 7    -15409.183 9
  23672182.965     -352699.874 3   -231368.441 1
  20662859.504   -18800618.305 6 -14467443.108 6
  19649669.902   -13144881.248 7 -10172980.672 9
  20419659.566    -6627542.670 7  -5096284.986 8
  22290753.981    -9273085.067 5  -5083421.852 5
 95 10 22  1 24 59.9960000  0  6 14  4 18 29 22 19
  19750263.637      -21164.355 7      1024.199 8
  23668030.816     -374526.286 3   -248376.043 1
  20642633.730   -18906897.686 6 -14550258.192 6
  19637287.621   -13209953.248 7 -10223686.119 9
  20421362.770    -6618602.817 7  -5089318.858 8
  22269118.988    -9386781.556 5  -5172016.501 4
 95 10 22  1 25 29.9960000  0  6 14  4 18 29 22 19
  19754362.176         375.942 7     17808.829 9
  23663953.660     -395902.731 2   -265032.997 1
  20622433.543   -19013053.147 6 -14632976.721 6
  19624946.848   -13274806.362 7 -10274221.009 9
  20423166.199    -6609137.747 7  -5081943.468 8
  22247517.973    -9500277.204 5  -5260454.620 5
 95 10 22  1 25 59.9960000  0  6 14  4 18 29 22 19
  19758546.762       22361.755 7     34940.626 9
  23659979.277     -416829.363 3   -281339.387 1
  20602254.809   -19119090.519 7 -14715603.230 6
  19612648.605   -13339436.925 7 -10324582.476 9
  20425066.785    -6599149.760 7  -5074160.609 8
  22225959.871    -9613573.005 5  -5348737.026 5
 95 10 22  1 26 29.9960000  0  6 14  4 18 29 22 19
  19762821.215       44820.104 7     52440.630 9
  23656087.707     -437289.468 3   -297282.396 1
  20582099.504   -19225008.993 7 -14798137.090 7
  19600395.363   -13403826.347 7 -10374756.046 9
  20427065.371    -6588627.548 7  -5065961.481 8
  22204441.723    -9726666.650 5  -5436861.910 5
 95 10 22  1 26 59.9960000  0  6 14  4 18 29 22 19
  19767183.762       67742.651 7     70302.344 9
  23652278.066     -457297.846 3   -312873.329 1
  20561965.535   -19330808.752 7 -14880578.443 6
  19588184.926   -13467990.763 7 -10424754.285 9
  20429169.371    -6577577.066 7  -5057350.707 8
  22182951.746    -9839575.807 5  -5524843.023 4
 95 10 22  1 27 29.9960000  0  6 14  4 18 29 22 19
  19771636.316       91155.495 7     88546.108 9
  23648553.012     -476865.734 3   -328121.052 1
  20541863.770   -19436453.113 7 -14962898.716 6
  19576023.379   -13531903.428 7 -10474556.356 9
  20431375.973    -6565995.798 7  -5048326.335 8
  22161502.629    -9952300.308 5  -5612680.272 5
 95 10 22  1 27 59.9960000  0  6 14  4 18 29 22 19
  19776191.652      115084.955 7    107192.428 8
  23644912.582     -495995.024 3   -343027.004 1
  20521792.684   -19541917.549 6 -15045078.785 7
  19563909.801   -13595563.086 7 -10524161.280 9
  20433680.301    -6553874.027 7  -5038880.788 8
  22140086.301   -10064850.263 5  -5700381.490 5
 95 10 22  1 28 29.9960000  0  6 14  4 18 29 22 19
  19780840.145      139517.240 7    126230.563 8
  23641353.965     -514709.111 3
  20501757.566   -19647208.412 6 -15127123.600 7
  19551840.356   -13658989.281 7 -10573584.284 9
  20436087.738    -6541212.193 7  -5029014.420 8
  22118697.418   -10177240.188 5  -5787958.011 5
 95 10 22  1 28 59.9960000  0  6 14  4 18 29 22 19
  19785585.254      164450.841 7    145659.329 9
  23637864.426     -533023.053 3        -0.02211
  20481755.246   -19752326.472 7 -15209033.763 6
  19539811.777   -13722192.154 7 -10622833.272 9
  20438605.043    -6528006.656 7  -5018724.389 7
  22097343.926   -10289465.021 5  -5875405.898 5
 95 10 22  1 29 29.9960000  0  6 14  4 18 29 22 19
  19790424.863      189873.317 7    165469.037 8
  23634451.426     -550947.850 3    -13967.382 1
  20461780.793   -19857286.161 7 -15290820.516 7
  19527827.395   -13785173.495 7 -10671909.635 9
  20441215.965    -6514270.698 7  -5008021.040 8
  22076025.027   -10401510.779 5  -5962714.246 5
 95 10 22  1 29 59.9960000  0  6 14  4 18 29 22 19
  19795351.910      215783.500 7    185658.780 8
  23631112.785     -568482.757 3    -27630.923 1
  20441834.902   -19962098.345 7 -15372492.337 7
  19515884.629   -13847930.577 7 -10720811.255 9
  20443934.473    -6500000.805 7  -4996901.635 7
  22054733.324   -10513358.874 5  -6049868.570 5
 95 10 22  1 30 29.9960000  0  6 14  4 18 29 22 19
  19800377.449      242172.984 7    206222.002 8
  23627859.934     -585624.923 3    -40988.461 1
  20421919.902   -20066760.606 7 -15454047.329 7
  19503988.574   -13910444.800 7 -10769523.632 9
  20446744.895    -6485208.816 7  -4985375.402 7
  22033496.059   -10624998.768 5  -6136860.653 5
 95 10 22  1 30 59.9960000  0  6 14  4 18 29 22 19
  19805488.410      269043.334 7    227159.929 9
  23624672.668     -602351.990 3    -54022.512 1
  20402036.660   -20171249.668 7 -15535467.368 7
  19492143.199   -13972696.824 7 -10818031.695 9
  20449656.277    -6469916.863 7  -4973459.591 7
  22012284.684   -10736427.833 5  -6223688.459 5
 95 10 22  1 31 29.9960000  0  6 14  4 18 29 22 19
  19810687.543      296360.267 7    248445.838 9
  23621571.356     -618674.701 3    -66741.459 1
  20382181.965   -20275582.301 7 -15616765.515 7
  19480345.043   -14034699.867 7 -10866345.752 9
  20452652.738    -6454165.282 7  -4961185.628 8
  21991114.738   -10847674.069 5  -6310373.824 5
 95 10 22  1 31 59.9960000  0  6 14  4 18 29 22 19
  19815970.715      324137.447 7    270090.377 9
  23618537.613     -634569.752 3    -79127.222 1
  20362359.434   -20379750.212 7 -15697935.298 7
  19468595.105   -14096448.940 7 -10914461.903 9
  20455740.606    -6437947.790 7  -4948548.611 8
  21969978.707   -10958749.575 5  -6396926.129 5
 95 10 22  1 32 29.9960000  0  5 14 18 29 22 19
  19821347.426      352370.399 7    292090.068 9
  20342570.949   -20483741.761 7 -15778967.661 7
  19456890.676   -14157944.966 7 -10962380.881 9
  20458915.059    -6421259.331 7  -4935544.609 8
  21948875.645   -11069662.236 5  -6483351.548 5
 95 10 22  1 32 59.9960000  0  5 14 18 29 22 19
  19826803.457      381061.306 7    314446.610 9
  20322809.176   -20587581.470 7 -15859881.703 7
  19445235.660   -14219203.780 7 -11010115.016 9
  20462183.309    -6404092.350 7  -4922167.739 7
  21927796.480   -11180420.736 5  -6569656.867 5
 95 10 22  1 33 29.9960000  0  5 14 18 29 22 19
  19832355.441      410225.759 7    337172.144 9
  20303074.934   -20691290.769 7 -15940694.129 7
  19433620.176   -14280237.083 7 -11057673.430 9
  20465542.434    -6386421.952 7  -4908398.589 7
  21906755.480   -11291014.506 5  -6655833.808 5
 95 10 22  1 33 59.9960000  0  5 14 18 29 22 19
  19837995.207      439873.035 7    360273.904 9
  20283364.793   -20794871.044 7 -16021406.020 7
  19422048.434   -14341047.247 7 -11105057.967 9
  20469008.020    -6368236.153 7  -4894227.824 7
  21885737.395   -11401440.866 5  -6741880.298 5
 95 10 22  1 34 29.9960000  0  5 14 18 29 22 19
  19843728.996      469994.180 7    383744.913 9
  20263679.559   -20898318.634 7 -16102014.522 7
  19410520.324   -14401627.539 7 -11152263.382 9
  20472563.691    -6349533.520 7  -4879654.335 7
  21864762.668   -11511685.640 5  -6827785.293 5
 95 10 22  1 34 59.9950000  0  5 14 18 29 22 19
  19849549.405      500590.763 7    407586.397 9
  20244022.124   -21001624.115 7 -16182512.290 7
  19399036.304   -14461969.790 7 -11199283.309 9
  20476224.398    -6330313.926 7  -4864678.013 7
  21843818.140   -11621736.655 5  -6913539.303 5
 95 10 22  1 35 29.9950000  0  5 14 18 29 22 19
  19855460.726      531652.422 7    431790.274 9
  20224392.038   -21104776.767 7 -16262890.964 7
  19387600.499   -14522071.298 7 -11246115.642 9
  20479977.023    -6310589.261 7  -4849308.132 7
  21822910.952   -11731606.610 5  -6999152.228 5
 95 10 22  1 35 59.9950000  0  5 14 18 29 22 19
  19861460.398      563162.611 7    456343.653 8
  20204796.796   -21207743.895 7 -16343125.073 7
  19376213.679   -14581904.783 7 -11292739.126 9
  20483823.812    -6290361.840 7  -4833546.497 7
  21802042.749   -11841285.111 5  -7084615.972 5
 95 10 22  1 36 29.9950000  0  5 14 18 29 22 19
  19867535.304      595109.304 7    481237.168 9
  20185240.983   -21310517.803 7 -16423208.625 7
  19364877.694   -14641477.263 7 -11339159.241 9
  20487768.163    -6269641.100 7  -4817400.463 7
  21781204.023   -11950770.956 5  -7169929.590 5
 95 10 22  1 36 59.9950000  0  5 14 18 29 22 19
  19873700.140      627496.794 7    506474.157 9
  20165719.827   -21413103.888 7 -16503145.821 7
  19353590.655   -14700790.354 7 -11385377.220 9
  20491805.405    -6248430.400 7  -4800872.631 7
  21760408.679   -12060072.249 5  -7255099.404 5
 95 10 22  1 37 29.9950000  0  5 14 18 29 22 19
  19879945.038      660324.939 7    532054.521 9
  20146232.108   -21515507.211 7 -16582940.600 7
  19342352.905   -14759844.388 7 -11431393.340 9
  20495932.663    -6226732.598 7  -4783965.248 7
  21739648.702   -12169174.221 5  -7340113.889 5
 95 10 22  1 37 59.9950000  0  5 14 18 29 22 19
  19886281.874      693606.385 7    557988.106 9
  20126780.585   -21617721.194 7 -16662587.853 7
  19331166.140   -14818641.915 7 -11477209.583 9
  20500152.351    -6204549.472 7  -4766679.686 7
  21718927.898   -12278049.489 5  -7424951.720 5
 95 10 22  1 38 29.9950000  0  5 14 18 29 22 19
  19892698.694      727335.425 7    584270.465 9
  20107362.632   -21719763.038 7 -16742100.968 7
  19320025.265   -14877184.201 7 -11522826.939 9
  20504465.062    -6181897.643 7  -4749028.899 7
  21698247.741   -12386707.802 5  -7509620.495 5
 95 10 22  1 38 59.9950000  0  5 14 18 29 22 19
  19899198.632      761504.553 7    610895.746 8
  20087976.483   -21821639.970 7 -16821485.569 7
  19308936.671   -14935455.075 7 -11568232.801 9
  20508865.843    -6158780.358 7  -4731015.425 7
  21677617.421   -12495151.337 5  -7594121.910 5
 95 10 22  1 39 29.9950000  0  6 14 28 18 29 22 19
  19905786.288      796117.503 7    637866.863 8
  23501182.241          -0.09215
  20068625.983   -21923319.924 7 -16900716.684 7
  19297899.882   -14993449.533 7 -11613423.279 9
  20513353.640    -6135191.944 6  -4712634.834 7
  21657017.944   -12603370.145 5  -7678448.222 5
 95 10 22  1 39 59.9950000  0  6 14 28 18 29 22 19
  19912455.374      831162.100 7    665174.327 8
  23480345.851     -109498.364 5
  20049317.577   -22024798.679 7 -16979791.019 7
  19286917.108   -15051168.118 7 -11658398.787 9
  20517931.069    -6111136.652 6  -4693890.447 7
  21636465.437   -12711394.772 5  -7762623.224 5
 95 10 22  1 40 29.9950000  0  6 14 28 18 29 22 19
  19919205.351      866627.908 7    692810.012 8
  23459527.773     -218905.490 5        -0.49111
  20030042.398   -22126092.855 7 -17058721.530 7
  19275986.148   -15108604.510 7 -11703154.405 9
  20522598.905    -6086606.631 6  -4674776.138 7
  21615939.179   -12819252.678 5  -7846668.310 5
 95 10 22  1 40 59.9950000  0  6 14 28 18 29 22 19
  19926037.194      902523.504 7    720780.597 8
  23438717.515     -328217.622 4
  20010798.663   -22227208.811 7 -17137513.164 7
  19265106.343   -15165782.036 7 -11747708.313 9
  20527354.460    -6061605.745 6  -4655294.918 7
  21595446.140   -12926943.102 5  -7930582.893 5
 95 10 22  1 41 29.9950000  0  6 14 28 18 29 22 19
  19932950.554      938853.164 7    749089.410 8
  23417941.398     -437434.713 4
  19991590.140   -22328151.817 7 -17216170.035 7
  19254272.358   -15222712.838 7 -11792069.967 9
  20532198.460    -6036150.880 6  -4635459.957 7
  21574988.687   -13034466.541 5  -8014367.357 5
 95 10 22  1 41 59.9950000  0  6 14 28 18 29 22 19
  19939949.679      975627.370 7    777744.621 8
  23397180.030     -546543.978 4
  19972412.960   -22428934.360 7 -17294701.873 7
  19243491.171   -15279369.643 7 -11836218.120 9
  20537128.577    -6010235.925 6  -4615266.478 7
  21554559.835   -13141804.453 5  -8098007.270 5
 95 10 22  1 42 29.9950000  0  6 14 28 18 29 22 19
  19947031.312     1012844.419 7    806744.909 8
  23376436.663     -655546.826 4        -0.31911
  19953265.374   -22529554.257 7 -17373106.966 7
  19232762.601   -15335754.712 7 -11880154.530 9
  20542148.640    -5983862.669 6  -4594715.882 7
  21534171.249   -13248948.453 5  -8181496.073 5
 95 10 22  1 42 59.9950000  0  6 14 28 18 29 22 19
  19954195.257     1050496.190 7    836083.935 8
  23355719.741     -764445.428 5    -84856.336 2
  19934150.421   -22629996.845 7 -17451373.901 7
  19222082.890   -15391873.742 7 -11923883.633 9
  20547253.062    -5957036.853 7  -4573812.646 7
  21513821.132   -13355890.726 5  -8264827.685 5
 95 10 22  1 43 29.9950000  0  6 14 28 18 29 22 19
  19961442.304     1088577.460 7    865757.637 8
  23335010.851     -873228.761 3   -169622.514 1
  19915075.773   -22730234.902 7 -17529481.462 7
  19211458.663   -15447704.074 7 -11967387.780 9
  20552448.905    -5929733.811 6  -4552537.546 7
  21493508.530   -13462624.444 5  -8347996.787 5
 95 10 22  1 43 59.9950000  0  6 14 28 18 29 22 19
  19968768.788     1127074.795 7    895755.551 8
  23314332.257     -981899.707 3   -254301.135 2
  19896044.233   -22830257.065 7 -17607420.793 7
  19200887.476   -15503251.591 7 -12010671.553 9
  20557736.093    -5901945.295 6  -4530884.151 7
  21473234.780   -13569164.308 5  -8431014.834 5
 95 10 22  1 44 29.9950000  0  6 14 28 18 29 22 19
  19976171.890     1165984.291 7    926074.626 8
  23293669.624    -1090453.418 3   -338888.363 1
  19877055.366   -22930042.660 7 -17685175.782 7
  19190370.351   -15558521.837 7 -12053739.269 9
  20563116.765    -5873669.414 6  -4508850.998 7
  21452994.648   -13675519.840 5  -8513889.262 5
 95 10 22  1 44 59.9950000  0  6 14 28 18 29 22 19
  19983654.937     1205304.876 6    956714.029 8
  23273050.093    -1198890.413 3   -423384.700 3
  19858107.585   -23029610.886 7 -17762761.400 7
  19179903.530   -15613520.605 7 -12096595.446 9
  20568587.546    -5844933.834 6  -4486459.636 7
  21432791.601   -13781699.004 5  -8596626.266 5
 95 10 22  1 45 29.9950000  0  6 14 28 18 29 22 19
  19991212.999     1245038.623 6    987675.379 8
  23252439.616    -1307210.621 3   -507789.996 2
  19839200.757   -23128966.859 7 -17840181.624 7
  19169490.030   -15668244.476 7 -12139237.418 9
  20574138.726    -5815755.334 6  -4463723.131 7
  21412618.444   -13887714.210 5  -8679235.498 5
 95 10 22  1 45 59.9950000  0  6 14 28 18 29 22 19
  19998854.054     1285191.918 7   1018963.651 8
  23231832.780    -1415402.448 3   -592095.285 3
  19820332.890   -23228121.985 7 -17917445.344 7
  19159131.296   -15722679.859 7 -12181654.594 9
  20579776.382    -5786142.250 6  -4440647.998 7
  21392475.858   -13993562.105 5  -8761714.370 5
 95 10 22  1 46 29.9950000  0  6 14 28 18 29 22 19
  20006573.483     1325758.367 7   1050573.854 8
  23211267.757    -1523463.196 2   -676298.411 4
  19801498.116   -23327094.437 7 -17994566.721 7
  19148829.249   -15776819.909 7 -12223841.643 9
  20585492.382    -5756097.562 6  -4417236.547 7
  21372369.538   -14099229.539 5  -8844052.620 5
 95 10 22  1 46 59.9950000  0  6 14 28 18 29 22 19
  20014374.187     1366736.067 6   1082504.515 8
  23190744.179    -1631389.198 3   -760396.557 4
  19782698.773   -23425886.595 7 -18071547.613 7
  19138584.710   -15830658.490 7 -12265793.776 9
  20591289.554    -5725619.246 6  -4393487.207 7
  21352295.069   -14204710.149 6  -8926245.290 5
 95 10 22  1 47 29.9950000  0  6 14 28 18 29 22 19
  20022246.663     1408107.526 7   1114742.005 8
  23170228.593    -1739181.277 3   -844390.367 4
  19763934.194   -23524494.303 7 -18148384.778 7
  19128396.530   -15884199.231 7 -12307513.830 9
  20597175.952    -5694695.791 6  -4369391.005 7
  21332257.304   -14310007.078 6  -9008294.832 5
 95 10 22  1 47 59.9950000  0  6 14 28 18 29 22 19
  20030191.968     1449865.432 7   1147280.619 8
  23149739.812    -1846833.426 2   -928275.113 3
  19745206.679   -23622911.628 7 -18225073.592 7
  19118262.913   -15937444.756 7 -12349003.848 9
  20603146.952    -5663324.664 6  -4344945.963 7
  21312259.366   -14415116.692 6  -9090198.414 5
 95 10 22  1 48 29.9950000  0  6 14 28 18 29 22 19
  20038212.405     1492016.468 7   1180125.582 8
  23129282.405    -1954347.852 3  -1012052.535 2
  19726516.327   -23721125.565 7 -18301603.918 7
  19108185.140   -15990408.625 7 -12390274.389 9
  20609198.218    -5631524.773 6  -4320166.827 7
  21292288.913   -14520042.295 5  -9171958.610 5
 95 10 22  1 48 59.9950000  0  6 14 28 18 29 22 19
  20046311.554     1534566.213 7   1213281.208 8
  23108856.187    -2061722.684 3  -1095721.221 4
  19707867.679   -23819125.640 7 -18377967.602 7
  19098158.491   -16043095.810 7 -12431329.332 9
  20615326.327    -5599312.740 6  -4295066.535 7
  21272358.210   -14624790.223 5  -9253580.347 5
 95 10 22  1 49 29.9950000  0  6 14 28 18 29 22 19
  20054484.515     1577518.515 7   1246750.529 8
  23088451.694    -2168949.463 3  -1179274.517 3
  19689260.765   -23916903.301 7 -18454157.978 8
  19088184.085   -16095512.591 7 -12472173.577 9
  20621536.054    -5566687.074 6  -4269643.937 7
  21252460.429   -14729348.303 5  -9335054.150 5
 95 10 22  1 49 59.9950000  0  6 14 28 18 29 22 19
  20062732.749     1620874.151 7   1280534.127 8
  23068079.999    -2276025.188 3  -1262710.121 2
  19670699.679   -24014449.994 7 -18530168.381 7
  19078261.023   -16147658.939 7 -12512807.084 9
  20627821.304    -5533664.361 6  -4243911.942 7
  21232601.108   -14833696.860 5  -9416364.692 5
 95 10 22  1 50 29.9950000  0  6 14 28 18 29 22 19
  20071064.788     1664640.833 7   1314638.023 8
  23047718.929    -2382941.468 3  -1346021.477 3
  19652181.937   -24111756.614 7 -18605991.709 8
  19068390.140   -16199530.691 7 -12553226.629 9
  20634180.702    -5500235.156 6  -4217863.203 7
  21212792.733   -14937815.657 6  -9497496.194 5
 95 10 22  1 50 59.9950000  0  6 14 28 18 29 22 19
  20079465.062     1708795.515 7   1349044.257 8
  23027408.023    -2489704.041 4  -1429213.078 3
  19633709.983   -24208831.606 7 -18681634.549 8
  19058572.257   -16251126.669 7 -12593431.281 9
  20640619.413    -5466391.963 6  -4191491.878 7
  21193017.351   -15041718.992 5  -9578459.817 6
 95 10 22  1 51 29.9950000  0  6 14 28 18 29 22 19
  20087938.647     1753330.274 7   1383746.650 7
  23007125.765    -2596309.237 4  -1512282.054 3
  19615279.983   -24305679.179 7 -18757100.180 8
  19048807.062   -16302441.650 7 -12633416.971 9
  20647142.171    -5432133.703 6  -4164797.129 7
  21173285.694   -15145418.499 6  -9659264.598 5
 95 10 22  1 51 59.9950000  0  6 14 28 18 29 22 19
  20096486.937     1798244.427 7   1418744.679 7
  22986867.108    -2702753.681 4  -1595225.752 3
  19596894.163   -24402301.024 7 -18832389.913 8
  19039099.648   -16353452.696 7 -12673165.839 9
  20653738.194    -5397463.410 6  -4137781.315 7
  21153587.944   -15248925.856 6  -9739919.657 5
 95 10 22  1 52 29.9950000  0  6 14 28 18 29 22 19
  20105104.757     1843530.688 7   1454032.668 7
  22966641.702    -2809038.504 4  -1678045.095 3
  19578547.304   -24498708.115 7 -18907512.308 8
  19029454.062   -16404145.864 7 -12712666.997 9
  20660414.382    -5362369.893 6  -4110435.714 7
  21133918.460   -15352271.244 6  -9820448.514 5
 95 10 22  1 52 59.9950000  0  6 14 28 18 29 22 19
  20113789.733     1889177.580 7   1489601.652 7
  22946435.499    -2915158.999 4  -1760736.338 2
  19560239.163   -24594916.061 7 -18982479.528 8
  19019868.343   -16454516.723 7 -12751917.009 9
  20667174.976    -5326853.945 6  -4082760.949 7
  21114284.765   -15455454.846 6  -9900851.292 5
 95 10 22  1 53 29.9950000  0  6 14 28 18 29 22 19
  20122545.648     1935194.629 7   1525459.086 7
  22926282.671    -3021104.896 4  -1843291.566 3
  19541970.601   -24690923.177 7 -19057290.253 8
  19010344.616   -16504561.181 7 -12790912.684 9
  20674012.640    -5290910.958 6  -4054753.420 7
  21094687.491   -15558450.025 6  -9981107.252 5
 95 10 22  1 53 59.9950000  0  6 14 28 18 29 22 19
  20131372.030     1981566.566 7   1561593.047 7
  22906160.569    -3126888.937 5  -1925720.675 4
  19523739.054   -24786730.866 7 -19131945.578 8
  19000878.554   -16554299.614 7 -12829669.901 9
  20680936.382    -5254543.356 6  -4026415.021 7
  21075121.632   -15661256.827 6 -10061216.425 5
 95 10 22  1 54 29.9950000  0  6 14 28 18 29 22 19
  20140266.874     2028312.444 7   1598018.397 7
  22886064.085    -3232488.174 5  -2008005.767 2
  19505550.866   -24882306.663 7 -19206420.211 8
  18991472.812   -16603731.568 7 -12868188.305 9
  20687937.460    -5217731.909 6  -3997730.778 7
  21055601.241   -15763858.107 6 -10141165.445 6
 95 10 22  1 54 59.9940000  0  6 14 28 18 29 22 19
  20149230.518     2075422.810 6   1634727.764 7
  22866001.229    -3337911.109 5  -2090153.488 3
  19487407.541   -24977657.681 7 -19280719.697 8
  18982119.346   -16652885.200 7 -12906489.828 9
  20695022.955    -5180511.328 6  -3968727.723 7
  21036110.635   -15866259.795 6 -10220958.946 6
 95 10 22  1 55 29.9940000  0  6 14 28 18 29 22 19
  20158268.479     2122905.504 6   1671727.256 7
  22845970.096    -3443158.361 4  -2172164.322 1
  19469307.354   -25072768.648 7 -19354832.124 8
  18972820.635   -16701749.185 7 -12944565.654 9
  20702182.627    -5142887.900 6  -3939410.760 7
  21016659.525   -15968484.093 6 -10300614.217 6
 95 10 22  1 55 59.9940000  0  6 14 28 18 29 22 19
  20167376.143     2170758.702 6   1709015.447 7
  22825973.322    -3548213.809 4  -2254025.664 2
  19451256.658   -25167627.244 7 -19428747.900 8
  18963580.127   -16750306.802 7 -12982402.754 9
  20709416.916    -5104871.335 6  -3909787.455 7
  20997240.744   -16070525.666 6 -10380127.108 6
 95 10 22  1 56 29.9940000  0  6 14 28 18 29 22 19
  20176544.783     2218964.994 6   1746578.786 7
  22806025.697    -3653083.516 5  -2335742.307 2
  19433249.041   -25262259.953 7 -19502487.666 8
  18954399.486   -16798552.757 7 -13019996.997 9
  20716716.533    -5066500.346 6  -3879887.979 7
  20977853.986   -16172396.433 6 -10459506.893 6
 95 10 22  1 56 59.9940000  0  6 14 28 18 29 22 19
  20185786.940     2267514.289 6   1784409.391 7
  22786102.900    -3757764.068 5  -2417311.566 3
  19415280.580   -25356679.202 7 -19576061.088 8
  18945280.533   -16846474.433 7 -13057338.558 9
  20724085.705    -5027783.059 6  -3849718.660 7
  20958504.807   -16274085.276 6 -10538744.934 6
 95 10 22  1 57 29.9940000  0  6 14 28 18 29 22 19
  20195089.166     2316392.215 6   1822496.070 7
  22766220.807    -3862247.871 4  -2498727.481 2
  19397356.815   -25450870.712 7 -19649457.063 8
  18936224.229   -16894067.759 7 -13094424.260 9
  20731520.135    -4988713.948 6  -3819275.198 7
  20939193.729   -16375577.289 6 -10617829.602 6
 95 10 22  1 57 59.9940000  0  6 14 28 18 29 22 19
  20204453.057     2365610.683 6   1860848.110 7
  22746376.596    -3966524.535 4  -2579982.023 1
  19379482.760   -25544805.165 7 -19722652.730 8
  18927228.986   -16941337.288 7 -13131257.653 9
  20739026.322    -4949279.746 6  -3788547.238 7
  20919919.924   -16476849.285 6 -10696742.828 6
 95 10 22  1 58 29.9940000  0  6 14 28 18 29 22 19
  20213883.471     2415164.535 6   1899461.491 7
  22726567.150    -4070604.769 4  -2661083.463 2
  19361657.479   -25638475.087 7 -19795642.268 8
  18918291.135   -16988309.101 7 -13167859.060 9
  20746597.150    -4909480.953 6  -3757535.189 7
  20900683.908   -16577933.421 6 -10775509.672 6
 95 10 22  1 58 59.9940000  0  6 14 28 18 29 22 19
  20223377.065     2465061.361 6   1938342.123 7
  22706792.916    -4174478.367 3  -2742023.936 2
  19343888.885   -25731851.074 7 -19868402.769 8
  18909407.447   -17034992.924 7 -13204236.057 9
  20754248.127    -4869285.594 6  -3726214.120 7
  20881486.979   -16678824.849 6 -10854126.344 6
 95 10 22  1 59 29.9940000  0  6 14 28 18 29 22 19
  20232940.096     2515308.165 6   1977495.460 7
  22687078.744    -4278146.441 3  -2822804.232 2
  19326177.025   -25824931.081 7 -19940932.636 8
  18900576.408   -17081400.084 7 -13240397.479 9
  20761973.416    -4828693.594 6  -3694583.989 7
  20862323.182   -16779524.146 6 -10932593.323 6
 95 10 22  1 59 59.9940000  0  7 14 28 18 29 27 22 19
  20242572.830     2565927.828 6   2016939.344 7
  22667395.611    -4381605.763 4  -2903421.853 2
  19308517.893   -25917733.491 7 -20013246.190 8
  18891799.580   -17127528.404 7 -13276341.612 9
  23428752.322          -0.31913
  20769775.947    -4787695.061 6  -3662637.076 6
  20843195.330   -16880041.787 6 -11010918.745 6
 95 10 22  2  0 29.9940000  0  7 14 28 18 29 27 22 19
  20252277.908     2616922.709 6   2056675.603 7
  22647754.369    -4484849.423 4  -2983871.433 3
  19290907.533   -26010287.063 7 -20085365.841 8
  18883081.190   -17173358.611 7 -13312053.451 9
  23406003.369     -119589.281 3
  20777656.018    -4746285.860 6  -3630370.162 6
  20824105.596   -16980379.439 6 -11089103.911 6
 95 10 22  2  0 59.9940000  0  7 14 28 18 29 27 22 19
  20262054.190     2668280.928 6   2096694.965 7
  22628136.330    -4587878.919 3
  19273338.947   -26102618.738 7 -20157312.603 8
  18874419.650   -17218871.723 7 -13347518.222 9
  23383258.244     -239100.142 3
  20785613.260    -4704483.633 6  -3597797.003 6
  20805048.166   -17080513.254 6 -11167130.253 6
 95 10 22  2  1 29.9940000  0  7 14 28 18 29 27 22 19
  20271904.033     2719995.615 6   2136992.321 7
  22608579.252          -0.58013
  19255816.674   -26194748.591 7 -20229101.884 8
  18865833.268   -17264048.877 7 -13382720.991 9
  23360535.682     -358551.291 3        -0.17411
  20793646.572    -4662314.280 6  -3564937.553 6
  20786042.424   -17180448.504 6 -11245001.659 6
 95 10 22  2  1 59.9940000  0  7 14 28 18 29 27 22 19
  20281812.166     2772060.436 6   2177562.284 7
  22589057.713     -102593.136 3
  19238327.713   -26286655.155 7 -20300717.392 8
  18857305.408   -17308859.641 7 -13417638.477 9
  23337817.721     -477936.282 3    -93027.360 1
  20801741.932    -4619773.627 6  -3531789.016 6
  20767062.057   -17280192.041 6 -11322723.893 6
 95 10 22  2  2 29.9940000  0  7 14 28 18 29 27 22 19
  20291779.791     2824442.943 6   2218379.808 7
  22569583.916     -204959.013 4        -0.15812
  19220881.369   -26378329.395 7 -20372151.854 8
  18848850.096   -17353290.879 7 -13452260.211 9
  23315115.057     -597257.349 3   -186004.701 1
  20809904.236    -4576879.382 6  -3498364.922 6
  20748121.041   -17379739.299 6 -11400293.173 6
 95 10 22  2  2 59.9940000  0  7 14 28 18 29 27 22 19
  20301804.705     2877116.593 6   2259424.202 7
  22550151.900     -307104.054 4    -79593.683 4
  19203480.400   -26469768.535 7 -20443403.119 8
  18840465.104   -17397362.784 7 -13486601.952 9
  23292410.330     -716523.708 3   -278939.469 1
  20818128.072    -4533655.286 6  -3464683.805 7
  20729215.682   -17479096.896 6 -11477714.655 6
 95 10 22  2  3 29.9940000  0  7 14 28 18 29 27 22 19
  20311886.502     2930093.523 6   2300704.917 7
  22530748.072     -409009.664 3   -159000.641 4
  19186129.830   -26560943.209 7 -20514448.304 8
  18832145.752   -17441081.576 7 -13520668.537 9
  23269729.752     -835712.648 3   -371813.893 2
  20826420.025    -4490081.471 6  -3430730.182 6
  20710343.041   -17578270.177 6 -11554992.513 6
 95 10 22  2  3 59.9940000  0  7 14 28 18 29 27 22 19
  20322020.432     2983354.505 6   2342206.965 7
  22511410.674     -510688.015 4   -238230.487 4
  19168830.221   -26651862.685 7 -20585294.636 8
  18823885.947   -17484479.585 7 -13554485.162 9
  23247065.861     -954826.970 2   -464630.155 1
  20834774.088    -4446168.110 6  -3396511.970 6
  20691498.502   -17677276.675 6 -11632140.405 6
 95 10 22  2  4 29.9940000  0  7 14 28 18 29 27 22 19
  20332213.744     3036908.915 6   2383937.666 7
  22492106.916     -612123.498 4   -317271.134 4
  19151578.174   -26742524.836 7 -20655940.457 8
  18815686.744   -17527564.490 7 -13588057.809 9
  23224412.932    -1073868.873 3   -557390.053 2
  20843195.947    -4401913.603 6  -3362027.936 6
  20672697.502   -17776089.392 6 -11709137.287 6
 95 10 22  2  4 59.9940000  0  7 14 28 18 29 27 22 19
  20342462.236     3090755.683 6   2425896.177 7
  22472841.432     -713327.501 4   -396131.359 4
  19134373.119   -26832933.532 7 -20726388.777 8
  18807541.705   -17570365.994 7 -13621409.629 9
  23201777.900    -1192844.997 3   -650098.668 2
  20851681.416    -4357330.839 6  -3327288.117 6
  20653927.760   -17874727.438 6 -11785998.074 6
 95 10 22  2  5 29.9940000  0  8 14 28 18 29 27 22 19 31
  20352764.283     3144912.401 6   2468096.199 7
  22453633.916     -814290.319 4   -474803.665 4
  19117220.471   -26923073.803 7 -20796627.930 8
  18799454.541   -17612865.461 7 -13654526.084 9
  23179145.229    -1311743.671 3   -742746.939 2
  20860228.807    -4312406.139 6  -3292281.857 6
  20635187.557   -17973188.014 6 -11862720.568 6
  22769164.315          -0.46515
 95 10 22  2  5 59.9940000  0  8 14 28 18 29 27 22 19 31
  20363125.846     3199376.717 6   2510535.914 7
  22434462.799     -915009.059 4   -553285.761 4
  19100119.822   -27012938.979 7 -20866652.731 8
  18791429.135   -17655043.703 7 -13687392.249 9
  23156532.361          -0.10813
  20868843.174    -4267152.245 6  -3257019.079 6
  20616493.275   -18071457.089 6 -11939293.840 6
  22744989.799     -127031.109 4
 95 10 22  2  6 29.9940000  0  8 14 28 18 29 27 22 19 31
  20373551.096     3254152.784 6   2553218.556 7
  22415346.830    -1015478.520 4   -631573.615 4
  19083073.690   -27102518.929 7 -20936455.274 8
  18783465.682   -17696888.329 7 -13719998.445 9
  23133936.268     -118752.893 3        -0.31112
  20877515.377    -4221573.950 6  -3221503.522 6
  20597826.494   -18169527.636 6 -12015712.411 6
  22720811.072     -254115.735 5
 95 10 22  2  6 59.9940000  0  8 14 28 18 29 27 22 19 31
  20384035.471     3309249.286 6   2596150.884 7
  22396268.533    -1115690.802 4   -709661.089 5
  19066083.822   -27191798.807 7 -21006024.000 8
  18775570.041   -17738384.438 7 -13752333.073 9
  23111358.932     -237403.629 3    -92455.414 3
  20886255.690    -4175654.509 6  -3185722.132 6
  20579207.502   -18267396.280 6 -12091973.662 6
  22696615.674     -381226.958 3        -0.15411
 95 10 22  2  7 29.9940000  0  8 14 28 18 29 27 22 19 31
  20394581.869     3364654.498 6   2639323.765 7
  22377258.166    -1215653.377 4   -787553.989 5
  19049149.119   -27280795.160 7 -21075371.793 8
  18767739.096   -17779531.366 7 -13784395.608 9
  23088797.143     -355966.804 3   -184842.299 3
  20895054.221    -4129406.368 6  -3149684.620 6
  20560616.275   -18365064.447 6 -12168078.696 6
  22672427.502     -508355.640 3    -99061.418 1
 95 10 22  2  7 59.9940000  0  8 14 28 18 29 27 22 19 31
  20405182.893     3420369.018 6   2682737.670 6
  22358286.760    -1315357.123 5   -865245.212 5
  19032267.229   -27369505.749 7 -21144496.915 8
  18759975.440   -17820328.592 7 -13816185.649 9
  23066255.549     -474438.131 3   -277157.604 1
  20903916.361    -4082823.616 6  -3113386.364 6
  20542072.885   -18462521.137 6 -12244018.946 6
  22648233.814     -635479.222 4   -198118.742 1
 95 10 22  2  8 29.9940000  0  8 14 28 18 29 27 22 19 31
  20415839.565     3476382.221 6   2726384.312 6
  22339355.307    -1414804.472 5   -942736.615 5
  19015437.705   -27457940.019 7 -21213406.723 8
  18752274.354   -17860800.700 7 -13847722.350 9
  23043724.471     -592821.700 3   -369404.537 2
  20912847.033    -4035903.410 6  -3076825.158 6
  20523569.166   -18559782.338 6 -12319806.863 6
  22624048.666     -762609.737 3   -297181.453 1
 95 10 22  2  8 59.9940000  0  8 14 28 18 29 27 22 19 31
  20426554.572     3532687.236 6   2770258.337 6
  22320481.408    -1513991.407 5  -1020025.129 5
  18998661.049   -27546102.810 7 -21282104.986 8
  18744634.174   -17900954.137 7 -13879010.738 9
  23021217.400     -711129.434 3   -461592.338 2
  20921844.932    -3988642.233 6  -3039998.257 6
  20505094.330   -18656853.832 6 -12395446.965 6
  22599838.244     -889760.907 2   -396260.273 1
 95 10 22  2  9 29.9940000  0  8 14 28 18 29 27 22 19 31
  20437319.291     3589280.182 6   2814356.724 6
  22301658.955    -1612913.107 5  -1097106.939 5
  18981935.088   -27633999.879 7 -21350596.195 8
  18737054.713   -17940783.601 7 -13910046.681 9
  22998704.221     -829385.276 3   -553739.737 3
  20930899.932    -3941041.586 6  -3002906.844 6
  20486653.400   -18753750.415 6 -12470950.771 6
  22575643.986    -1016941.247 2   -495361.805 1
 95 10 22  2  9 59.9940000  0  8 14 28 18 29 27 22 19 31
  20448143.025     3646151.390 6   2858671.946 6
  22282883.080    -1711570.772 5  -1173983.022 5
  18965261.322   -27721630.293 7 -21418879.624 8
  18729535.135   -17980298.249 7 -13940837.316 9
  22976214.416     -947601.732 3   -645856.432 1
  20940018.908    -3893109.160 6  -2965556.908 6
  20468244.299   -18850488.290 6 -12546330.905 6
  22551432.080    -1144173.701 3   -594503.929 2
 95 10 22  2 10 29.9940000  0  8 14 28 18 29 27 22 19 31
  20459022.643     3703290.299 6   2903195.754 6
  22264159.690    -1809962.199 5  -1250651.637 5
  18948637.439   -27808990.101 7 -21486952.193 8
  18722078.025   -18019487.333 7 -13971374.259 9
  22953725.690    -1065785.614 3   -737947.727 2
  20949205.455    -3844855.322 6  -2927956.504 6
  20449863.736   -18947080.495 6 -12621597.536 6
  22527212.994    -1271465.856 3   -693692.591 1
 95 10 22  2 10 59.9940000  0  8 14 28 18 29 27 22 19 31
  20469939.369     3760690.291 6   2947923.012 6
  22245488.400    -1908085.996 5  -1327111.721 5
  18932063.807   -27896082.991 7 -21554816.768 9
  18714686.650   -18058329.228 7 -14001640.674 9
  22931235.400    -1183933.747 3   -830011.170 2
  20958446.440    -3796292.744 6  -2890115.528 6
  20431511.330   -19043528.498 6 -12696751.804 6
  22502982.041    -1398808.349 3   -792920.475 2
 95 10 22  2 11 29.9940000  0  8 14 28 18 29 27 22 19 31
  20480916.815     3818369.507 6   2992867.845 6
  22226872.299    -2005925.671 5  -1403350.398 5
  18915545.065   -27982886.875 7 -21622456.149 9
  18707365.807   -18096799.146 7 -14031617.227 9
  22908773.494    -1302019.259 4   -922025.831 2
  20967742.838    -3747415.966 6  -2852029.729 6
  20413188.525   -19139811.916 6 -12771777.822 6
  22478738.221    -1526182.511 2   -892173.008 2
 95 10 22  2 11 59.9940000  0  8 14 28 18 29 27 22 19 31
  20491945.315     3876319.783 6   3038023.893 6
  22208305.057    -2103482.595 5  -1479368.762 5
  18899079.799   -28069399.979 7 -21689868.945 9
  18700113.533   -18134903.127 7 -14061308.640 9
  22886312.822    -1420017.224 4  -1013972.275 2
  20977100.690    -3698246.457 6  -2813715.821 6
  20394901.557   -19235917.764 6 -12846665.475 6
  22454496.221    -1653581.588 3   -991444.992 2
 95 10 22  2 12 29.9940000  0  8 14 28 18 29 27 22 19 31
  20503024.807     3934539.250 6   3083389.695 6
  22189797.268    -2200751.763 4  -1555162.876 5
  18882675.033   -28155614.199 7 -21757048.844 9
  18692933.768   -18172634.688 7 -14090709.857 9
  22863886.908    -1537911.105 4  -1105837.593 2
  20986514.432    -3648786.212 6  -2775175.366 6
  20376648.533   -19331823.574 6 -12921397.247 6
  22430252.072    -1780980.831 3  -1090717.087 3
 95 10 22  2 12 59.9940000  0  8 14 28 18 29 27 22 19 31
  20514152.432     3993037.447 6   3128972.702 6
  22171337.268    -2297737.185 5  -1630735.906 5
  18866328.166   -28241525.314 7 -21823992.555 9
  18685821.002   -18210017.531 7 -14119839.343 9
  22841469.971    -1655699.682 5  -1197620.867 1
  20995982.869    -3599043.026 6  -2736414.450 6
  20358439.174   -19427519.980 6 -12995965.864 6
  22406009.775    -1908381.633 3  -1189990.404 2
 95 10 22  2 13 29.9940000  0  8 14 28 18 29 27 22 19 31
  20525343.463     4051823.436 6   3174779.961 6
  22152939.002    -2394436.299 5  -1706085.843 5
  18850036.502   -28327129.248 7 -21890696.911 9
  18678772.690   -18247055.233 7 -14148699.891 9
  22819074.721    -1773391.945 5  -1289329.096 1
  21005499.533    -3549007.421 6  -2697425.662 6
  20340272.385   -19522999.134 6 -13070365.185 6
  22381773.541    -2035775.164 3  -1289258.050 1
 95 10 22  2 13 59.9940000  0  8 14 28 18 29 27 22 19 31
  20536582.510     4110893.159 6   3220808.303 6
  22134597.494    -2490844.544 5  -1781209.124 5
  18833805.869   -28412427.400 7 -21957162.995 9
  18671790.166   -18283751.198 7 -14177294.150 9
  22796687.221    -1891000.826 4  -1380972.345 4
  21015081.158    -3498673.487 6  -2658204.419 6
  20322141.729   -19618258.318 6 -13144593.106 6
  22357532.018    -2163152.181 3  -1388512.833 2
 95 10 22  2 14 29.9940000  0  8 14 28 18 29 27 22 19 31
  20547876.322     4170239.003 6   3267051.810 6
  22116296.119    -2586964.308 5  -1856107.616 5
  18817630.861   -28497418.871 7 -22023390.105 9
  18664870.619   -18320107.482 7 -14205623.715 9
  22774320.861    -2008555.698 5  -1472573.512 2
  21024711.494    -3448044.252 6  -2618753.064 6
  20304057.557   -19713311.469 6 -13218660.474 6
  22333286.221    -2290524.316 3  -1487763.801 3
 95 10 22  2 14 59.9930000  0  8 14 28 18 29 27 22 19 31
  20559221.817     4229858.399 6   3313508.475 6
  22098073.427    -2682779.491 5  -1930768.768 5
  18801518.036   -28582096.377 7 -22089372.576 9
  18658021.411   -18356107.418 7 -14233675.612 9
  22751963.974    -2126057.036 4  -1564132.925 2
  21034405.349    -3397114.920 6  -2579067.867 6
  20286005.997   -19808158.539 6 -13292567.267 6
  22309051.310    -2417889.393 3  -1587009.282 2
 95 10 22  2 15 29.9930000  0  8 14 28 18 29 27 22 19 31
  20570614.685     4289722.282 6   3360155.645 6
  22079890.771    -2778301.773 5  -2005201.683 5
  18785460.497   -28666486.685 7 -22155131.245 9
  18651238.622   -18391747.328 7 -14261446.969 9
  22729611.052    -2243524.148 4  -1655665.719 3
  21044149.435    -3345897.166 6  -2539157.936 6
  20267991.591   -19902826.662 6 -13366334.612 6
  22284814.708    -2545264.610 3  -1686262.651 2
 95 10 22  2 15 59.9930000  0  8 14 28 18 29 27 22 19 31
  20582044.028     4349809.563 6   3406976.898 6
  22061772.481    -2873522.276 5  -2079399.455 4
  18769456.513   -28750580.993 7 -22220659.272 9
  18644523.567   -18427032.322 7 -14288941.772 9
  22707267.036    -2360937.969 4  -1747156.950 2
  21053948.544    -3294412.179 6  -2499039.763 6
  20250016.083   -19997308.676 6 -13439956.937 6
  22260569.325    -2672651.410 3  -1785525.073 2
 95 10 22  2 16 29.9930000  0  8 14 28 18 29 27 22 19 31
  20593521.435     4410107.536 6   3453962.324 6
  22043712.575    -2968440.793 5  -2153361.915 5
  18753510.903   -28834375.552 7 -22285953.727 9
  18637876.724   -18461968.887 7 -14316165.069 9
  22684933.185    -2478289.757 3  -1838599.849 2
  21063796.286    -3242664.239 6  -2458716.697 6
  20232071.099   -20091604.223 6 -13513433.964 6
  22236332.653    -2800053.506 4  -1884799.394 2
 95 10 22  2 16 59.9930000  0  8 14 28 18 29 27 22 19 31
  20605036.341     4470621.232 6   3501115.847 6
  22025706.669    -3063050.906 5  -2227084.075 5
  18737622.161   -28917873.185 7 -22351016.808 9
  18631294.771   -18496558.341 7 -14343117.890 9
  22662619.380    -2595564.110 3  -1929982.417 1
  21073694.833    -3190634.161 6  -2418173.777 6
  20214161.419   -20185711.490 6 -13586764.273 6
  22212089.974    -2927454.708 4  -1984073.018 2
 95 10 22  2 17 29.9930000  0  8 14 28 18 29 27 22 19 31
  20616591.060     4531349.463 6   3548436.537 6
  22007760.864    -3157356.751 5  -2300569.127 4
  18721788.919   -29001080.315 7 -22415853.526 9
  18624775.356   -18530811.576 7 -14369808.722 9
  22640316.685    -2712755.797 4  -2021300.569 2
  21083649.474    -3138318.498 6  -2377408.320 6
  20196287.208   -20279645.213 6 -13659959.356 6
  22187851.630    -3054840.959 5  -2083335.002 2
 95 10 22  2 17 59.9930000  0  8 14 28 18 29 27 22 19 31
  20628192.083     4592305.305 6   3595934.588 6
  21989876.021    -3251352.951 5
  18706015.200   -29083973.206 7 -22480445.384 9
  18618321.231   -18564731.876 7 -14396240.125 9
  22618034.302    -2829856.880 3  -2112548.141 2
  21093667.200    -3085710.602 6  -2336415.155 6
  20178448.114   -20373390.318 6
  22163608.333    -3182211.400 4  -2182584.681 1
 95 10 22  2 18 29.9930000  0  7 14 28 18 29 27 22 31
  20639837.575     4653510.803 6   3643627.168 6
  21972052.411    -3345034.164 5  -2446811.226 5
  18690300.880   -29166541.275 7 -22544784.134 8
  18611932.911   -18598299.511 7 -14422396.726 9
  22595762.021    -2946867.322 3  -2203725.030 1
  21103727.942    -3032797.019 6  -2295183.793 6
  22139372.692    -3309566.598 4  -2281822.478 2
 95 10 22  2 18 59.9930000  0  8 14 28 18 29 27 22 19 31
  20651530.560     4714967.217 6   3691515.279 6
  21954286.216    -3438399.680 5
  18674651.481   -29248779.829 7 -22608866.116 9
  18605614.927   -18631502.935 7 -14448269.523 9
  22573521.731    -3063784.399 3  -2294829.195 2
  21113855.380    -2979601.649 6  -2253732.862 6
  20142864.833          -0.10316
  22115146.903    -3436894.315 4  -2381038.882 2
 95 10 22  2 19 29.9930000  0  8 14 28 18 29 27 22 19 31
  20663272.981     4776675.377 6   3739599.550 6
  21936573.536    -3531444.247 5  -2592065.795 5
  18659069.356   -29330674.530 7 -22672680.164 9
  18599368.192   -18664331.357 7 -14473850.108 9
  22551287.528    -3180606.968 3  -2385859.743 1
  21124032.255    -2926149.990 6  -2212082.222 6
  20125120.067      -93237.743 6 -13859128.495 6
  22090916.685    -3564194.959 4  -2480234.167 2
 95 10 22  2 19 59.9930000  0  8 14 28 18 29 27 22 19 31
  20675068.935     4838632.829 6   3787878.071 6
  21918931.778    -3624162.461 5  -2664313.726 5
  18643551.005   -29412216.389 7 -22736219.270 9
  18593193.896   -18696774.271 7 -14499130.303 9
  22529076.099    -3297343.699 4  -2476823.376 2
  21134246.013    -2872456.220 6  -2170242.911 6
  20107418.700     -186281.008 6 -13931629.711 6
  22066704.708    -3691477.236 5  -2579415.116 1
 95 10 22  2 20 29.9930000  0  8 14 28 18 29 27 22 19 31
  20686908.567     4900832.879 6   3836345.631 6
  21901347.028    -3716546.324 5  -2736301.124 4
  18628100.513   -29493422.929 7 -22799497.086 9
  18587095.263   -18728825.622 7 -14524105.380 9
  22506861.231    -3414008.069 3  -2567730.642 2
  21144508.185    -2818522.607 6  -2128216.722 6
  20089744.731     -279135.829 6 -14003984.084 6
  22042489.255    -3818716.600 4  -2678562.654 2
 95 10 22  2 20 59.9930000  0  8 14 28 18 29 27 22 19 31
  20698780.052     4963246.209 6   3884979.384 6
  21883828.442    -3808604.811 5  -2808034.975 5
  18612702.231   -29574325.833 7 -22862538.300 9
  18581065.599   -18760513.609 7 -14548797.321 9
  22484679.942    -3530621.463 3  -2658598.195 1
  21154813.083    -2764364.964 6  -2086015.952 6
  20072114.153     -371795.282 6 -14076186.229 6
  22018279.013    -3945908.025 3  -2777672.846 1
 95 10 22  2 21 29.9930000  0  7 14 28 18 29 27 22 31
  20710698.544     5025865.746 6   3933773.821 6
  21866372.638    -3900330.006 5  -2879509.131 5
  18597363.474   -29654926.949 7 -22925344.361 8
  18575105.489   -18791838.323 7 -14573206.184 9
  22462497.146    -3647193.807 3  -2749433.752 2
  21165159.763    -2709957.715 6  -2043620.696 6
  21994089.856    -4073055.491 4  -2876748.776 1
 95 10 22  2 21 59.9930000  0  8 14 28 18 29 27 22 19 31
  20722651.388     5088678.045 6   3982718.459 6
  21848985.060    -3991724.817 5  -2950725.829 5
  18582084.466   -29735234.488 7 -22987921.658 8
  18569211.505   -18822806.504 7 -14597337.243 8
  22440323.810    -3763729.871 3  -2840241.064 4
  21175563.841    -2655297.499 6  -2001028.313 6
  20036967.427          -0.03516
  21969899.403    -4200166.921 4  -2975796.619 1
 95 10 22  2 22 29.9930000  0  8 14 28 18 29 27 22 19 31
  20734640.146     5151693.596 6   4031821.469 6
  21831656.255    -4082782.359 5  -3021679.746 5
  18566860.333   -29815240.444 7 -23050263.955 8
  18563385.192   -18853418.223 7 -14621190.519 9
  22418166.138    -3880210.060 4  -2931004.800 3
  21186016.521    -2600375.875 6  -1958232.240 6
  20019441.028      -92082.079 6        -0.12116
  21945718.661    -4327232.175 4  -3074808.490 2
 95 10 22  2 22 59.9930000  0  8 14 28 18 29 27 22 19 31
  20746679.513     5214928.059 6   4081095.061 6
  21814397.669    -4173493.758 5  -3092363.930 5
  18551699.653   -29894909.498 7 -23112343.738 9
  18557632.731   -18883650.964 7 -14644748.510 9
  22396003.935    -3996604.007 4  -3021701.341 2
  21196518.419    -2545187.529 6  -1915228.330 6
  20001953.216     -183983.149 6    -71611.312 6
  21921548.622    -4454247.555 4  -3173781.487 2
 95 10 22  2 23 29.9930000  0  8 14 28 18 29 27 22 19 31
  20758749.263     5278380.217 6   4130538.298 6
  21797199.763    -4263860.045 5  -3162779.194 5
  18536606.903   -29974222.014 7 -23174145.688 8
  18551952.341   -18913503.644 7 -14668010.334 9
  22373874.528    -4112900.038 4  -3112321.608 3
  21207069.724    -2489734.659 6  -1872018.302 6
  19984497.638     -275713.727 6   -143089.665 6
  21897390.560    -4581221.699 4  -3272722.338 3
 95 10 22  2 23 59.9930000  0  8 14 28 18 29 27 22 19 31
  20770861.114     5342067.145 5   4180164.462 6
  21780068.935    -4353872.772 5  -3232918.956 5
  18521583.169   -30053170.826 7 -23235664.238 8
  18546345.192   -18942967.931 7 -14690969.522 9
  22351770.974    -4229081.625 5  -3202852.681 3
  21217672.411    -2434031.878 6  -1828613.529 6
  19967076.997     -367268.526 6   -214431.045 6
  21873228.466    -4708138.694 3  -3371618.675 2
 95 10 22  2 24 29.9930000  0  8 14 28 18 29 27 22 19 31
  20783021.849     5405972.410 6   4229960.764 6
  21763002.146    -4443540.192 5  -3302789.661 5
  18506623.739   -30131772.632 7 -23296912.393 8
  18540807.927   -18972064.924 7 -14713642.510 9
  22329677.192    -4345162.776 5  -3293305.492 4
  21228312.599    -2378097.497 6  -1785028.307 6
  19949691.138     -458652.198 6   -285639.083 6
  21849092.724    -4834991.524 4  -3470465.050 1
 95 10 22  2 24 59.9930000  0  8 14 28 18 29 27 22 19 31
  20795225.911     5470077.866 6   4279913.055 5
  21746003.185    -4532856.949 5  -3372387.105 5
  18491732.489   -30210038.333 7 -23357898.646 8
  18535339.560   -19000798.545 7 -14736032.336 9
  22307603.302    -4461157.106 5  -3383690.628 4
  21239003.872    -2321943.051 6  -1741271.589 6
  19932333.177     -549843.270 6   -356697.039 6
  21824968.966    -4961767.050 4  -3569251.143 3
 95 10 22  2 25 29.9930000  0  8 14 28 18 29 27 22 19 31
  20807462.794     5534365.509 6   4330007.315 6
  21729083.114    -4621825.341 5  -3441713.096 5
  18476896.896   -30287994.383 7 -23418643.616 8
  18529936.950   -19029192.332 7 -14758157.365 9
  22285542.692    -4577089.977 5  -3474027.898 4
  21249735.708    -2265574.896 6  -1697348.359 6
  19915019.622     -640836.206 6   -427600.618 6
  21800862.653    -5088477.751 4  -3667986.736 2
 95 10 22  2 25 59.9930000  0  8 14 28 18 29 27 22 19 31
  20819731.278     5598856.462 6   4380259.999 5
  21712221.138    -4710421.803 5  -3510749.284 5
  18462124.372   -30365628.189 7 -23479137.483 8
  18524602.505   -19057225.003 7 -14780001.006 9
  22263494.708    -4692951.402 5  -3564309.476 4
  21260492.536    -2208982.134 5  -1653250.107 6
  19897742.310     -731615.629 6   -498337.815 6
  21776760.435    -5215094.717 4  -3766649.268 1
 95 10 22  2 26 29.9930000  0  8 14 28 18 29 27 22 19 31
  20832039.200     5663510.203 6   4430639.528 6
  21695425.888    -4798671.551 5  -3579515.304 5
  18447405.489   -30442966.093 7 -23539400.777 8
  18519330.692   -19084927.803 7 -14801587.607 9
  22241461.177    -4808768.649 5  -3654556.634 3
  21271307.419    -2152177.416 5  -1608986.682 6
  19880504.786     -822214.503 6   -568934.321 6
  21752680.856    -5341644.193 4  -3865259.235 3
 95 10 22  2 26 59.9930000  0  8 14 28 18 29 27 22 19 31
  20844371.661     5728351.475 5   4481165.186 6
  21678706.216    -4886551.821 5  -3647993.416 3
  18432755.067   -30519966.912 7 -23599401.414 8
  18514129.325   -19112257.331 7 -14822883.339 9
  22219438.505    -4924510.985 5  -3744745.427 3
  21282168.263    -2095130.451 6  -1564534.506 6
  19863300.755     -912612.404 6   -639374.228 6
  21728620.896    -5468120.951 5  -3963812.536 2
 95 10 22  2 27 29.9930000  0  8 14 28 18 29 27 22 19 31
  20856752.325     5793386.416 5   4531841.759 5
  21662055.989    -4974062.034 5  -3716183.171 5
  18418170.388   -30596608.480 7 -23659122.114 8
  18509004.380   -19139193.418 7 -14843872.500 9
  22197414.419    -5040160.820 4  -3834862.119 4
  21293064.528    -2037829.143 5  -1519884.139 6
  19846132.630    -1002829.670 6   -709673.388 6
  21704566.192    -5594532.622 5  -4062315.128 3
 95 10 22  2 27 59.9930000  0  8 14 28 18 29 27 22 19 31
  20869160.497     5858603.911 5   4582660.563 6
  21645473.169    -5061205.515 5  -3784087.176 5
  18403653.981   -30672888.455 7 -23718561.050 8
  18503955.810   -19165723.281 7 -14864545.120 9
  22175437.481    -5155710.094 5  -3924900.477 4
  21304023.466    -1980287.406 6  -1475046.420 6
  19828995.263    -1092883.876 6   -779845.478 6
  21680518.442    -5720866.703 5  -4160757.257 3
 95 10 22  2 28 29.9930000  0  8 14 28 18 29 27 22 19 31
  20881602.942     5923983.498 5   4633605.688 6
  21628955.099    -5147985.707 5  -3851708.089 5
  18389208.583   -30748806.927 7 -23777718.298 8
  18498985.942   -19191839.797 7 -14884895.655 9
  22153466.372    -5271164.996 5  -4014865.296 4
  21315019.591    -1922507.755 6  -1430023.320 6
  19811889.653    -1182773.579 6   -849889.391 6
  21656490.950    -5847132.219 5  -4259145.948 5
 95 10 22  2 28 59.9930000  0  8 14 28 18 29 27 22 19 31
  20894079.802     5989533.823 6   4684683.852 5
  21612513.552    -5234392.101 5  -3919037.732 5
  18374831.341   -30824352.393 7 -23836584.893 8
  18494095.716   -19217535.969 7 -14904918.650 9
  22131507.067    -5386527.787 5  -4104758.334 3
  21326054.497    -1864501.658 5  -1384823.754 6
  19794821.497    -1272483.956 6   -919793.567 7
  21632477.177    -5973323.737 5  -4357476.973 3
 95 10 22  2 29 29.9930000  0  8 14 28 18 29 27 22 19 31
  20906583.435     6055249.372 5   4735890.754 5
  21596144.966    -5320416.180 5  -3986069.467 5
  18360521.474   -30899541.811 7 -23895174.040 8
  18489283.036   -19242828.813 7 -14924627.355 9
  22109571.974    -5501807.921 4  -4194586.986 2
  21337118.091    -1806284.726 5  -1339459.928 6
  19777784.919    -1362010.553 6   -989554.527 6
  21608481.903    -6099413.003 5  -4455728.338 3
 95 10 22  2 29 59.9930000  0  8 14 28 18 29 27 22 19 31
  20919114.622     6121111.271 5   4787211.695 6
  21579851.966    -5406063.865 5  -4052807.910 4
  18346281.177   -30974392.066 7 -23953498.922 8
  18484539.521   -19267755.529 7 -14944050.772 9
  22087656.021    -5617033.022 5  -4284372.753 2
  21348241.075    -1747872.821 5  -1293944.152 6
  19760779.528    -1451358.498 6  -1059176.281 7
  21584508.466    -6225392.737 5  -4553894.345 4
 95 10 22  2 30 29.9930000  0  8 14 28 18 29 27 22 19 31
  20931677.849     6187127.209 5   4838652.671 5
  21563616.302    -5491329.522 5  -4119248.672 4
  18332099.403   -31048898.774 7 -24011556.094 8
  18479862.435   -19292336.847 7 -14963205.052 9
  22065744.138    -5732210.712 5  -4374121.578 3
  21359395.661    -1689261.570 5  -1248273.047 6
  19743817.771    -1540516.997 6  -1128650.417 7
  21560563.935    -6351270.688 5  -4651981.041 3
 95 10 22  2 30 59.9930000  0  8 14 28 18 29 27 22 19 31
  20944272.974     6253302.208 6   4890217.597 5
  21547465.989    -5576211.882 5  -4185390.761 5
  18317989.239   -31123067.552 7 -24069349.941 8
  18475249.669   -19316573.351 7 -14982090.637 9
  22043804.169    -5847347.553 3  -4463838.586 2
  21370581.911    -1630466.196 5  -1202458.462 6
  19726879.950    -1629500.882 6  -1197988.485 7
  21536618.989    -6477036.926 5  -4749980.695 3
 95 10 22  2 31 29.9930000  0  8 14 28 18 29 27 22 19 31
  20956890.802     6319625.408 5   4941897.994 5
  21531387.349    -5660714.677 5  -4251237.079 4
  18303937.849   -31196892.979 7 -24126876.246 8
  18470704.192   -19340459.370 7 -15000703.122 9
  22021925.630    -5962449.686 5  -4553528.546 2
  21381807.747    -1571479.536 5  -1156494.845 6
  19709978.536    -1718318.243 6  -1267196.802 6
  21512714.239    -6602680.959 5  -4847885.108 2
 95 10 22  2 31 59.9930000  0  8 14 28 18 29 27 22 19 31
  20969546.427     6386113.062 6   4993706.548 5
  21515379.700    -5744830.420 5  -4316781.798 5
  18289958.364   -31270350.035 7 -24184115.506 8
  18466231.599   -19363964.072 7 -15019018.480 9
  22000027.302    -6077504.750 4  -4643181.828 3
  21393072.685    -1512282.012 5  -1110366.913 5
  19693113.138    -1806957.995 6  -1336266.714 6
  21488822.739    -6728211.998 5  -4945701.492 3
 95 10 22  2 32 29.9930000  0  8 14 28 18 29 27 22 19 31
  20982224.646     6452773.284 5   5045649.565 5
  21499449.208    -5828559.115 5  -4382024.923 5
  18276050.122   -31343438.703 7 -24241067.721 8
  18461834.442   -19387067.292 7 -15037020.998 9
  21978142.724    -6192505.641 4  -4732792.904 2
  21404379.560    -1452894.081 6  -1064090.609 6
  19676279.614    -1895420.219 6  -1405198.300 7
  21464959.356    -6853644.163 5  -5043440.831 4
 95 10 22  2 32 59.9930000  0  8 14 28 18 29 27 22 19 31
  20994944.380     6519584.767 6   5097710.449 5
  21483586.255    -5911907.145 5  -4446971.437 5
  18262212.435   -31416151.512 7 -24297727.052 8
  18457515.614   -19409754.751 7 -15054699.548 9
  21956272.521    -6307448.982 5  -4822359.119 2
  21415709.458    -1393326.729 5  -1017674.504 6
  19659474.692    -1983709.630 6  -1473995.231 7
  21441105.489    -6978975.028 5  -5141101.233 4
 95 10 22  2 33 29.9930000  0  8 14 28 18 29 27 22 19 31
  21007686.872     6586556.741 6   5149896.399 5
  21467799.591    -5994856.103 5  -4511606.959 5
  18248455.067   -31488467.662 7 -24354077.293 8
  18453279.341   -19432021.068 7 -15072049.921 9
  21934407.083    -6422302.511 4  -4911855.353 2
  21427084.192    -1333548.934 5   -971094.404 6
  19642713.763    -2071794.902 6  -1542633.070 7
  21417282.263    -7104194.222 5  -5238674.604 3
 95 10 22  2 33 59.9930000  0  8 14 28 18 29 27 22 19 31
  21020452.028     6653672.238 5   5202194.182 5
  21452092.544    -6077410.930 5  -4575935.385 5
  18234763.935   -31560404.038 7 -24410131.615 8
  18449119.075   -19453890.021 7 -15089090.672 9
  21912578.317    -6537061.778 5  -5001278.140 4
  21438498.739    -1273581.337 6   -924366.414 6
  19625993.474    -2159683.100 6  -1611117.369 7
  21393477.302    -7229315.398 5  -5336171.611 3
 95 10 22  2 34 29.9930000  0  8 14 28 18 29 27 22 19 31
  21033251.896     6720909.708 5   5254587.018 5
  21436453.755    -6159571.232 5  -4639956.388 5
  18221147.653   -31631959.628 7 -24465889.216 8
  18445029.372   -19475379.010 7 -15105835.343 9
  21890758.310    -6651728.453 5  -5090628.760 3
  21449943.310    -1213437.718 5   -877501.261 6
  19609299.247    -2247387.922 6  -1679458.767 7
  21369682.364    -7354322.103 5  -5433579.404 2
 95 10 22  2 34 59.9920000  0  8 14 28 18 29 27 22 19 31
  21046068.039     6788270.228 5   5307075.709 5
  21420893.469    -6241323.767 5  -4703659.658 5
  18207602.836   -31703123.572 7 -24521341.649 8
  18441011.719   -19496483.270 7 -15122280.237 9
  21868953.297    -6766286.413 5  -5179894.697 4
  21461424.352    -1153093.054 5   -830479.461 6
  19592652.336    -2334890.842 6  -1747642.855 7
  21345924.758    -7479189.924 5  -5530879.000 2
 95 10 22  2 35 29.9920000  0  8 14 28 18 29 27 22 19 31
  21058912.953     6855776.163 5   5359677.562 5
  21405409.781    -6322665.318 5  -4767042.841 5
  18194127.422   -31773913.457 7 -24576502.770 8
  18437059.789   -19517218.456 7 -15138437.706 8
  21847172.297    -6880739.383 5  -5269078.987 3
  21472939.813    -1092542.663 6   -783297.513 5
  19576027.211    -2422200.354 6  -1815676.403 6
  21322179.508    -7603909.312 5  -5628063.077 2
 95 10 22  2 35 59.9920000  0  8 14 28 18 29 27 22 19 31
  21071781.742     6923430.532 5   5412395.305 5
  21390013.188    -6403593.723 5  -4830103.872 5
  18180728.922   -31844327.032 7 -24631370.432 8
  18433183.703   -19537589.366 7 -15154311.088 9
  21825408.086    -6995092.302 5  -5358185.061 4
  21484498.984    -1031808.807 6   -735972.377 5
  19559446.867    -2509321.533 6  -1883562.955 7
  21298476.555    -7728468.668 5  -5725122.245 4
 95 10 22  2 36 29.9920000  0  8 14 28 18 29 27 22 19 31
  21084690.016     6991249.360 5   5465241.133 5
  21374694.617    -6484109.214 5  -4892843.201 5
  18167399.617   -31914370.807 7 -24685949.994 8
  18429379.141   -19557578.509 7 -15169887.051 8
  21803663.766    -7109349.909 5  -5447216.929 5
  21496088.047     -970895.399 6   -688507.379 5
  19542903.766    -2596258.258 6  -1951305.843 7
  21274796.117    -7852863.106 5  -5822052.950 1
 95 10 22  2 36 59.9920000  0  8 14 28 18 29 27 22 19 31
  21097627.578     7059239.690 5   5518220.596 5
  21359450.453    -6564211.907 5  -4955260.877 5
  18154140.008   -31984053.936 7 -24740248.550 8
  18425648.664   -19577186.065 7 -15185165.683 9
  21781939.586    -7223511.685 5  -5536174.139 5
  21507715.594     -909803.570 5   -640903.364 5
  19526399.102    -2682995.833 6  -2018893.566 7
  21251158.656    -7977103.072 5  -5918863.301 4
 95 10 22  2 37 29.9920000  0  8 14 28 18 29 27 22 19 31
  21110598.570     7127404.679 5   5571336.152 5
  21344285.195    -6643891.679 5  -5017349.007 5
  18140950.188   -32053355.269 7 -24794249.593 8
  18421991.203   -19596406.210 7 -15200142.436 8
  21760230.914    -7337578.756 5  -5625057.547 4
  21519372.227     -848541.219 5   -593166.475 5
  19509931.781    -2769544.273 6  -2086333.906 7
  21227553.250    -8101183.683 5  -6015549.480 4
 95 10 22  2 37 59.9920000  0  8 14 28 18 29 27 22 19 31
  21123596.320     7195721.196 5   5624569.801 5
  21329206.266    -6723159.394 5  -5079116.044 5
  18127836.492   -32122266.907 7 -24847946.960 8
  18418409.359   -19615226.989 7 -15214807.960 8
  21738539.992    -7451570.056 5  -5713881.874 4
  21531065.117     -787118.256 5   -545304.406 5
  19493494.156    -2855920.508 6  -2153640.047 7
  21203961.359    -8225134.379 5  -6112134.404 4
 95 10 22  2 38 29.9920000  0  8 14 28 18 29 27 22 19 31
  21136626.039     7264170.556 5   5677906.953 5
  21314197.922    -6802012.529 5  -5140560.028 6
  18114799.164   -32190788.161 7 -24901340.141 8
  18414907.547   -19633632.884 7 -15229150.228 8
  21716859.555    -7565485.820 5  -5802647.367 5
  21542774.617     -725536.728 5   -497318.788 5
  19477088.781    -2942127.034 6  -2220813.952 7
  21180402.625    -8348957.329 5  -6208619.790 3
 95 10 22  2 38 59.9920000  0  8 14 28 18 29 27 22 19 31
  21149660.508     7332732.312 5   5731331.669 5
  21299262.406    -6880450.012 5  -5201680.154 5
  18101833.508   -32258914.970 7 -24954425.977 8
  18411480.297   -19651636.242 7 -15243178.829 8
  21695198.859    -7679333.709 5  -5891359.972 5
  21554529.047     -663797.228 5   -449210.111 5
  19460716.531    -3028165.184 6  -2287856.676 7
  21156863.852    -8472664.678 5  -6305015.128 4
 95 10 22  2 39 29.9920000  0  8 14 28 18 29 27 22 19 31
  21162743.367     7401399.330 5   5784838.427 5
  21284426.391    -6958465.746 5  -5262471.624 5
  18088941.102   -32326653.023 7 -25007208.871 8
  18408131.297   -19669233.935 7 -15256891.318 8
  21673545.274    -7793119.812 5  -5980024.407 5
  21566311.117     -601896.587 5   -400975.836 5
  19444375.477    -3114048.318 6  -2354778.584 7
  21133340.086    -8596239.981 5  -6401307.554 3
 95 10 22  2 39 59.9920000  0  8 14 28 18 29 27 22 19 31
  21175813.852     7470150.587 5   5838410.828 5
  21269661.391    -7036055.085 5  -5322930.831 5
  18076121.766   -32394026.184 7 -25059707.439 8
  18404861.094   -19686415.172 7 -15270279.304 8
  21651900.836    -7906838.586 5  -6068636.388 5
  21578117.297     -539836.161 5   -352617.062 5
  19428063.438    -3199752.758 6  -2421561.262 7
  21109854.680    -8719668.565 5  -6497485.661 4
 95 10 22  2 40 29.9920000  0  8 14 28 18 29 27 22 19 31
  21188904.875     7538979.032 5   5892043.367 5
  21254972.641    -7113220.889 5  -5383060.015 5
  18063364.141   -32461057.020 7 -25111939.261 8
  18401668.344   -19703192.233 7 -15283352.342 8
  21630278.414    -8020499.122 5  -6157202.996 5
  21589950.117     -477630.213 5   -304144.905 5
  19411790.320    -3285277.321 6  -2488203.770 7
  21086397.773    -8842942.759 5  -6593543.443 4
 95 10 22  2 40 59.9920000  0  8 14 28 18 29 27 22 19 31
  21202029.367     7607884.749 5   5945736.145 5
  21240375.820    -7189963.174 5  -5442859.180 5
  18050673.008   -32527743.983 7 -25163903.125 8
  18398550.383   -19719574.563 7 -15296117.796 8
  21608650.344    -8134111.849 5  -6245732.341 5
  21601818.484     -415277.325 5   -255558.242 5
  19395546.695    -3370631.438 6  -2554713.458 7
  21062971.500    -8966058.748 5  -6689477.959 4
 95 10 22  2 41 29.9920000  0  8 14 28 18 29 27 22 19 31
  21215159.102     7676874.794 5   5999494.608 5
  21225846.195    -7266269.701 5  -5502318.812 5
  18038056.219   -32594060.611 7 -25215578.418 8
  18395509.617   -19735550.775 7 -15308566.793 8
  21587042.242    -8247653.296 5  -6334206.145 5
  21613719.352     -352780.768 5   -206859.614 5
  19379334.672    -3455808.620 6  -2621085.280 7
  21039575.047    -9088977.647 5  -6785258.894 4
 95 10 22  2 41 59.9920000  0  8 14 28 18 29 27 22 19 31
  21228308.086     7745962.033 5   6053328.809 5
  21211419.016    -7342132.103 5  -5561432.353 5
  18025513.031   -32659971.069 7 -25266937.218 8
  18392549.891   -19751105.255 7 -15320687.174 8
  21565462.680    -8361107.169 5  -6422611.697 5
  21625627.008     -290138.357 5   -158047.362 5
  19363161.117    -3540807.455 7  -2687318.140 7
  21016223.047    -9211709.562 5  -6880894.125 5
 95 10 22  2 42 29.9920000  0  8 14 28 18 29 27 22 19 31
  21241474.172     7815169.209 5   6107256.484 5
  21197054.539    -7417552.352 5  -5620201.365 5
  18013050.859   -32725452.352 7 -25317961.589 8
  18389666.680   -19766253.644 7 -15332491.117 8
  21543890.586    -8474480.209 5  -6510954.280 5
  21637574.430     -227352.676 5   -109123.447 5
  19347016.617    -3625646.432 6  -2753426.427 7
  20992898.469    -9334261.001 5  -6976388.732 5
 95 10 22  2 42 59.9920000  0  8 14 28 18 29 27 22 19 31
  21254654.828     7884480.460 5   6161265.243 5
  21182783.234    -7492535.423 5  -5678629.726 5
  18000673.313   -32790492.205 7 -25368641.995 8
  18386857.820   -19781009.573 7 -15343989.253 8
  21522329.656    -8587769.701 5  -6599231.730 5
  21649550.906     -164432.424 5    -60094.691 5
  19330902.758    -3710327.659 6  -2819411.791 7
  20969613.828    -9456625.230 5  -7071737.458 5
 95 10 22  2 43 29.9920000  0  8 14 28 18 29 27 22 19 31
  21267867.563     7953893.846 5   6215353.592 5
  21168607.727    -7567076.662 5  -5736713.797 5
  17988379.320   -32855089.058 7 -25418977.200 8
  18384126.617   -19795360.046 7 -15355171.444 8
  21500780.774    -8700967.471 5  -6687437.743 5
  21661551.539     -101372.950 5    -10957.443 5
  19314821.766    -3794835.085 7  -2885261.729 7
  20946360.016    -9578795.685 5  -7166935.192 4
 95 10 22  2 43 59.9920000  0  8 14 28 18 29 27 22 19 31
  21281096.969     8023404.327 5   6269517.590 4
  21154501.383    -7641177.368 5  -5794454.594 5
  17976170.188   -32919252.761 7 -25468974.889 8
  18381472.891   -19809305.868 7 -15366038.325 8
  21479257.453    -8814096.053 5  -6775589.824 5
  21673579.125      -38172.317 5     38289.809 5
  19298775.156    -3879155.974 7  -2950966.310 7
  20923155.984    -9700786.842 5  -7261993.216 5
 95 10 22  2 44 29.9920000  0  8 14 28 18 29 27 22 19 31
  21294341.492     8092998.059 5   6323746.476 4
  21140489.219    -7714829.964 5  -5851846.212 5
  17964041.906   -32982987.687 7 -25518638.459 8
  18378896.008   -19822845.517 7 -15376588.706 8
  21457735.898    -8927163.306 5  -6863694.123 5
  21685634.859       25166.562 5     87644.771 5
  19282766.234    -3963267.468 6  -3016507.724 7
  20899977.922    -9822563.340 5  -7356883.985 4
 95 10 22  2 44 59.9920000  0  8 14 28 18 29 27 22 19 31
  21307579.609     8162638.534 5   6378011.767 4
  21126558.352    -7788040.925 5  -5908893.704 5
  17951992.875   -33046309.859 7 -25567980.412 8
  18376395.898   -19835983.114 7 -15386825.800 8
  21436231.172    -9040177.624 5  -6951757.170 4
  21697712.523       88635.335 5    137100.953 5
  19266799.266    -4047179.565 7  -3081893.775 7
  20876842.852    -9944131.040 5  -7451612.034 5
 95 10 22  2 45 29.9920000  0  8 14 28 18 29 27 22 19 31
  21320858.703     8232345.028 5   6432328.505 5
  21112709.070    -7860803.962 5  -5965592.165 5
  17940018.984   -33109225.468 7 -25617005.567 8
  18373974.461   -19848712.743 7 -15396744.998 8
  21414736.594    -9153141.004 5  -7039780.537 5
  21709810.172      152238.363 5    186661.750 5
  19250870.945    -4130890.966 7  -3147123.426 7
  20853751.461   -10065493.544 5  -7546180.187 5
 95 10 22  2 45 59.9920000  0  8 14 28 18 29 27 22 19 31
  21334130.555     8302134.362 5   6486709.795 5
  21098959.555    -7933105.500 5  -6021931.016 5
  17928127.234   -33171719.544 7 -25665702.240 8
  18371627.344   -19861042.646 7 -15406352.724 8
  21393255.328    -9266038.619 5  -7127752.647 5
  21721936.844      215981.483 5    236331.722 5
  19234980.563    -4214396.118 7  -3212192.370 7
  20830702.781   -10186640.801 5  -7640580.640 4
 95 10 22  2 46 29.9920000  0  8 14 28 18 29 27 22 19 31
  21347430.250     8372005.879 5   6541155.123 3
  21085280.102    -8004947.050 5  -6077911.435 6
  17916314.852   -33233808.428 7 -25714083.186 8
  18369354.469   -19872984.406 7 -15415657.998 8
  21371788.695    -9378854.694 5  -7215661.237 4
  21734097.352      279859.542 5    286106.839 5
  19219122.531    -4297711.589 7  -3277113.502 7
  20807685.063   -10307571.315 5  -7734812.190 5
 95 10 22  2 46 59.9920000  0  8 14 28 18 29 27 22 19 31
  21360748.602     8441969.295 5   6595672.062 4
  21071700.070    -8076339.454 5  -6133541.869 5
  17904572.617   -33295509.708 7 -25762162.100 8
  18367152.414   -19884559.912 7 -15424677.880 8
  21350331.828    -9491583.388 5  -7303501.731 4
  21746279.422      343864.507 5    335980.825 5
  19203301.891    -4380851.991 7  -3341898.220 7
  20784706.305   -10428307.958 5  -7828892.659 5
 95 10 22  2 47 29.9920000  0  8 14 28 18 29 27 22 19 31
  21374083.281     8512053.725 5   6650283.300 5
  21058197.922    -8147266.618 5  -6188809.787 5
  17892906.781   -33356806.394 7 -25809925.750 8
  18365021.445   -19895748.305 7 -15433396.116 8
  21328901.305    -9604203.633 5  -7391257.731 4
  21758482.273      408007.697 5    385962.512 5
  19187518.133    -4463798.715 7  -3406532.023 7
  20761772.375   -10548836.373 5  -7922810.888 5
 95 10 22  2 47 59.9920000  0  8 14 28 18 29 27 22 19 31
  21387434.172     8582228.017 5   6704964.561 5
  21044786.875    -8217731.548 5  -6243717.506 6
  17881319.836   -33417698.411 7 -25857374.077 8
  18362967.266   -19906548.773 7 -15441812.069 8
  21307490.438    -9716713.711 5  -7478927.888 5
  21770711.336      472273.941 5    436040.107 5
  19171769.859    -4546564.915 7  -3471025.155 7
  20738879.180   -10669163.711 5  -8016572.439 4
 95 10 22  2 48 29.9920000  0  8 14 28 18 29 27 22 19 31
  21400804.617     8652475.855 5   6759703.123 4
  21031459.789    -8287733.318 5  -6298264.330 6
  17869805.836   -33478195.280 7 -25904514.496 8
  18360990.672   -19916937.288 7 -15449907.019 9
  21286102.328    -9829123.883 5  -7566520.203 4
  21782958.555      536652.803 5    486205.470 4
  19156053.070    -4629155.842 7  -3535381.715 7
  20716017.047   -10789285.339 5  -8110173.692 4
 95 10 22  2 48 59.9920000  0  8 14 28 18 29 27 22 19 31
  21414180.000     8722780.531 5   6814485.966 5
  21018230.844    -8357274.963 5  -6352452.602 6
  17858372.570   -33538292.057 7 -25951343.152 8
  18359094.680   -19926901.639 7 -15457671.450 9
  21264718.570    -9941451.517 5  -7654048.195 5
  21795235.633      601140.534 5    536455.633 4
  19140368.250    -4711576.840 7  -3599605.858 7
  20693187.406   -10909201.710 5  -8203615.012 5
 95 10 22  2 49 29.9920000  0  8 14 28 18 29 27 22 19 31
  21427563.750     8793117.147 4   6869293.695 5
  21005092.406    -8426346.882 5  -6406274.872 6
  17847012.500   -33597982.241 7 -25997854.985 8
  18357282.813   -19936422.744 7 -15465090.499 8
  21243363.453   -10053699.135 5  -7741513.834 4
  21807528.305      665731.694 5    586786.415 3
  19124718.078    -4793826.244 7  -3663696.291 7
  20670423.273   -11028902.144 5  -8296888.058 5
 95 10 22  2 49 59.9920000  0  8 14 28 18 29 27 22 19 31
  21440953.469     8863460.656 5   6924106.794 5
  20992042.274    -8494956.033 5  -6459736.533 6
  17835727.570   -33657274.003 7 -26044056.356 8
  18355550.680   -19945521.530 7 -15472180.463 8
  21222014.789   -10165883.946 5  -7828930.556 5
  21819831.336      730415.982 5    637189.763 3
  19109097.055    -4875908.814 7  -3727656.724 7
  20647693.008   -11148377.833 5  -8389985.983 5
 95 10 22  2 50 29.9920000  0  8 14 28 18 29 27 22 19 31
  21454343.945     8933828.494 5   6978938.868 5
  20979066.297    -8563091.419 5  -6512829.030 5
  17824523.773   -33716154.162 7 -26089936.994 8
  18353901.664   -19954192.960 7 -15478937.426 9
  21200684.852   -10278008.120 5  -7916299.996 5
  21832162.109      795204.793 5    687674.536 1
  19093514.680    -4957805.642 7  -3791472.422 7
  20624997.133   -11267600.170 5  -8482886.490 5
 95 10 22  2 50 59.9920000  0  8 14 28 18 29 27 22 19 31
  21467737.234     9004221.147 5   7033790.272 5
  20966189.625    -8630752.845 5  -6565552.210 6
  17813399.984   -33774607.046 7 -26135484.697 8
  18352327.734   -19962459.486 7 -15485378.877 9
  21179354.250   -10390066.135 5  -8003617.909 5
  21844509.703      860095.318 5    738238.606 2
  19077961.961    -5039525.123 7  -3855149.924 7
  20602361.000   -11386565.548 5  -8575586.781 5
 95 10 22  2 51 29.9920000  0  8 14 28 18 29 27 22 19 31
  21481136.898     9074636.794 5   7088659.597 5
  20953408.977    -8697944.468 5  -6617909.304 6
  17802361.023   -33832626.959 7 -26180695.022 8
  18350828.516   -19970334.640 7 -15491515.372 9
  21158041.117   -10502063.735 5  -8090888.753 5
  21856875.344      925072.383 5    788870.122 2
  19062442.461    -5121073.564 7  -3918694.157 7
  20579767.336   -11505285.453 5  -8668095.778 5
 95 10 22  2 51 59.9920000  0  8 14 28 18 29 27 22 19 31
  21494545.867     9145095.931 5   7143562.810 5
  20940713.313    -8764665.373 5  -6669899.610 6
  17791403.539   -33890205.414 7 -26225561.352 8
  18349406.750   -19977812.754 7 -15497342.469 9
  21136741.570   -10614002.415 5  -8178113.663 5
  21869255.203      990140.566 5    839572.591 2
  19046959.164    -5202450.124 7  -3982104.458 7
  20557220.711   -11623760.224 5  -8760413.762 5
 95 10 22  2 52 29.9920000  0  8 14 28 18 29 27 22 19 31
  21507967.695     9215622.926 5   7198518.908 4
  20928100.633    -8830904.650 5  -6721514.616 6
  17780533.813   -33947334.525 7 -26270077.538 8
  18348063.430   -19984868.965 7 -15502840.822 9
  21115458.414   -10725865.660 5  -8265279.803 5
  21881655.969     1055307.323 5    890351.893 4
  19031505.453    -5283647.021 7  -4045374.764 7
  20534719.219   -11741989.866 5  -8852540.739 5
 95 10 22  2 52 59.9920000  0  8 14 28 18 29 27 22 19 31
  21521402.000     9286225.600 5   7253533.951 4
  20915584.836    -8896665.061 5  -6772756.481 6
  17769743.844   -34004028.133 7 -26314254.374 8
  18346801.078   -19991506.171 7 -15508012.678 9
  21094188.109   -10837645.248 5  -8352380.761 5
  21894080.742     1120573.943 5    941208.999 4
  19016088.445    -5364670.233 7  -4108509.724 7
  20512276.328   -11859984.510 5  -8944484.597 5
 95 10 22  2 53 29.9920000  0  8 14 28 18 29 27 22 19 31
  21534851.102     9356916.031 5   7308617.411 4
  20903162.867    -8961942.330 5  -6823621.878 6
  17759037.297   -34060292.056 7 -26358096.390 8
  18345617.141   -19997718.369 7 -15512853.355 9
  21072935.117   -10949339.741 5  -8439415.411 5
  21906522.117     1185947.068 6    992149.094 4
  19000706.352    -5445499.341 7  -4171493.434 7
  20489861.594   -11977741.652 5  -9036243.394 5
 95 10 22  2 53 59.9920000  0  8 14 28 18 29 27 22 19 31
  21548321.266     9427684.976 4   7363762.026 4
  20890836.680    -9026738.043 5  -6874112.023 6
  17748408.328   -34116143.256 7 -26401616.804 8
  18344513.773   -20003515.293 7 -15517370.442 9
  21051696.234   -11060945.858 5  -8526381.196 5
  21918979.719     1251420.711 5   1043167.544 5
  18985361.008    -5526137.503 7  -4234328.353 7
  20467495.109   -12095247.770 5  -9127806.586 5
 95 10 22  2 54 29.9910000  0  8 14 28 18 29 27 22 19 31
  21561796.253     9498506.612 4   7418947.697 4
  20878599.003    -9091055.135 5  -6924229.221 6
  17737859.761   -34171586.224 7 -26444819.116 8
  18343485.214   -20008928.209 7 -15521588.305 9
  21030467.956   -11172469.401 5  -8613282.643 5
  21931455.511     1316983.353 5   1094255.315 5
  18970049.315    -5606598.702 7  -4297025.380 7
  20445190.472   -12212498.087 5  -9219170.464 5
 95 10 22  2 54 59.9910000  0  8 14 28 18 29 27 22 19 31
  21575283.612     9569373.974 4   7474169.007 4
  20866447.534    -9154884.855 5  -6973966.657 6
  17727389.183   -34226599.623 7 -26487686.700 8
  18342529.542   -20013955.181 7 -15525505.430 9
  21009267.925   -11283903.527 5  -8700114.398 5
  21943947.823     1382639.547 5   1145415.987 4
  18954774.222    -5686883.805 7  -4359585.192 7
  20422928.183   -12329485.110 5  -9310329.161 5
 95 10 22  2 55 29.9910000  0  8 14 28 18 29 27 22 19 31
  21588771.253     9640242.773 3   7529391.421 3
  20854400.706    -9218235.414 5  -7023330.717 6
  17717005.894   -34281177.131 7 -26530214.630 8
  18341644.441   -20018605.707 7 -15529129.222 9
  20988078.245   -11395257.234 5  -8786883.491 5
  21956454.683     1448364.395 5   1196630.161 5
  18939524.612    -5767008.622 7  -4422020.102 7
  20400716.573   -12446211.295 5  -9401284.622 5
 95 10 22  2 55 59.9910000  0  8 14 28 18 29 27 22 19 31
  21602260.487     9711117.296 4   7584618.301 3
  20842441.862    -9281087.564 5  -7072306.411 6
  17706706.589   -34335291.387 7 -26572381.579 8
  18340834.519   -20022858.033 7 -15532442.732 9
  20966905.511   -11506510.784 5  -8873574.561 5
  21968982.355     1514168.581 5   1247906.149 5
  18924308.394    -5846964.298 7  -4484323.215 7
  20378559.933   -12562657.897 5  -9492022.218 5
 95 10 22  2 56 29.9910000  0  8 14 28 18 29 27 22 19 31
  21615743.300     9781986.680 3   7639841.208 2
  20830573.339    -9343444.932 5  -7120896.550 6
  17696499.323   -34388932.191 7 -26614179.612 7
  18340104.222   -20026701.491 7 -15535437.639 9
  20945752.284   -11617669.712 5  -8960191.890 5
  21981513.433     1580052.973 5   1299244.622 5
  18909127.909    -5926753.255 7  -4546496.422 7
  20356446.276   -12678837.070 5  -9582551.420 5
 95 10 22  2 56 59.9910000  0  8 14 28 18 29 27 22 19 31
  21629226.534     9852845.567 4   7695055.903 2
  20818801.409    -9405305.317 5  -7169099.434 6
  17686382.706   -34442098.048 7 -26655607.552 8
  18339454.769   -20030109.422 7 -15538093.180 9
  20924618.855   -11728726.368 5  -9046729.517 5
  21994063.878     1646019.770 4   1350647.311 5
  18893977.136    -6006358.163 7  -4608526.215 7
  20334389.831   -12794747.529 5  -9672871.239 5
 95 10 22  2 57 29.9910000  0  8 14 28 18 29 27 22 19 31
  21642714.081     9923705.203 4   7750271.169 1
  20807125.214    -9466664.609 5  -7216911.863 5
  17676351.003   -34494808.302 7 -26696680.479 8
  18338888.581   -20033080.588 7 -15540408.381 9
  20903502.331   -11839687.229 5  -9133192.513 5
  22006633.456     1712079.026 3   1402122.033 5
  18878870.464    -6085764.247 7  -4670401.068 7
  20312384.284   -12910378.083 5  -9762972.965 5
 95 10 22  2 57 59.9910000  0  8 14 28 18 29 27 22 19 31
  21656183.558     9994556.077 3   7805479.651 1
  20795532.597    -9527542.534 5  -7264349.191 6
  17666402.261   -34547090.720 7 -26737420.027 7
  18338400.183   -20035641.539 7 -15542403.938 9
  20882404.714   -11950585.498 5  -9219606.747 5
  22019223.480     1778208.920 4   1453651.809 5
  18863794.097    -6164983.032 7  -4732129.987 7
  20290433.362   -13025747.157 5  -9852870.938 5
 95 10 22  2 58 29.9910000  0  8 14 28 18 29 27 22 19 31
  21669673.589    10065411.767 3   7860691.863 2
  20784055.480    -9587921.067 5  -7311397.386 5
  17656533.909   -34598942.934 7 -26777824.350 7
  18337993.214   -20037780.131 7 -15544070.383 9
  20861307.964   -12061411.343 5  -9305964.528 5
  22031820.917     1844422.198 4   1505246.564 4
  18848760.386    -6243996.565 7  -4793698.965 7
  20268536.409   -13140829.624 6  -9942545.580 5
 95 10 22  2 58 59.9910000  0  8 14 28 18 29 27 22 19 31
  21683159.620    10136271.259 4   7915907.042 1
  20772652.628    -9647811.316 5  -7358065.103 6
  17646745.573   -34650393.703 7 -26817915.862 7
  18337662.198   -20039521.583 7 -15545427.366 9
  20840225.144   -12172182.712 5  -9392279.853 5
  22044435.792     1910697.902 3   1556889.983 3
  18833758.769    -6322821.089 7  -4855120.669 7
  20246683.659   -13255628.996 6 -10031999.612 5
 95 10 22  2 59 29.9910000  0  8 14 28 18 29 27 22 19 31
  21696648.097    10207153.382 4   7971139.856 2
  20761350.753    -9707198.945 5  -7404341.165 6
  17637035.136   -34701421.079 7 -26857677.458 7
  18337405.800   -20040869.111 7 -15546477.396 9
  20819164.175   -12282891.264 5  -9478546.245 5
  22057056.300     1977039.461 3   1608584.689 4
  18818795.401    -6401455.844 7  -4916394.490 7
  20224894.980   -13370132.611 6 -10121223.205 5
 95 10 22  2 59 59.9910000  0  8 14 28 18 29 27 22 19 31
  21710138.769    10278037.893 4   8026374.530 2
  20750132.526    -9766098.184 5  -7450236.670 6
  17627406.019   -34752016.092 7 -26897102.146 7
  18337225.112   -20041822.434 7 -15547220.256 9
  20798100.995   -12393550.577 5  -9564774.276 5
  22069687.714     2043417.969 3   1660308.180 2
  18803860.253    -6479935.292 7  -4977547.296 7
  20203159.026   -13484359.730 6 -10210231.336 5
 95 10 22  3  0 29.9910000  0  8 14 28 18 29 27 22 19 31
  21723627.636    10348930.180 4   8081615.271 2
  20739031.917    -9824500.964 5  -7495745.321 6
  17617861.151   -34802166.806 7 -26936180.625 7
  18337122.714   -20042359.479 7 -15547638.738 9
  20777060.362   -12504143.175 5  -9650950.310 5
  22082330.011     2109843.642 4   1712068.443 3
  18788956.769    -6558266.668 7  -5038584.727 7
  20181480.167   -13598296.429 6 -10299013.162 5
 95 10 22  3  0 59.9910000  0  8 14 28 18 29 27 22 19 31
  21737118.401    10419830.503 4   8136862.260 2
  20728011.573    -9882398.208 5  -7540860.049 6
  17608409.542   -34851847.848 7 -26974893.124 7
  18337105.901   -20042461.099 7
  20756030.566   -12614655.647 5  -9737063.899 5
  22094981.933     2176329.419 4   1763875.543 1
  18774076.839    -6636444.200 7  -5099502.277 7
  20159855.167   -13711927.498 6 -10387556.835 5
 95 10 22  3  1 29.9910000  0  8 14 28 18 29 27 22 19 31
  21750607.815    10490721.937 4   8192102.327 2
  20717084.339    -9939791.281 5  -7585581.911 6
  17599048.206   -34901041.496 7 -27013225.839 7
  18337168.714   -20042124.408 7
  20735016.503   -12725088.040 5  -9823115.090 5
  22107646.456     2242866.719 5   1815722.809 1
  18759227.644    -6714474.659 7  -5160305.233 7
  20138293.448   -13825247.487 6 -10475858.115 5
 95 10 22  3  1 59.9910000  0  8 14 28 18 29 27 22 19 31
  21764097.761    10561597.838 4   8247330.276 2
  20706261.472    -9996682.009 5  -7629912.331 6
  17589776.136   -34949766.627 7 -27051193.475 7
  18337316.933   -20041347.058 7 -15546849.871 9
  20714014.855   -12835444.104 5  -9909106.795 5
  22120316.417     2309462.904 5   1867615.913 1
  18744408.862    -6792355.899 7  -5220991.903 7
  20116784.222   -13938249.670 6 -10563911.760 5
 95 10 22  3  2 29.9910000  0  8 14 28 18 29 27 22 19 31
  21777581.573    10632462.253 4   8302549.279 3
  20695531.159   -10053059.721 5  -7673843.008 6
  17580592.862   -34998024.544 7 -27088797.053 7
  18337545.862   -20040142.970 7 -15545911.629 9
  20693029.651   -12945709.753 5  -9995028.057 5
  22133005.683     2376136.310 5   1919569.233 1
  18729624.542    -6870053.301 7  -5281535.324 7
  20095346.714   -14050914.146 6 -10651702.254 5
 95 10 22  3  2 59.9910000  0  8 14 28 18 29 27 22 19 31
  21791060.448    10703298.105 4   8357746.026 2
  20684902.386   -10108929.981 5  -7717378.271 6
  17571498.761   -35045816.157 7 -27126037.270 7
  18337850.417   -20038533.986 7 -15544657.884 9
  20672064.347   -13055888.644 5 -10080881.721 5
  22145699.425     2442856.296 5
  18714873.237    -6947562.013 7  -5341931.719 7
  20073971.870   -14163251.794 6 -10739238.067 5
 95 10 22  3  3 29.9910000  0  8 14 28 18 29 27 22 19 31
  21804535.644    10774103.081 3   8412918.724 4
  20674367.714   -10164293.876 5  -7760518.969 6
  17562489.222   -35093153.720 7 -27162923.685 7
  18338231.276   -20036542.036 7 -15543105.729 9
  20651117.487   -13165991.535 6 -10166676.150 5
  22158401.355     2509602.756 5        -0.34511
  18700162.401    -7024872.883 7  -5402173.954 7
  20052655.261   -14275271.188 6 -10826525.895 6
 95 10 22  3  3 59.9910000  0  8 14 28 18 29 27 22 19 31
  21818004.292    10844888.007 3   8468075.789 2
  20663935.651   -10219141.441 5  -7803257.310 6
  17553569.019   -35140037.800 7 -27199456.739 7
  18338681.620   -20034172.086 7 -15541259.026 9
  20630177.308   -13276017.569 6 -10252410.697 5
  22171111.409     2576386.829 5     52039.220 1
  18685493.690    -7101962.436 7  -5462243.728 7
  20031394.425   -14386977.190 6 -10913569.516 5
 95 10 22  3  4 29.9910000  0  8 14 28 18 29 27 22 19 31
  21831471.941    10915645.578 3   8523211.532 3
  20653587.753   -10273474.296 5  -7845594.588 6
  17544735.800   -35186458.466 7 -27235628.689 7
  18339202.237   -20031424.776 7 -15539118.272 8
  20609251.823   -13385973.353 6 -10338090.496 5
  22183819.605     2643182.157 5    104087.508 2
  18670863.573    -7178835.178 7  -5522144.563 7
  20010197.565   -14498377.352 6 -11000374.828 5
 95 10 22  3  4 59.9910000  0  8 14 28 18 29 27 22 19 31
  21844929.644    10986379.853 3   8578329.140 2
  20643349.175   -10327286.088 5  -7887525.855 6
  17535990.347   -35232414.821 7 -27271438.839 7
  18339801.581   -20028281.051 7 -15536668.623 9
  20588342.237   -13495861.732 6 -10423717.777 5
  22196530.940     2709985.759 4    156142.301 2
  18656273.956    -7255505.389 7  -5581887.579 7
  19989057.714   -14609479.785 6 -11086948.135 5
 95 10 22  3  5 29.9910000  0  8 14 28 18 29 27 22 19 31
  21858385.878    11057083.857 3   8633423.142 2
  20633218.394   -10380583.458 5  -7929056.264 5
  17527328.487   -35277932.621 7 -27306907.259 7
  18340476.878   -20024742.495 7 -15533911.322 8
  20567441.636   -13605702.685 6 -10509308.104 5
  22209250.276     2776817.317 4    208218.825 2
  18641718.612    -7331989.861 7  -5641485.866 7
  19967972.237   -14720292.632 6 -11173295.808 5
 95 10 22  3  5 59.9910000  0  8 14 28 18 29 27 22 19 31
  21871838.870    11127756.479 3   8688492.686 3
  20623169.948   -10433368.897 5  -7970187.767 5
  17518748.331   -35323013.203 7 -27342034.989 7
  18341227.691   -20020785.058 7 -15530827.617 8
  20546552.261   -13715478.551 6 -10594847.715 5
  22221975.894     2843682.386 4    260321.477 2
  18627196.589    -7408319.321 7  -5700963.359 8
  19946940.448   -14830812.918 6 -11259415.481 5
 95 10 22  3  6 29.9910000  0  8 14 28 18 29 27 22 19 31
  21885273.378    11198384.985 3   8743527.880 2
  20613221.566   -10485639.706 5  -8010918.257 5
  17510253.620   -35367657.931 7 -27376823.087 7
  18342066.690   -20016379.830 7 -15527394.984 8
  20525679.558   -13825166.129 6 -10680318.534 5
  22234702.292     2910577.887 3    312447.859 2
  18612695.855    -7484507.393 7  -5760330.684 7
  19925969.120   -14941015.418 6 -11345287.560 5
 95 10 22  3  6 59.9910000  0  7 14 28 18 29 27 19 31
  21898707.503    11268966.670 3   8798526.590 2
  20603383.995   -10537388.028 5  -8051241.619 5
  17501841.667   -35411855.754 7 -27411262.951 7
  18342991.144   -20011526.558 7 -15523613.227 8
  20504826.816   -13934743.737 6
  18598228.136    -7560549.761 7  -5819584.471 7
  19905065.433   -15050876.214 6
 95 10 22  3  7 29.9910000  0  7 14 28 18 29 27 19 31
  21912124.316    11339501.352 3   8853488.642 3
  20593626.964   -10588613.844 5  -8091157.821 6
  17493520.808   -35455587.018 7 -27445339.264 7
  18343998.964   -20006230.706 7 -15519486.595 8
  20483997.870   -14044198.501 6
  18583785.480    -7636446.512 7  -5878724.786 7
  19884223.823   -15160372.469 6
 95 10 22  3  7 59.9910000  0  7 14 28 18 29 27 19 31
  21925544.401    11409992.744 3   8908416.993 2
  20583972.003   -10639319.311 6  -8130668.558 5
  17485291.644   -35498835.291 7 -27479039.226 7
  18345089.948   -20000495.664 7 -15515017.738 8
  20463191.800   -14153527.789 6 -10936184.702 5
  18569370.581    -7712193.348 7  -5937748.285 8
  19863457.394   -15269499.899 6 -11601249.447 6
 95 10 22  3  8 29.9910000  0  7 14 28 18 29 27 19 31
  21938950.316    11480442.460 3   8963312.839 1
  20574423.230   -10689494.408 5  -8169766.043 6
  17477157.378   -35541577.901 7 -27512345.155 7
  18346262.659   -19994334.353 7 -15510216.725 9
  20442406.237   -14262745.285 6 -11021289.223 5
  18554989.019    -7787756.404 7  -5996628.592 8
  19842761.175   -15378255.466 6 -11685994.025 5
 95 10 22  3  8 59.9910000  0  7 14 28 18 29 27 19 31
  21952347.347    11550861.672 3   9018184.952 2
  20564975.503   -10739142.867 5  -8208453.134 6
  17469120.136   -35583812.164 7 -27545254.968 7
  18347509.940   -19987778.781 7 -15505108.497 9
  20421638.284   -14371884.767 6 -11106332.956 5
  18540649.011    -7863133.057 7  -6055363.635 8
  19822138.253   -15486653.492 6 -11770460.005 5
 95 10 22  3  9 29.9910000  0  7 14 28 18 29 27 19 31
  21965747.792    11621253.456 3   9073035.649 1
  20555635.276   -10788260.234 5  -8246726.402 5
  17461179.315   -35625548.353 7 -27577776.690 7
  18348833.862   -19980816.385 7 -15499683.266 9
  20400883.292   -14480965.823 5 -11191331.179 5
  18526339.565    -7938316.776 7  -6113948.346 8
  19801574.636   -15594698.164 6 -11854650.649 5
 95 10 22  3  9 59.9910000  0  7 14 28 18 29 27 19 31
  21979129.651    11691590.840 3   9127844.020 1
  20546375.581   -10836852.521 5  -8284590.517 5
  17453329.823   -35666802.485 7 -27609922.773 7
  18350234.339   -19973460.981 7 -15493951.792 8
  20380130.964   -14590017.773 5 -11276306.719 5
  18512068.456    -8013305.717 7  -6172381.279 8
  19781080.495   -15702402.858 6 -11938576.369 5
 95 10 22  3 10 29.9910000  0  7 14 28 18 29 27 19 31
  21992500.003    11761857.280 3   9182597.105 1
  20537234.745   -10884920.919 5  -8322046.406 6
  17445566.831   -35707593.107 7 -27641707.679 7
  18351706.644   -19965725.271 7 -15487923.979 8
  20359382.745   -14699047.490 5 -11361264.925 5
  18497833.925    -8088101.391 7  -6230663.618 8
  19760652.605   -15809757.213 6 -12022229.109 5
 95 10 22  3 10 59.9910000  0  7 14 28 18 29 27 19 31
  22005861.433    11832072.049 4   9237309.905 1
  20528191.495   -10932449.359 5  -8359081.551 6
  17437892.105   -35747917.644 7 -27673129.402 7
  18353255.573   -19957588.962 7 -15481584.008 9
  20338641.472   -14808032.618 5 -11446188.391 5
  18483640.480    -8162705.281 7  -6288796.505 8
  19740297.792   -15916727.665 6 -12105582.695 6
 95 10 22  3 11 29.9910000  0  6 28 18 29 27 19 31
  20519243.190   -10979453.183 5  -8395707.896 5
  17430304.839   -35787786.452 7 -27704196.004 7
  18354879.862   -19949052.799 7 -15474932.469 8
  20317916.206   -14916965.103 5 -11531070.836 5
  18469476.198    -8237138.579 7  -6346796.471 8
  19720011.698   -16023324.873 6 -12188645.445 5
 95 10 22  3 11 59.9910000  0  6 28 18 29 27 19 31
  20510394.675   -11025928.751 5  -8431922.615 6
  17422806.730   -35827193.055 7 -27734902.460 7
  18356579.636   -19940127.249 7 -15467977.504 8
  20297198.144   -15025827.771 5 -11615898.882 5
  18455344.886    -8311401.621 7  -6404663.770 8
  19699801.034   -16129540.257 6 -12271410.668 5
 95 10 22  3 12 29.9910000  0  6 28 18 29 27 19 31
  20501666.894   -11071875.377 5  -8467725.176 6
  17415397.097   -35866136.153 7 -27765247.734 7
  18358351.620   -19930800.291 7 -15460709.759 8
  20276499.683   -15134598.506 6 -11700655.300 6
  18441241.839    -8385508.548 7  -6462409.426 8
  19679660.440   -16235367.121 6 -12353873.148 6
 95 10 22  3 12 59.9910000  0  6 28 18 29 27 19 31
  20493022.300   -11117292.195 5  -8503114.891 5
  17408079.222   -35904590.471 7 -27795212.145 7
  18360204.917   -19921059.626 7 -15453119.640 8
  20255821.245   -15243268.690 6 -11785333.357 5
  18427168.948    -8459462.460 7  -6520035.844 8
  19659596.761   -16340810.490 6 -12436036.803 5
 95 10 22  3 13 29.9910000  0  6 28 18 29 27 19 31
  20484485.815   -11162173.313 5  -8538087.193 5
  17400855.433   -35942544.454 7 -27824786.687 7
  18362140.417   -19910900.214 7 -15445203.231 8
  20235166.323   -15351824.316 6 -11869922.158 5
  18413127.753    -8533247.632 7  -6577530.771 8
  19639602.753   -16445873.685 6 -12517904.223 5
 95 10 22  3 13 59.9900000  0  6 28 18 29 27 19 31
  20476043.631   -11206508.875 5  -8572634.372 6
  17393729.295   -35979999.928 7 -27853972.774 7
  18364154.373   -19900317.411 7 -15436956.907 8
  20214527.951   -15460261.308 6 -11954418.502 6
  18399118.889    -8606852.433 7  -6634885.155 8
  19619686.225   -16550538.616 6 -12599461.308 6
 95 10 22  3 14 29.9900000  0  7  2 28 18 29 27 19 31
  22050642.592     -134696.783 4
  20467705.553   -11250310.832 5  -8606765.761 6
  17386695.279   -36016960.578 7 -27882773.290 7
  18366246.303   -19889312.982 7 -15428382.036 8
  20193914.436   -15568593.002 6 -12038832.801 6
  18385148.764    -8680285.860 7  -6692106.005 8
  19599840.482   -16654822.315 6 -12680721.322 6
 95 10 22  3 14 59.9900000  0  7  2 28 18 29 27 19 31
  22025025.983     -269282.943 4        -0.06411
  20459472.709   -11293574.770 5  -8640477.914 6
  17379754.834   -36053428.069 7 -27911189.520 7
  18368421.576   -19877887.838 7 -15419479.337 8
  20173320.334   -15676823.472 6 -12123168.225 6
  18371210.350    -8753529.748 7  -6749179.154 8
  19580071.397   -16758714.588 6 -12761676.319 6
 95 10 22  3 15 29.9900000  0  7  2 28 18 29 27 19 31
  21999443.084     -403743.825 4   -104774.720 2
  20451337.756   -11336296.884 5  -8673767.865 6
  17372906.076   -36089426.525 7 -27939240.267 7
  18370676.772   -19866038.686 7 -15410246.246 8
  20152742.350   -15784960.947 6 -12207431.180 6
  18357309.787    -8826580.248 7  -6806101.620 8
  19560377.232   -16862203.176 6 -12842316.760 6
 95 10 22  3 15 59.9900000  0  7  2 28 18 29 27 19 31
  21973883.897     -538074.421 4   -209447.859 2
  20443314.529   -11378478.990 5  -8706637.020 6
  17366142.748   -36124966.911 7 -27966934.084 7
  18373012.084   -19853769.533 7 -15400685.881 8
  20132176.967   -15893027.724 6 -12291639.045 6
  18343444.201    -8899438.619 7  -6862874.373 8
  19540760.545   -16965289.530 6 -12922643.781 6
 95 10 22  3 16 29.9900000  0  7  2 28 18 29 27 19 31
  21948343.350     -672275.374 3   -314019.962 2
  20435394.490   -11420129.354 5  -8739091.846 6
  17359466.350   -36160050.599 7 -27994272.026 7
  18375421.756   -19841092.651 7 -15390807.807 8
  20111619.678   -16001041.316 6 -12375805.468 6
  18329616.459    -8972104.251 7  -6919496.938 8
  19521221.834   -17067981.993 6 -13002663.867 6
 95 10 22  3 16 59.9900000  0  7  2 28 18 29 27 19 31
  21922830.576     -806333.479 4   -418480.820 2
  20427565.443   -11461240.022 5  -8771126.128 6
  17352877.537   -36194678.111 7 -28021254.508 7
  18377914.693   -19827998.526 7 -15380604.608 8
  20091079.131   -16108999.432 6 -12459928.653 6
  18315824.482    -9044574.576 7  -6975967.317 8
  19501755.881   -17170270.438 6 -13082369.131 6
 95 10 22  3 17 29.9900000  0  7  2 28 18 29 27 19 31
  21897349.756     -940243.399 3   -522826.132 1
  20419846.537   -11501803.886 5  -8802734.327 6
  17346375.272   -36228843.447 7 -28047876.854 7
  18380484.975   -19814487.485 7 -15370076.539 8
  20070546.217   -16216890.561 6 -12543999.653 6
  18302073.693    -9116849.020 7  -7032285.063 8
  19482364.436   -17272162.856 6 -13161765.809 6
 95 10 22  3 17 59.9900000  0  7  2 28 18 29 27 19 31
  21871894.858    -1074006.377 3   -627057.015 2
  20412239.912   -11541825.311 5  -8833919.843 5
  17339966.529   -36262525.079 7 -28074122.288 7
  18383132.279   -19800575.782 7 -15359236.267 8
  20050031.686   -16324705.815 6 -12628011.514 6
  18288356.397    -9188933.711 7  -7088454.943 8
  19463051.428   -17373667.379 6 -13240860.228 6
 95 10 22  3 18 29.9900000  0  7  2 28 18 29 27 19 31
  21846470.193    -1207629.607 2
  20404716.350   -11581311.373 5  -8864688.202 6
  17333650.873   -36295708.791 7 -28099979.732 7
  18385857.732   -19786260.023 7 -15348081.148 8
  20029530.600   -16432429.108 6 -12711951.733 6
  18274670.951    -9260847.288 7  -7144491.503 8
  19443808.834   -17474781.405 6 -13319650.364 6
 95 10 22  3 18 59.9900000  0  7  2 28 18 29 27 19 31
  21821065.631    -1341103.789 2        -0.25011
  20397307.326   -11620253.926 5  -8895033.043 5
  17327433.107   -36328387.158 7 -28125443.404 7
  18388661.436   -19771531.945 7 -15336604.740 8
  20009054.326   -16540049.408 6 -12795811.694 5
  18261016.811    -9332591.715 7  -7200396.252 8
  19424640.873   -17575495.267 6 -13398128.687 6
 95 10 22  3 19 29.9900000  0  7  2 28 18 29 27 19 31
  21795697.170    -1474419.712 2   -103882.763 1
  20389995.811   -11658653.500 5  -8924954.780 5
  17321312.522   -36360544.657 7 -28150501.203 7
  18391540.186   -19756398.338 7 -15324812.339 8
  19988594.131   -16647566.524 6 -12879591.240 6
  18247397.404    -9404168.072 7  -7256170.031 8
  19405554.772   -17675798.760 6 -13476287.239 6
 95 10 22  3 19 59.9900000  0  7  2 28 18 29 27 19 31
  21770361.061    -1607589.763 2   -207651.631 2
  20382796.912   -11696516.028 5  -8954458.044 5
  17315293.943   -36392174.162 7 -28175147.581 7
  18394496.568   -19740864.739 7 -15312708.251 8
  19968150.873   -16754986.022 6 -12963294.737 6
  18233809.553    -9475579.575 7  -7311815.355 8
  19386550.826   -17775678.849 6 -13554115.868 6
 95 10 22  3 20 29.9900000  0  7  2 28 18 29 27 19 31
  21745043.318    -1740611.825 3   -311305.107 1
  20375700.311   -11733831.794 6  -8983535.261 6
  17309373.897   -36423287.024 7 -28199391.381 7
  18397531.334   -19724914.937 7 -15300279.856 8
  19947726.733   -16862312.687 6 -13046925.890 5
  18220251.475    -9546818.883 7  -7367326.505 8
  19367627.170   -17875123.919 6 -13631605.510 6
 95 10 22  3 20 59.9900000  0  7  2 28 18 29 27 19 31
  21719759.740    -1873487.873 2   -414844.854 1
  20368702.631   -11770597.973 6  -9012184.233 6
  17303548.725   -36453903.287 7 -28223248.220 7
  18400643.295   -19708561.931 7 -15287537.267 8
  19927319.928   -16969559.278 6 -13130494.652 6
  18206727.561    -9617878.715 7  -7422697.796 8
  19348785.967   -17974124.596 6 -13708748.874 6
 95 10 22  3 21 29.9900000  0  7  2 28 18 29 27 19 31
  21694500.717    -2006226.534 3   -518277.529 2
  20361810.443   -11806821.397 5  -9040410.262 6
  17297815.654   -36484024.926 7 -28246719.631 7
  18403829.436   -19691815.945 6 -15274488.462 8
  19906924.904   -17076726.575 6 -13214001.624 6
  18193238.811    -9688768.332 7  -7477936.452 8
  19330033.529   -18072683.835 6 -13785548.276 6
 95 10 22  3 21 59.9900000  0  7  2 28 18 29 27 19 31
  21669267.647    -2138834.939 3   -621608.739 2
  20355011.654   -11842500.324 5  -9068212.015 6
  17292175.256   -36513669.683 7 -28269819.448 7
  18407094.350   -19674664.992 6 -15261124.099 8
  19886545.373   -17183824.155 6 -13297454.275 6
  18179781.248    -9759487.449 7  -7533042.259 8
  19311359.842   -18170806.789 6 -13862007.707 6
 95 10 22  3 22 29.9900000  0  7  2 28 18 29 27 19 31
  21644057.100    -2271304.325 3   -724831.590 4
  20348324.350   -11877629.842 5  -9095585.663 6
  17286623.311   -36542848.381 7 -28292556.103 7
  18410434.490   -19657108.038 6 -15247443.370 8
  19866178.240   -17290851.042 6 -13380851.837 6
  18166357.967    -9830035.756 7  -7588014.960 8
  19292771.193   -18268488.756 6 -13938123.512 6
 95 10 22  3 22 59.9900000  0  7  2 28 18 29 27 19 31
  21618875.639    -2403622.895 3   -827936.937 3
  20341749.482   -11912208.114 5  -9122529.765 5
  17281161.436   -36571551.453 7 -28314922.142 7
  18413854.350   -19639143.382 6 -15233444.956 8
  19845832.100   -17397791.695 6 -13464182.209 6
  18152966.467    -9900407.206 7  -7642849.859 8
  19274266.701   -18365727.200 6 -14013893.715 6
 95 10 22  3 23 29.9900000  0  7  2 28 18 29 27 19 31
  21593727.639    -2535796.277 4   -930929.153 4
  20335280.240   -11946245.318 5  -9149052.256 6
  17275789.326   -36599776.287 7 -28336915.532 7
  18417348.123   -19620781.352 6 -15219136.900 8
  19825493.459   -17504651.413 6 -13547449.517 6
  18139607.233    -9970603.615 7  -7697548.355 8
  19255844.912   -18462550.367 6 -14089340.329 6
 95 10 22  3 23 59.9900000  0  7  2 28 18 29 27 19 31
  21568603.607    -2667814.048 4  -1033800.119 4
  20328903.600   -11979729.568 5  -9175143.872 6
  17270508.592   -36627523.784 7 -28358536.964 7
  18420917.459   -19602020.656 6 -15204518.190 8
  19805176.498   -17611418.171 6 -13630644.386 6
  18126288.428   -10040609.829 7  -7752098.647 8
  19237496.014   -18558953.488 6 -14164459.625 6
 95 10 22  3 24 29.9900000  0  7  2 28 18 29 27 19 31
  21543511.076    -2799678.760 4  -1136551.807 3
  20322638.342   -12012666.076 5  -9200808.670 6
  17265322.803   -36654782.491 7 -28379777.522 7
  18424558.264   -19582882.575 6 -15189605.417 8
  19784879.350   -17718083.347 6 -13713760.101 6
  18113001.701   -10110418.509 7  -7806495.019 8
  19219229.600   -18654943.180 6 -14239256.772 6
 95 10 22  3 24 59.9900000  0  7  2 28 18 29 27 19 31
  21518448.240    -2931386.714 4  -1239181.336 4
  20316474.764   -12045056.180 5  -9226047.715 6
  17260231.428   -36681534.197 7 -28400623.013 7
  18428272.795   -19563366.988 6 -15174398.490 8
  19764603.334   -17824645.107 6 -13796795.240 6
  18099753.897   -10180027.841 7  -7860736.055 8
  19201041.092   -18750523.880 6 -14313735.228 6
 95 10 22  3 25 29.9900000  0  7  2 28 18 29 27 19 31
  21493410.334    -3062947.287 4  -1341696.046 5
  20310415.076   -12076900.402 5  -9250861.394 6
  17255239.147   -36707774.135 7 -28421069.731 7
  18432056.881   -19543483.285 6 -15158904.713 8
  19744344.107   -17931105.193 6 -13879751.142 6
  18086545.467   -10249442.718 7  -7914825.568 8
  19182933.834   -18845692.306 6 -14387892.431 6
 95 10 22  3 25 59.9900000  0  7  2 28 18 29 27 19 31
  21468406.959    -3194352.207 4  -1444089.447 4
  20304453.803   -12108193.666 5  -9275245.742 6
  17250343.279   -36733499.266 7 -28441115.295 7
  18435914.506   -19523211.265 6 -15143108.351 8
  19724104.365   -18037462.828 6 -13962627.219 6
  18073375.678   -10318661.923 7  -7968762.612 8
  19164903.193   -18940424.478 6 -14461709.695 6
 95 10 22  3 26 29.9900000  0  7  2 28 18 29 27 19 31
  21443431.045    -3325606.515 3  -1546365.487 4
  20298602.858   -12138941.636 5  -9299205.196 6
  17245545.436   -36758703.684 7 -28460755.109 7
  18439848.326   -19502543.412 6 -15127003.541 8
  19703883.686   -18143733.816 6 -14045435.771 6
  18060238.287   -10387697.593 7  -8022556.642 8
  19146965.709   -19034703.588 6 -14535173.929 6
 95 10 22  3 26 59.9900000  0  8  2 28 18 29 27 16 19 31
  21418481.795    -3456710.355 3  -1648524.301 3
  20292857.209   -12169147.832 5  -9322742.481 6
  17240846.029   -36783406.630 7 -28480004.165 8
  18443858.053   -19481469.430 6 -15110582.274 8
  19683672.295   -18249934.365 6 -14128189.431 6
  21838166.857          -0.34713
  18047131.795   -10456572.863 7  -8076225.678 8
  19129114.107   -19128512.282 6 -14608271.596 6
 95 10 22  3 27 29.9900000  0  8  2 28 18 29 27 16 19 31
  21393563.342    -3587651.494 3  -1750556.310 2
  20287212.990   -12198800.665 5  -9345848.586 6
  17236240.764   -36807606.553 7 -28498861.250 8
  18447948.225   -19459971.592 6 -15093830.729 8
  19663477.373   -18356072.686 6 -14210894.610 6
  21817289.514     -109687.726 3
  18034056.928   -10525281.725 7  -8129765.049 8
  19111355.553   -19221831.374 6 -14680987.758 6
 95 10 22  3 27 59.9900000  0  8  2 28 18 29 27 16 19 31
  21368678.889    -3718421.666 3  -1852455.115 3
  20281680.342   -12227899.666 5  -9368523.128 6
  17231731.006   -36831305.906 7 -28517328.280 7
  18452120.967   -19438048.278 6 -15076747.639 8
  19643285.256   -18462172.232 6 -14293569.567 6
  21796490.842     -218988.688 3        -0.21012
  18021013.748   -10593828.224 7  -8183177.907 8
  19093695.412   -19314648.044 6 -14753312.419 6
 95 10 22  3 28 29.9900000  0  8  2 28 18 29 27 16 19 31
  21343830.154    -3849009.392 3  -1954211.745 3
  20276251.826   -12256442.829 5  -9390764.554 6
  17227315.553   -36854508.435 7 -28535408.188 7
  18456370.615   -19415714.985 6 -15059345.087 8
  19623103.092   -18568226.799 6 -14376209.480 6
  21775764.342     -327906.607 3    -84871.303 2
  18007999.334   -10662214.424 7  -8236465.854 8
  19076126.803   -19406953.183 6 -14825238.493 6
 95 10 22  3 28 59.9900000  0  8  2 28 18 29 27 16 19 31
  21319018.029    -3979408.982 3  -2055821.764 1
  20270915.709   -12284436.072 5  -9412577.449 6
  17222993.990   -36877221.793 7 -28553106.910 7
  18460696.326   -19392981.650 6 -15041630.818 8
  19602932.881   -18674222.913 6 -14458803.851 6
  21755115.428     -436442.286 3   -169444.559 1
  17995017.553   -10730437.616 7  -8289626.784 8
  19058654.826   -19498780.026 6 -14896791.859 6
 95 10 22  3 29 29.9900000  0  8  2 28 18 29 27 16 19 31
  21294238.170    -4109617.539 3  -2157282.961 2
  20265710.436   -12311876.279 6  -9433959.435 5
  17218766.131   -36899433.705 7 -28570414.901 7
  18465096.022   -19369862.272 6 -15023615.733 8
  19582779.154   -18780134.371 6 -14541332.244 6
  21734536.850     -544579.627 3   -253707.352 2
  17982069.998   -10798471.866 7  -8342640.483 8
  19041269.928   -19590138.204 6 -14967980.047 6
 95 10 22  3 29 59.9900000  0  8  2 28 18 29 27 16 19 31
  21269496.889    -4239642.788 4  -2258601.301 1
  20260583.225   -12338769.447 5  -9454915.156 6
  17214634.623   -36921155.375 7 -28587340.884 7
  18469567.553   -19346369.292 6 -15005309.531 7
  19562643.982   -18885934.732 6 -14623774.075 6
  21714034.209     -652310.518 2   -337653.486 2
  17969157.982   -10866312.996 7  -8395503.700 8
  19023973.607   -19681032.823 6 -15038807.005 6
 95 10 22  3 30 29.9900000  0  8  2 28 18 29 27 16 19 31
  21244786.381    -4369497.737 4  -2359786.972 2
  20255564.178   -12365119.273 5  -9475447.463 5
  17210593.100   -36942392.532 7 -28603889.324 7
  18474109.951   -19322498.342 6 -14986708.801 7
  19542539.537   -18991593.103 6 -14706105.262 6
  21693617.842     -759619.310 2   -421270.714 1
  17956287.264   -10933965.434 7  -8448219.891 8
  19006760.756   -19771472.329 6 -15109279.335 6
 95 10 22  3 30 59.9900000  0  8  2 28 18 29 27 16 19 31
  21220103.451    -4499192.872 4  -2460848.077 2
  20250654.037   -12390918.952 5  -9495551.132 5
  17206644.459   -36963135.140 7 -28620052.394 7
  18478726.889   -19298231.196 6 -14967799.349 7
  19522461.272   -19097107.198 6 -14788324.029 6
  21673277.920     -866492.506 2   -504548.502 2
  17943449.607   -11001426.370 7  -8500786.849 8
  18989638.522   -19861454.783 6 -15179395.521 6
 95 10 22  3 31 29.9900000  0  8  2 28 18 29 27 16 19 31
  21195451.936    -4628748.505 4  -2561800.500 3
  20245846.334   -12416177.101 5  -9515232.777 6
  17202791.951   -36983385.439 7 -28635831.860 7
  18483419.514   -19273573.272 6 -14948585.387 7
  19502402.147   -19202507.730 6 -14870454.305 6
  21653021.506     -972941.867 2   -587496.049 3
  17930644.186   -11068715.836 7  -8553220.198 8
  18972607.795   -19950955.035 6 -15249135.969 6
 95 10 22  3 31 59.9900000  0  8  2 28 18 29 27 16 19 31
  21170827.115    -4758152.867 4  -2662635.058 2
  20241135.498   -12440887.704 5  -9534487.805 6
  17199032.459   -37003140.631 7 -28651225.510 7
  18488190.982   -19248502.570 6 -14929049.796 7
  19482366.443   -19307809.035 6 -14952507.262 6
  21632840.225    -1078973.064 2   -670117.715 2
  17917869.326   -11135848.527 7  -8605531.390 8
  18955671.303   -20039962.485 6 -15318492.406 6
 95 10 22  3 32 29.9900000  0  8  2 28 18 29 27 16 19 31
  21146232.357    -4887395.300 4  -2763343.430 3
  20236559.568   -12465046.490 5  -9553312.834 6
  17195368.678   -37022388.276 7 -28666223.678 7
  18493040.607   -19223014.342 6 -14909188.849 7
  19462342.600   -19413029.107 6 -15034496.919 6
  21612748.537    -1184584.487 3   -752412.293 2
  17905124.568   -11202821.189 7  -8657717.882 8
  18938827.943   -20128473.468 6 -15387461.990 6
 95 10 22  3 32 59.9900000  0  8  2 28 18 29 27 16 19 31
  21121671.943    -5016471.201 4  -2863922.040 3
  20232049.147   -12488663.194 5  -9571715.440 5
  17191802.959   -37041132.026 7 -28680829.203 7
  18497965.811   -19197131.188 6 -14889020.174 7
  19442329.756   -19518200.863 6
  21592723.920          -0.80013
  17892413.709   -11269623.653 7  -8709771.748 8
  18922074.998   -20216502.873 6 -15456056.325 6
 95 10 22  3 33 29.9890000  0  8  2 28 18 29 27 16 19 31
  21097145.321    -5145353.051 5  -2964349.433 2
  20227670.095   -12511733.837 5  -9589692.590 5
  17188332.282   -37059361.659 7 -28695034.117 7
  18502964.634   -19170860.025 6 -14868549.151 7
  19422326.493   -19623306.223 6 -15198349.203 6
  21572781.524     -104791.350 3
  17879739.290   -11336230.884 7  -8761673.487 8
  18905417.431   -20304045.408 6 -15524271.274 6
 95 10 22  3 33 59.9890000  0  8  2 28 18 29 27 16 19 31
  21072657.079    -5274040.199 5  -3064625.104 3
  20223375.860   -12534260.157 5  -9607245.538 6
  17184961.267   -37077088.340 7 -28708847.121 7
  18508037.017   -19144204.109 6 -14847778.324 7
  19402340.517   -19728342.649 6 -15280195.757 6
  21552919.759     -209171.772 3        -0.01112
  17867102.790   -11402633.192 7  -8813415.537 8
  18888846.134   -20391120.834 6 -15592122.251 6
 95 10 22  3 34 29.9890000  0  8  2 28 18 29 27 16 19 31
  21048207.931    -5402527.810 5  -3164745.322 5
  20219198.689   -12556236.743 5  -9624370.157 6
  17181686.235   -37094296.188 7 -28722255.838 7
  18513182.329   -19117170.058 6 -14826712.834 7
  19382367.665   -19833298.809 6 -15361979.770 6
  21533142.751     -313112.642 3    -80992.888 4
  17854508.017   -11468809.380 7  -8864981.396 8
  18872367.970   -20477719.279 6 -15659601.542 6
 95 10 22  3 34 59.9890000  0  8  2 28 18 29 27 16 19 31
  21023790.868    -5530823.644 5  -3264716.111 3
  20215104.189   -12577660.836 5  -9641064.246 6
  17178510.220   -37110985.691 7 -28735260.657 7
  18518400.853   -19089751.033 6 -14805347.376 7
  19362414.485   -19938160.121 6 -15443689.872 6
  21513450.720     -416599.860 4   -161632.248 4
  17841958.267   -11534761.927 7  -8916372.989 8
  18855983.470   -20563830.162 6 -15726700.917 6
 95 10 22  3 35 29.9890000  0  8  2 28 18 29 27 16 19 31
  20999417.134    -5658933.854 5  -3364542.213 4
  20211153.673   -12598527.747 5  -9657324.185 6
  17175432.259   -37127160.722 7 -28747864.580 8
  18523692.360   -19061940.252 6 -14783676.651 7
  19342481.900   -20042907.446 6 -15525311.157 6
  21493849.853     -519616.172 5   -241904.722 3
  17829449.196   -11600498.850 7  -8967596.567 8
  18839695.118   -20649431.270 6 -15793403.066 6
 95 10 22  3 35 59.9890000  0  8  2 28 18 29 27 16 19 31
  20975066.392    -5786875.485 5  -3464236.956 2
  20207287.485   -12618845.785 5  -9673156.416 6
  17172449.665   -37142830.377 7 -28760074.710 8
  18529058.235   -19033751.640 6 -14761711.511 7
  19322564.931   -20147565.105 6 -15606862.568 6
  21474334.735     -622159.923 4   -321808.931 3
  17816977.517   -11666048.459 7  -9018674.182 8
  18823500.329   -20734523.766 6 -15859708.891 6
 95 10 22  3 36 29.9890000  0  8  2 28 18 29 27 16 19 31
  20950752.962    -5914650.603 5  -3563801.984 3
  20203518.642   -12638610.829 5  -9688557.748 6
  17169564.665   -37157995.988 7 -28771892.075 8
  18534491.407   -19005185.002 6 -14739451.808 7
  19302669.579   -20252126.198 6 -15688338.737 6
  21454913.298     -724221.752 5   -401337.621 3
  17804535.399   -11731416.228 7  -9069610.106 8
  18807407.259   -20819094.162 6 -15925607.886 6
 95 10 22  3 36 59.9890000  0  8  2 28 18 29 27 16 19 31
  20926470.392    -6042250.128 5  -3663230.196 5
  20199865.728   -12657828.699 5  -9703532.709 5
  17166769.345   -37172678.551 7 -28783333.042 8
  18539996.165   -18976254.899 6 -14716908.878 7
  19282787.712   -20356590.751 6 -15769739.677 6
  21435575.173     -825836.957 5   -480518.309 3
  17792130.759   -11796615.840 7  -9120414.994 8
  18791414.040   -20903139.364 6 -15991097.645 6
 95 10 22  3 37 29.9890000  0  8  2 28 18 29 27 16 19 31
  20902218.993    -6169660.785 4  -3762511.234 4
  20196312.392   -12676505.779 5  -9718086.270 5
  17164068.485   -37186876.471 7 -28794396.362 7
  18545569.985   -18946977.343 6 -14694095.213 7
  19262924.548   -20460980.778 6 -15851082.544 6
  21416318.189     -927026.984 5   -559367.678 2
  17779751.845   -11861663.723 7  -9171101.659 8
  18775518.712   -20986661.578 6 -16056179.878 6
 95 10 22  3 37 59.9890000  0  8  2 28 18 29 27 16 19 31
  20878023.868    -6296867.271 5  -3861633.146 4
  20192873.782   -12694635.808 6  -9732213.571 6
  17161461.267   -37200578.454 7 -28805073.240 8
  18551210.274   -18917342.078 6 -14671002.812 7
  19243071.681   -20565300.899 6 -15932370.946 6
  21397139.689    -1027801.906 5   -637893.589 1
  17767401.923   -11926562.628 7  -9221672.232 9
  18759724.634   -21069667.331 6 -16120859.666 6
 95 10 22  3 38 29.9890000  0  8  2 28 18 29 27 16 19 31
  20853850.860    -6423865.631 4  -3960592.914 5
  20189520.618   -12712215.408 6  -9745911.955 5
  17158947.407   -37213786.529 7 -28815365.257 8
  18556918.704   -18887341.014 6 -14647625.371 7
  19223237.173   -20669531.015 6 -16013589.213 6
  21378045.079    -1128170.414 5   -716102.804 2
  17755084.564   -11991297.470 7  -9272114.964 9
  18744028.931   -21152145.735 6 -16185128.541 6
 95 10 22  3 38 59.9890000  0  8  2 28 18 29 27 16 19 31
  20829726.048    -6550658.112 5  -4059392.242 5
  20186277.743   -12729249.978 5  -9759185.640 6
  17156531.759   -37226481.931 7 -28825257.785 8
  18562697.970   -18856972.722 6 -14623961.782 7
  19203419.946   -20773675.771 6 -16094740.960 6
  21359014.181    -1228136.229 5   -793998.254 2
  17742794.329   -12055870.870 7  -9322431.902 9
  18728434.704   -21234107.798 6 -16248995.077 6
 95 10 22  3 39 29.9890000  0  8  2 28 18 29 27 16 19 31
  20805626.071    -6677263.295 4  -4158045.634 5
  20183140.915   -12745739.028 6  -9772034.245 5
  17154215.735   -37238653.259 7 -28834741.940 8
  18568548.009   -18826224.641 6 -14600002.255 7
  19183623.118   -20877723.089 6 -16175816.792 6
  21340078.884    -1327666.845 5   -871554.587 2
  17730538.087   -12120282.004 7  -9372622.387 9
  18712935.032   -21315556.079 6 -16312461.252 6
 95 10 22  3 39 59.9890000  0  8  2 28 18 29 27 16 19 31
  20781578.931    -6803688.469 5  -4256558.735 5
  20180097.478   -12761675.842 5  -9784452.518 6
  17152000.189   -37250299.584 7 -28843817.013 8
  18574473.532   -18795078.801 6 -14575732.783 7
  19163845.587   -20981643.559 6 -16256793.775 6
  21321227.618    -1426736.085 5   -948751.382 1
  17718317.298   -12184508.305 7  -9422668.854 8
  18697533.501   -21396485.662 6 -16375523.245 6
 95 10 22  3 40 29.9890000  0  8  2 28 18 29 27 16 19 31
  20757551.032    -6929944.433 5  -4354939.998 5
  20177178.610   -12777073.949 5  -9796451.071 5
  17149879.743   -37261436.026 7 -28852494.768 8
  18580473.962   -18763553.644 6 -14551167.738 7
  19144094.017   -21085442.195 6 -16337675.818 6
  21302462.103    -1525343.645 5  -1025588.441 1
  17706129.767   -12248556.991 7  -9472576.916 9
  18682229.751   -21476897.174 6 -16438181.556 6
 95 10 22  3 40 59.9890000  0  8  2 28 18 29 27 16 19 31
  20733556.532    -7056019.749 5  -4453180.517 4
  20174349.290   -12791931.270 5  -9808028.186 6
  17147858.399   -37272060.714 7 -28860773.752 8
  18586545.704   -18731646.323 6 -14526304.909 7
  19124362.064   -21189129.362 6 -16418471.006 7
  21283787.735    -1623471.549 5  -1102051.777 1
  17693972.204   -12312433.223 7  -9522350.603 9
  18667027.571   -21556796.599 6 -16500440.841 6
 95 10 22  3 41 29.9890000  0  8  2 28 18 29 27 16 19 31
  20709601.392    -7181897.716 5  -4551267.243 3
  20171619.665   -12806238.085 5  -9819176.345 5
  17145931.462   -37282192.348 7 -28868668.539 8
  18592689.142   -18699353.035 6 -14501141.324 7
  19104652.603   -21292708.061 6 -16499181.673 6
  21265207.892    -1721115.657 5  -1178138.100 1
  17681854.321   -12376114.962 7  -9571972.733 8
  18651925.649   -21636165.062 6 -16562286.389 6
 95 10 22  3 41 59.9890000  0  8  2 28 18 29 27 16 19 31
  20685693.720    -7307554.986 5  -4649182.010 4
  20169008.353   -12819989.485 5  -9829891.733 5
  17144095.493   -37291833.195 7 -28876180.896 8
  18598909.657   -18666674.620 6 -14475677.641 7
  19084957.212   -21396197.246 6 -16579822.591 6
  21246719.423    -1818285.923 4  -1253855.173 1
  17669774.884   -12439586.301 7  -9621430.915 8
  18636925.767   -21714992.573 6 -16623710.413 6
 95 10 22  3 42 29.9890000  0  8  2 28 18 29 27 16 19 31
  20661822.423    -7432989.345 5  -4746923.070 4
  20166493.923   -12833199.506 5  -9840185.262 5
  17142352.681   -37300992.113 7 -28883317.722 8
  18605194.478   -18633639.010 6 -14449935.623 7
  19065275.798   -21499627.664 6 -16660417.710 7
  21228313.407    -1915008.883 4  -1329223.744 1
  17657736.923   -12502858.350 7  -9670733.809 9
  18622022.056   -21793302.451 6 -16684731.076 6
 95 10 22  3 42 59.9890000  0  8  2 28 18 29 27 16 19 31
  20637996.728    -7558202.699 5  -4844491.932 4
  20164085.564   -12845865.982 5  -9850055.229 5
  17140703.595   -37309665.807 7 -28890076.452 8
  18611551.509   -18600239.567 6 -14423910.102 7
  19045606.376   -21602990.628 6 -16740960.269 7
  21209992.298    -2011276.981 4  -1404237.813 1
  17645739.532   -12565911.841 7  -9719866.397 9
  18607216.446   -21871096.720 6 -16745349.983 7
 95 10 22  3 43 29.9890000  0  8  2 28 18 29 27 16 19 31
  20614211.892    -7683189.684 5  -4941884.394 3
  20161786.923   -12857984.246 5  -9859498.039 5
  17139146.782   -37317840.115 7 -28896446.054 8
  18617977.837   -18566468.799 6 -14397595.235 7
  19025954.384   -21706266.808 6 -16821435.205 7
  21191759.110    -2107087.544 3  -1478895.398 1
  17633782.314   -12628741.253 7  -9768824.376 8
  18592513.134   -21948365.959 6 -16805559.765 6
 95 10 22  3 43 59.9890000  0  8  2 28 18 29 27 16 19 31
  20590466.110    -7807954.740 5  -5039103.928 4
  20159583.743   -12869559.768 5  -9868517.915 5
  17137690.134   -37325500.948 7 -28902415.543 8
  18624474.212   -18532330.242 6 -14370993.771 7
  19006320.618   -21809442.922 6 -16901832.171 7
  21173614.360    -2202444.565 3  -1553199.591 1
  17621864.673   -12691366.179 7  -9817623.020 8
  18577908.704   -22025118.786 6 -16865367.153 7
 95 10 22  3 44 29.9890000  0  8  2 28 18 29 27 16 19 31
  20566765.876    -7932516.646 5  -5136165.139 4
  20157472.103   -12880596.309 5  -9877117.814 5
  17136328.524   -37332652.918 7 -28907988.516 8
  18631040.493   -18497825.878 6 -14344107.266 7
  18986707.524   -21912507.768 6 -16982142.423 7
  21155555.915    -2297342.523 3  -1627146.038 2
  17609985.454   -12753796.590 7  -9866270.089 9
  18563401.900   -22101356.387 6 -16924773.068 6
 95 10 22  3 44 59.9890000  0  8  2 28 18 29 27 16 19 31
  20543095.353    -8056903.175 5  -5233089.708 4
  20155479.204   -12891100.933 5  -9885303.239 5
  17135063.314   -37339305.433 7 -28913172.296 8
  18637675.751   -18462951.850 6 -14316932.715 6
  18967115.118   -22015466.272 6 -17062369.823 7
  21137579.470    -2391778.824 3  -1700732.770 1
  17598139.595   -12816047.893 7  -9914777.596 8
  18548995.735   -22177058.699 6 -16983761.871 7
 95 10 22  3 45 29.9890000  0  8  2 28 18 29 27 16 19 31
  20519457.884    -8181108.425 5  -5329873.005 5
  20153584.165   -12901063.276 5  -9893066.107 5
  17133894.556   -37345442.132 7 -28917954.150 8
  18644384.095   -18427708.649 6 -14289470.485 6
  18947541.470   -22118328.258 6 -17142522.010 7
  21119706.782    -2485748.006 3  -1773955.525 2
  17586324.790   -12878128.848 7  -9963152.368 8
  18534696.743   -22252203.793 6 -17042316.479 7
 95 10 22  3 45 59.9890000  0  8  2 28 18 29 27 16 19 31
  20495856.853    -8305149.296 5  -5426528.205 4
  20151777.032   -12910485.659 5  -9900408.214 6
  17132824.626   -37351071.175 7 -28922340.431 8
  18651157.587   -18392113.242 6 -14261733.822 6
  18927985.243   -22221101.980 6 -17222605.419 7
  21101906.634    -2579245.911 3  -1846811.055 1
  17574544.532   -12940042.789 7 -10011396.994 8
  18520502.642   -22326785.001 6 -17100431.699 7
 95 10 22  3 46 29.9890000  0  8  2 28 18 29 27 16 19 31
  20472281.860    -8429037.042 5  -5523064.099 4
  20150096.618   -12919374.888 5  -9907334.877 5
  17131848.079   -37356202.286 7 -28926338.706 8
  18657994.368   -18356183.087 6 -14233736.310 6
  18908439.993   -22323804.577 6 -17302633.398 7
  21084215.970    -2672259.038 3  -1919288.782 1
  17562793.892   -13001793.841 7 -10059514.692 9
  18506417.032   -22400809.922 6 -17158113.445 7
 95 10 22  3 46 59.9890000  0  8  2 28 18 29 27 16 19 31
  20448739.517    -8552743.548 5  -5619458.762 5
  20148500.493   -12927724.293 5  -9913840.902 5
  17130966.501   -37360820.784 7 -28929937.540 8
  18664896.110   -18319909.999 6 -14205471.570 6
  18888910.931   -22426429.443 6 -17382600.814 7
  21066600.259    -2764779.823 3  -1991382.910 1
  17551072.314   -13063378.322 7 -10107502.599 9
  18492437.642   -22474273.260 6 -17215357.596 7
 95 10 22  3 47 29.9890000  0  8  2 28 18 29 27 16 19 31
  20425236.923    -8676243.163 5  -5715692.214 4
  20147026.610   -12935541.510 5  -9919932.245 5
  17130185.548   -37364934.970 7 -28933143.410 8
  18671861.173   -18283300.688 6 -14176944.858 6
  18869397.837   -22528978.144 6 -17462508.891 7
  21049090.235    -2856821.872 3  -2063103.987 1
  17539386.767   -13124793.679 7 -10155358.724 9
  18478559.407   -22547195.341 6 -17272179.993 7
 95 10 22  3 47 59.9890000  0  8  2 28 18 29 27 16 19 31
  20401782.845    -8799495.084 5  -5811732.657 5
  20145634.767   -12942809.579 5  -9925595.675 6
  17129499.814   -37368526.898 7 -28935942.332 8
  18678899.267   -18246319.590 6 -14148128.431 6
  18849903.712   -22631412.382 6 -17542327.779 7
  21031666.985    -2948367.404 3  -2134438.141 1
  17527739.618   -13186003.276 7 -10203054.511 8
  18464788.837   -22619559.694 6 -17328567.784 6
 95 10 22  3 48 29.9890000  0  8  2 28 18 29 27 16 19 31
  20378376.884    -8922501.997 5  -5907582.176 5
  20144351.798   -12949551.036 5  -9930848.758 5
  17128914.071   -37371610.181 7 -28938344.898 8
  18686007.532   -18208970.335 6 -14119025.129 6
  18830427.314   -22733758.298 6 -17622077.834 7
  21014325.235    -3039449.258 3  -2205411.005 1
  17516128.204   -13247015.666 7 -10250596.628 8
  18451119.689   -22691389.611 6 -17384539.147 7
 95 10 22  3 48 59.9890000  0  8  2 28 18 29 27 16 19 31
  20355015.923    -9045251.433 5  -6003231.078 3
  20143167.899   -12955760.404 5  -9935687.232 5
  17128425.564   -37374183.849 7 -28940350.367 8
  18693186.689   -18171241.071 6 -14089625.716 6
  18810971.032   -22836002.516 6 -17701748.647 7
  20997088.649    -3130079.455 3  -2276031.971 2
  17504558.407   -13307820.500 7 -10297977.023 9
  18437556.759   -22762659.961 6 -17440074.479 7
 95 10 22  3 49 29.9890000  0  8  2 28 18 29 27 16 19 31
  20331702.978    -9167755.889 5  -6098689.062 5
  20142087.681   -12961431.484 5  -9940106.263 5
  17128032.423   -37376244.754 7 -28941956.275 8
  18700437.024   -18133140.377 6 -14059936.876 6
  18791536.384   -22938131.922 6 -17781329.987 7
  20979932.228    -3220245.622 3  -2346291.301 1
  17493026.274   -13368408.002 7 -10345188.059 8
  18424108.048   -22833352.945 6 -17495159.908 7
 95 10 22  3 49 59.9890000  0  8  2 28 18 29 27 16 19 31
  20308438.439    -9290039.370 5  -6193974.871 5
  20141108.571   -12966562.397 5  -9944104.365 5
  17127738.478   -37377796.917 7 -28943165.766 8
  18707754.360   -18094680.224 6 -14029967.938 6
  18772126.525   -23040133.588 6 -17860811.813 7
  20962866.149    -3309921.506 3  -2416168.607 2
  17481537.587   -13428792.298 7 -10392240.758 9
  18410761.892   -22903464.590 6 -17549792.348 7
 95 10 22  3 50 29.9890000  0  8  2 28 18 29 27 16 19 31
  20285207.423    -9412130.576 5  -6289110.848 5
  20140239.540   -12971167.238 5  -9947692.550 6
  17127530.509   -37378870.698 7 -28944002.487 8
  18715136.915   -18055891.323 6 -13999742.835 7
  18752737.767   -23142030.172 6 -17940211.737 7
  20945893.368    -3399112.723 3  -2485668.255 3
  17470081.165   -13488997.679 7 -10439154.035 8
  18397528.032   -22973008.058 6 -17603982.055 7
 95 10 22  3 50 59.9890000  0  8  2 28 18 29 27 16 19 31
  20262002.931    -9534040.525 5  -6384105.596 5
  20139470.618   -12975253.181 5  -9950876.409 6
  17127414.821   -37379490.103 7 -28944485.151 8
  18722579.259   -18016787.161 6 -13969272.076 6
  18733366.204   -23243816.570 6 -18019525.812 7
  20929017.860    -3487821.055 3  -2554791.652 2
  17458653.665   -13549043.272 7 -10485942.811 8
  18384405.275   -23041975.645 6 -17657723.025 7
 95 10 22  3 51 29.9890000  0  8  2 28 18 29 27 16 19 31
  20238839.806    -9655751.425 5  -6478945.238 5
  20138780.540   -12978810.197 5  -9953648.103 5
  17127386.399   -37379638.348 7
  18730080.025   -17977358.855 6 -13938548.729 6
  18714021.173   -23345479.811 6 -18098743.906 7
  20912228.048    -3576029.452 4  -2623525.466 2
  17447261.446   -13608914.364 7 -10532595.605 8
  18371390.040   -23110372.911 6 -17711019.585 7
 95 10 22  3 51 59.9890000  0  8  2 28 18 29 27 16 19 31
  20215725.821    -9777232.157 5  -6573605.524 5
  20138203.720   -12981829.954 5  -9956001.181 5
  17127449.556   -37379304.596 7
  18737649.024   -17937586.723 6 -13907557.480 6
  18694699.251   -23447021.717 6 -18177867.475 7
  20895540.360    -3663732.629 4  -2691865.624 3
  17435902.571   -13668595.918 7 -10579100.714 8
  18358483.329   -23178201.518 6 -17763873.039 7
 95 10 22  3 52 29.9890000  0  8  2 28 18 29 27 16 19 31
  20192656.587    -9898477.027 5  -6668082.021 5
  20137738.712   -12984322.940 5  -9957943.757 5
  17127604.267   -37378484.616 7 -28943701.686 8
  18745284.173   -17897474.725 6 -13876301.392 6
  18675395.259   -23548464.330 6 -18256913.652 7
  20878939.251    -3750975.981 4  -2759847.442 2
  17424582.220   -13728081.960 7 -10625453.476 9
  18345685.064   -23245461.209 6 -17816283.170 7
 95 10 22  3 52 59.9880000  0  8  2 28 18 29 27 16 19 31
  20169630.934   -10019475.015 5  -6762366.153 5
  20137360.731   -12986286.131 5  -9959473.531 6
  17127857.277   -37377156.894 7 -28942667.104 8
  18752980.785   -17857016.287 6 -13844775.348 6
  18656112.441   -23649788.136 6 -18335867.263 7
  20862426.238    -3837749.773 4  -2827463.384 3
  17413302.191   -13787366.291 7 -10671649.057 8
  18332993.207   -23312154.343 6 -17868251.843 7
 95 10 22  3 53 29.9880000  0  8  2 28 18 29 27 16 19 31
  20146651.512   -10140239.285 5  -6856468.165 5
  20137086.926   -12987725.078 5  -9960594.791 6
  17128212.410   -37375311.084 7 -28941228.821 9
  18760742.184   -17816223.930 6 -13812989.112 6
  18636850.941   -23751016.192 6 -18414746.266 7
  20846001.879    -3924053.426 4  -2894712.989 5
  17402061.668   -13846445.945 7 -10717685.157 9
  18320402.863   -23378313.165 6 -17919804.160 7
 95 10 22  3 53 59.9880000  0  8  2 28 18 29 27 16 19 31
  20123709.574   -10260780.869 5  -6950396.660 5
  20136915.137   -12988642.133 5  -9961309.376 6
  17128658.340   -37372952.008 7 -28939390.585 9
  18768567.941   -17775101.997 6 -13780946.064 6
  18617603.887   -23852153.085 6 -18493554.218 7
  20829665.254    -4009893.486 5  -2961601.355 5
  17390854.715   -13905326.681 7 -10763566.247 8
  18307919.223   -23443925.756 6 -17970930.848 7
 95 10 22  3 54 29.9880000  0  8  2 28 18 29 27 16 19 31
  20100808.129   -10381121.911 5  -7044168.883 5
  20136840.082   -12989041.911 5
  17129205.137   -37370084.676 7 -28937156.308 8
  18776456.770   -17733646.329 6 -13748642.959 6
  18598377.621   -23953191.957 6 -18572285.801 7
  20813421.996    -4095267.509 5  -3028126.579 4
  17379688.488   -13964014.551 7 -10809297.052 8
  18295538.590   -23508984.857 6 -18021626.242 7
 95 10 22  3 54 59.9880000  0  8  2 28 18 29 27 16 19 31
  20077949.863   -10501264.130 5  -7137786.196 5
  20136858.606   -12988918.997 5
  17129846.207   -37366713.933 7 -28934529.760 8
  18784413.277   -17691846.540 6 -13716071.712 6
  18579170.262   -24054122.900 6 -18650933.286 7
  20797274.621    -4180128.820 5  -3094252.284 4
  17368555.395   -14022506.613 7 -10854875.283 8
  18283265.707   -23573484.322 6 -18071885.557 7
 95 10 22  3 55 29.9880000  0  8  2 28 18 29 27 16 19 31
  20055120.520   -10621220.010 5  -7231258.289 5
  20136987.684   -12988278.768 5  -9961026.233 5
  17130581.465   -37362854.457 7 -28931522.387 8
  18792429.723   -17649708.243 6 -13683236.689 6
  18559983.434   -24154962.760 6 -18729509.790 7
  20781221.723    -4264486.822 5  -3159985.786 4
  17357463.543   -14080805.111 7 -10900302.689 8
  18271095.692   -23637419.762 6 -18121705.369 7
 95 10 22  3 55 59.9880000  0  8  2 28 18 29 27 16 19 31
  20032330.660   -10740986.286 5  -7324582.646 5
  20137189.426   -12987115.328 5  -9960119.657 6
  17131407.981   -37358507.387 7 -28928135.067 8
  18800518.668   -17607203.403 6 -13650116.059 6
  18540813.942   -24255692.294 6 -18808000.324 7
  20765265.340    -4348337.117 5  -3225323.682 4
  17346402.934   -14138917.795 7 -10945585.300 8
  18259044.442   -23700763.902 6 -18171064.429 7
 95 10 22  3 56 29.9880000  0  8  2 28 18 29 27 16 19 31
  20009579.496   -10860553.378 5  -7417751.806 5
  20137525.715   -12985432.735 5  -9958808.551 6
  17132327.223   -37353673.972 7 -28924368.777 8
  18808679.082   -17564327.029 6 -13616705.913 6
  18521665.512   -24356312.848 6 -18886405.943 7
  20749408.504    -4431657.534 5  -3290248.692 4
  17335380.832   -14196842.193 7 -10990721.195 8
  18247101.559   -23763516.754 6 -18219962.747 7
 95 10 22  3 56 59.9880000  0  8  2 28 18 29 27 16 19 31
  19986864.684   -10979903.711 5  -7510752.052 5
  20137951.113   -12983235.043 5  -9957096.055 6
  17133340.988   -37348359.203 7 -28920227.406 8
  18816904.582   -17521100.231 6 -13583022.710 6
  18502537.910   -24456835.970 6 -18964735.641 7
  20733655.082    -4514453.749 5  -3354765.221 3
  17324395.285   -14254575.110 7 -11035707.883 8
  18235273.027   -23825682.260 6 -18268403.391 7
 95 10 22  3 57 29.9880000  0  8  2 28 18 29 27 16 19 31
  19964198.027   -11099020.897 5  -7603570.643 5
  20138459.020   -12980518.377 5  -9954979.180 6
  17134445.215   -37342550.608 7 -28915701.240 8
  18825198.348   -17477521.694 6 -13549065.424 6
  18483427.668   -24557256.168 6 -19042985.136 7
  20717993.863    -4596740.111 5  -3418884.466 5
  17313448.527   -14312107.024 7 -11080537.946 8
  18223552.910   -23887261.780 6 -18316387.424 7
 95 10 22  3 57 59.9880000  0  8  2 28 18 29 27 16 19 31
  19941582.895   -11217871.895 5  -7696181.793 5
  20139073.996   -12977275.284 5  -9952452.088 5
  17135648.590   -37336232.040 7 -28910777.686 8
  18833557.801   -17433588.053 6 -13514831.434 6
  18464340.082   -24657565.681 6 -19121148.378 7
  20702435.215    -4678502.932 5  -3482595.756 4
  17302539.356   -14369424.951 7 -11125201.271 8
  18211953.473   -23948231.321 6 -18363896.137 7
 95 10 22  3 58 29.9880000  0  8  2 28 18 29 27 16 19 31
  19919015.981   -11336461.288 5  -7788589.100 5
  20139794.918   -12973521.940 5  -9949527.409 5
  17136943.949   -37329419.084 7 -28905468.896 8
  18841979.293   -17389335.964 6 -13480349.320 6
  18445269.004   -24757789.241 6 -19199244.642 7
  20686971.770    -4759757.452 5  -3545910.978 4
  17291673.770   -14426525.447 7 -11169695.154 8
  18200462.129   -24008613.090 6 -18410946.863 7
 95 10 22  3 58 59.9880000  0  8  2 28 18 29 27 16 19 31
  19896498.465   -11454797.404 5  -7880799.045 5
  20140586.270   -12969261.071 5  -9946207.258 6
  17138332.770   -37322117.794 7 -28899779.590 8
  18850457.082   -17344781.529 6 -13445631.584 6
  18426213.231   -24857925.956 6 -19277273.251 7
  20671607.676    -4840520.348 5  -3608843.089 4
  17280848.504   -14483414.175 7 -11214024.037 8
  18189081.324   -24068419.422 6 -18457549.194 7
 95 10 22  3 59 29.9880000  0  8  2 28 18 29 27 16 19 31
  19874023.770   -11572885.324 5  -7972815.605 5
  20141508.910   -12964484.509 5  -9942485.248 5
  17139817.785   -37314320.294 7 -28893703.627 8
  18858997.910   -17299904.256 6 -13410662.291 6
  18407177.481   -24957959.580 6 -19355221.516 7
  20656332.731    -4920775.847 5  -3671379.852 4
  17270063.223   -14540097.475 7 -11258192.841 8
  18177813.176   -24127634.118 6 -18503690.510 7
 95 10 22  3 59 59.9880000  0  8  2 28 18 29 27 16 19 31
  19851599.410   -11690733.084 5  -8064645.016 5
  20142514.793   -12959195.603 5  -9938364.036 5
  17141392.801   -37306043.362 7 -28887254.083 8
  18867597.918   -17254711.049 6 -13375446.822 6
  18388160.098   -25057890.276 6 -19433089.581 7
  20641159.746    -5000522.339 4  -3733519.978 3
  17259311.965   -14596589.637 7 -11302212.712 8
  18166661.004   -24186245.642 6 -18549361.817 7
 95 10 22  4  0 29.9880000  0  8  2 28 18 29 27 16 19 31
  19829219.473   -11808358.950 5  -8156301.520 5
  20143621.879   -12953398.272 5  -9933846.628 6
  17143055.902   -37297306.955 7 -28880446.500 8
  18876255.801   -17209212.798 6 -13339993.654 6
  18369165.691   -25157708.929 6 -19510870.341 7
  20626079.488    -5079766.523 4  -3795268.673 4
  17248597.231   -14652901.404 7 -11346092.009 8
  18155617.402   -24244274.025 6 -18594578.733 7
 95 10 22  4  0 59.9880000  0  8  2 28 18 29 27 16 19 31
  19806871.848   -11925783.347 5  -8247801.038 5
  20144821.316   -12947109.682 5  -9928946.418 5
  17144801.426   -37288128.005 7 -28873294.080 8
  18884969.981   -17163426.422 6 -13304315.980 6
  18350192.645   -25257420.037 6 -19588567.303 7
  20611095.949    -5158519.208 4  -3856634.389 4
  17237910.574   -14709063.954 7 -11389855.035 8
  18144686.074   -24301723.835 6 -18639344.810 7
 95 10 22  4  1 29.9880000  0  8  2 28 18 29 27 16 19 31
  19784581.317   -12042977.637 5  -8339121.036 5
  20146132.067   -12940308.405 5  -9923646.525 5
  17146650.566   -37278481.208 7 -28865776.903 8
  18893752.199   -17117327.643 6 -13268394.668 6
  18331255.316   -25356998.611 6 -19666160.780 7
  20596214.441    -5236759.024 4  -3917600.264 3
  17227269.191   -14765053.093 7 -11433482.727 8
  18133880.098   -24358556.387 6 -18683629.700 7
 95 10 22  4  1 59.9880000  0  8  2 28 18 29 27 16 19 31
  19762325.426   -12159938.963 5  -8430259.762 5
  20147512.473   -12932995.986 5  -9917948.563 5
  17148576.457   -37268355.300 7 -28857886.626 8
  18902580.988   -17070934.861 6 -13232244.491 6
  18312329.692   -25456449.854 6 -19743655.275 7
  20581422.590    -5314502.835 4  -3978179.894 3
  17216649.574   -14820846.410 7 -11476958.075 8
  18123184.793   -24414770.883 6 -18727433.234 7
 95 10 22  4  2 29.9880000  0  8  2 28 18 29 27 16 19 31
  19740113.356   -12276673.156 5  -8521221.456 5
  20149005.395   -12925177.345 5  -9911856.120 5
  17150600.223   -37257732.381 7 -28849609.036 8
  18911464.215   -17024252.538 6 -13195868.669 6
  18293430.895   -25555770.031 6 -19821047.606 7
  20566721.957    -5391748.206 4  -4038371.097 4
  17206073.090   -14876430.572 7
  18112603.613   -24470380.224 6
 95 10 22  4  2 59.9880000  0  8  2 28 18 29 27 16 19 31
  19717936.926   -12393175.840 5  -8612002.765 5
  20150582.059   -12916861.657 5  -9905376.367 5
  17152717.168   -37246602.137 7 -28840936.137 8
  18920403.465   -16977281.869 6 -13159268.164 6
  18274552.754   -25654971.613 6 -19898347.542 7
  20552119.645    -5468495.781 4  -4098174.418 3
  17195535.910   -14931808.197 7 -11563421.801 8
  18102134.418   -24525381.220 6 -18813623.093 7
 95 10 22  4  3 29.9880000  0  8  2 28 18 29 27 16 19 31
  19695813.715   -12509426.159 5  -8702587.427 5
  20152266.356   -12908035.643 5  -9898498.974 5
  17154929.301   -37234949.937 7 -28831856.534 8
  18929395.606   -16930001.265 6 -13122426.173 6
  18255696.067   -25754045.216 6 -19975547.764 7
  20537606.324    -5544734.892 5  -4157581.523 2
  17185037.598   -14986950.749 7 -11606390.041 8
  18091782.902   -24579771.581 6 -18856005.205 7
 95 10 22  4  3 59.9880000  0  8  2 28 18 29 27 16 19 31
  19673742.590   -12625430.297 5  -8792980.253 5
  20154041.652   -12898709.820 5  -9891232.106 5
  17157244.176   -37222790.815 7 -28822381.915 8
  18938451.426   -16882422.079 6 -13085351.513 6
  18236867.442   -25852991.308 6 -20052648.616 7
  20523195.910    -5620459.524 4  -4216587.746 4
  17174589.277   -15041869.943 7 -11649184.232 8
  18081542.481   -24633574.752 6 -18897929.756 7
 95 10 22  4  4 29.9880000  0  8  2 28 18 29 27 16 19 31
  19651717.535   -12741175.316 5  -8883171.175 5
  20155910.957   -12888882.251 5  -9883574.256 5
  17159649.527   -37210141.710 7 -28812525.485 8
  18947562.879   -16834527.875 6 -13048031.370 6
  18218063.465   -25951796.440 6 -20129639.631 7
  20508892.410    -5695640.482 4  -4275170.318 3
  17164175.684   -15096579.718 7 -11691815.219 8
  18071414.645   -24686790.440 6 -18939396.525 7
 95 10 22  4  4 59.9880000  0  8  2 28 18 29 27 16 19 31
  19629739.910   -12856665.841 5  -8973163.806 5
  20157862.535   -12878561.296 5  -9875531.971 5
  17162141.817   -37197034.626 7 -28802312.203 8
  18956734.652   -16786320.082 6 -13010466.895 6
  18199283.231   -26050484.660 6 -20206539.551 7
  20494681.481    -5770292.379 4  -4333340.659 2
  17153799.301   -15151098.788 7 -11734297.642 8
  18061397.145   -24739426.781 6 -18980411.865 7
 95 10 22  4  5 29.9880000  0  8  2 28 18 29 27 16 19 31
  19607810.926   -12971919.635 5  -9062971.911 5
  20159926.332   -12867749.095 5  -9867106.847 5
  17164727.332   -37183479.110 7 -28791749.449 8
  18965972.442   -16737796.977 6 -12972656.668 6
  18180527.566   -26149062.111 6 -20283353.109 7
  20480578.402    -5844419.010 4  -4391101.667 4
  17143464.301   -15205430.007 7 -11776633.628 8
  18051494.043   -24791490.827 6 -19020981.215 7
 95 10 22  4  5 59.9880000  0  8  2 28 18 29 27 16 19 31
  19585922.457   -13086937.355 5  -9152596.137 5
  20162080.043   -12856444.276 5  -9858297.930 5
  17167390.316   -37169468.231 7 -28780831.933 8
  18975267.738   -16688956.077 6 -12934598.874 6
  18161787.231   -26247539.671 6 -20360088.904 7
  20466572.606    -5918021.520 4  -4448454.300 4
  17133157.199   -15259574.273 7 -11818824.005 8
  18041699.527   -24842966.823 6 -19061092.403 7
 95 10 22  4  6 29.9880000  0  8  2 28 18 29 27 16 19 31
  19564078.918   -13201724.761 5  -9242040.807 5
  20164331.285   -12844646.262 5  -9849104.623 5
  17170145.567   -37154997.441 7 -28769555.962 8
  18984621.754   -16639793.991 6 -12896290.727 5
  18143064.363   -26345930.777 6 -20436757.243 7
  20452666.410    -5991111.209 3  -4505407.224 1
  17122894.051   -15313520.207 7 -11860859.747 8
  18032019.348   -24893847.818 6 -19100739.885 7
 95 10 22  4  6 59.9880000  0  8  2 28 18 29 27 16 19 31
  19542283.762   -13316278.737 6  -9331303.634 5
  20166651.824   -12832353.200 5  -9839525.608 5
  17172991.145   -37140048.939 7 -28757907.789 8
  18994040.895   -16590306.114 6 -12857728.767 6
  18124357.824   -26444242.571 6 -20513363.831 7
  20438851.363    -6063693.830 3  -4561965.126 3
  17112669.926   -15367253.497 7 -11902729.839 8
  18022449.012   -24944134.368 6 -19139924.194 7
 95 10 22  4  7 29.9880000  0  8  2 28 18 29 27 16 19 31
  19520525.317   -13430599.016 5  -9420384.370 5
  20169094.863   -12819570.098 5  -9829564.769 5
  17175930.512   -37124606.093 7 -28745874.420 8
  19003517.402   -16540505.073 6 -12818922.777 5
  18105668.934   -26542454.892 6 -20589892.900 7
  20425138.613    -6135762.237 3  -4618122.328 3
  17102486.668   -15420763.862 7 -11944426.232 8
  18012992.988   -24993814.121 6 -19178635.697 7
 95 10 22  4  7 59.9880000  0  8  2 28 18 29 27 16 19 31
  19498814.402   -13544668.350 5  -9509269.605 5
  20171615.231   -12806298.984 5  -9819223.684 5
  17178955.965   -37108677.931 7 -28733462.929 8
  19013048.176   -16490393.827 6 -12779875.125 6
  18086997.715   -26640546.283 6 -20666327.803 7
  20411522.777    -6207312.751 3  -4673876.001 2
  17092345.785   -15474042.178 7 -11985941.860 8
  18003650.426   -25042880.447 6 -19216869.244 7
 95 10 22  4  8 29.9880000  0  8  2 28 18 29 27 16 19 31
  19477157.238   -13658485.302 5  -9597958.159 5
  20174236.809   -12792538.394 5  -9808501.202 5
  17182078.402   -37092266.645 7 -28720674.972 8
  19022640.184   -16439967.986 6 -12740582.323 6
  18068360.137   -26738484.118 7 -20742643.029 7
  20398003.731    -6278329.370 3  -4729213.678 2
  17082251.035   -15527086.429 7 -12027275.084 8
  17994431.941   -25091327.344 6 -19254620.104 7
 95 10 22  4  8 59.9880000  0  8  2 28 18 29 27 16 19 31
  19455540.145   -13772052.367 5  -9686451.945 5
  20176938.137   -12778295.822 5  -9797403.037 4
  17185295.231   -37075372.359 7 -28707510.568 8
  19032295.871   -16389235.966 6 -12701050.857 5
  18049754.395   -26836261.291 6 -20818833.000 7
  20384595.410    -6348813.257 3  -4784136.173 2
  17072198.637   -15579916.967 7 -12068441.704 8
  17985334.348   -25139139.786 6 -19291876.506 7
 95 10 22  4  9 29.9880000  0  8  2 28 18 29 27 16 19 31
  19433974.199   -13885383.172 5  -9774761.637 5
  20179731.324   -12763575.649 5  -9785932.771 5
  17188597.965   -37058012.363 7 -28693983.308 8
  19042007.082   -16338214.289 6 -12661293.714 5
  18031180.567   -26933869.566 7 -20894891.386 8
  20371279.801    -6418771.498 3  -4838649.083 2
  17062184.293   -15632546.313 7 -12109451.581 8
  17976358.715   -25186316.261 6 -19328637.390 7
 95 10 22  4  9 59.9880000  0  8  2 28 18 29 27 16 19 31
  19412455.590   -13998477.238 5  -9862886.934 5
  20182642.293   -12748372.443 5  -9774086.172 5
  17191987.317   -37040190.213 7 -28680095.997 8
  19051774.996   -16286890.861 6 -12621301.513 5
  18012635.395   -27031320.122 6 -20970826.937 7
  20358064.691    -6488199.733 3  -4892749.094 2
  17052201.426   -15684987.706 7 -12150315.066 8
  17967500.387   -25232859.306 6 -19364904.752 7
 95 10 22  4 10 29.9880000  0  8  2 28 18 29 27 16 19 31
  19390978.254   -14111344.378 6  -9950835.378 6
  20185616.027   -12732687.805 5  -9761864.420 5
  17195465.840   -37021898.654 7 -28665842.888 8
  19061592.535   -16235279.710 6 -12581085.089 6
  17994113.676   -27128637.136 7 -21046658.411 7
  20344953.457    -6557100.719 3  -4946438.185 2
  17042253.277   -15737254.352 7 -12191042.363 8
  17958761.121   -25278774.343 6 -19400682.747 7
 95 10 22  4 10 59.9880000  0  8  2 28 18 29 27 16 19 31
  19369535.152   -14223991.806 5 -10038612.584 5
  20188696.020   -12716538.193 5  -9749280.301 5
  17199032.246   -37003153.919 7 -28651236.611 8
  19071461.449   -16183416.360 6 -12540672.102 5
  17975612.676   -27225855.601 7 -21122413.050 7
  20331934.676    -6625494.283 3  -4999731.871 1
  17032339.731   -15789360.201 7 -12231644.321 8
  17950133.309   -25324101.400 6 -19436002.520 7
 95 10 22  4 11 29.9880000  0  8  2 28 18 29 27 16 19 31
  19348147.129   -14336400.732 6 -10126203.940 5
  20191859.848   -12699910.789 5  -9736323.877 4
  17202686.426   -36983948.738 7 -28636271.547 8
  19081377.902   -16131296.888 6 -12500059.551 6
  17957132.332   -27322972.863 7 -21198088.834 7
  20319021.535    -6693370.029 3  -5052622.089 2
  17022458.941   -15841279.508 7 -12272100.928 8
  17941619.824   -25368845.765 6 -19470868.253 7
 95 10 22  4 11 59.9870000  0  8  2 28 18 29 27 16 19 31
  19326807.179   -14448544.332 6 -10213588.547 5
  20195096.679   -12682800.534 4  -9722991.203 4
  17206432.171   -36964262.502 7 -28620931.636 8
  19091346.171   -16078915.237 6 -12459242.685 5
  17938672.585   -27419991.222 7 -21273687.552 7
  20306199.015    -6760723.426 3  -5105105.257 2
  17012618.655   -15892990.276 7 -12312395.023 8
  17933220.218   -25412990.193 6 -19505266.504 7
 95 10 22  4 12 29.9870000  0  8  2 28 18 29 27 16 19 31
  19305515.905   -14560422.054 5 -10300765.989 5
  20198458.038   -12665218.235 5  -9709290.704 5
  17210272.421   -36944095.658 7 -28605217.217 8
  19101361.952   -16026289.591 6 -12418235.699 5
  17920224.702   -27516919.880 7 -21349216.371 7
  20293483.827    -6827573.489 3  -5157196.214 2
  17002820.007   -15944489.783 7 -12352524.513 8
  17924933.655   -25456534.734 6 -19539197.303 7
 95 10 22  4 12 59.9870000  0  8  2 28 18 29 27 16 19 31
  19284285.499   -14672020.957 6 -10387726.167 6
  20201911.390   -12647166.846 5  -9695224.696 3
  17214201.319   -36923448.914 7 -28589128.861 8
  19111423.085   -15973414.060 5 -12377034.004 5
  17901802.023   -27613739.239 7 -21424660.026 8
  20280856.210    -6893923.698 4  -5208897.662 2
  16993061.624   -15995763.621 7 -12392478.150 8
  17916763.257   -25499467.947 6 -19572651.745 7
 95 10 22  4 13 29.9870000  0  8  2 28 18 29 27 16 19 31
  19263103.187   -14783344.511 6 -10474471.653 6
  20205425.273   -12628642.532 5  -9680790.025 5
  17218223.187   -36902326.979 7 -28572670.093 8
  19121537.101   -15920272.058 5 -12335624.541 5
  17883404.976   -27710432.109 6 -21500004.987 7
  20268326.976    -6959764.310 3  -5260201.924 2
  16983354.234   -16046798.892 7 -12432245.769 8
  17908717.023   -25541760.476 6 -19605606.834 7
 95 10 22  4 13 59.9870000  0  8  2 28 18 29 27 16 19 31
  19241967.726   -14894389.430 6 -10561000.191 6
  20209043.194   -12609647.822 5  -9665988.996 5
  17222330.624   -36880740.641 7 -28555849.622 8
  19131701.765   -15866859.155 5 -12294004.151 5
  17865032.437   -27806976.843 7 -21575234.681 8
  20255903.718    -7025078.059 3  -5311095.778 1
  16973687.241   -16097597.306 7 -12471828.984 8
  17900792.507   -25583410.139 6 -19638061.139 7
 95 10 22  4 14 29.9870000  0  8  2 28 18 29 27 16 19 31
  19220891.554   -15005175.438 6 -10647326.945 5
  20212741.374   -12590189.479 5  -9650826.651 5
  17226521.476   -36858714.909 7 -28538686.738 8
  19141919.319   -15813178.767 5 -12252175.310 5
  17846688.944   -27903364.054 6 -21650341.601 7
  20243574.327    -7089857.504 4  -5361573.293 3
  16964063.226   -16148169.872 7 -12511236.194 8
  17892983.046   -25624434.761 6 -19670028.382 7
 95 10 22  4 14 59.9870000  0  8  2 28 18 29 27 16 19 31
  19199846.187   -15115725.596 6 -10733470.037 6
  20216532.734   -12570272.319 5  -9635306.910 5
  17230786.280   -36836270.482 7 -28521197.703 8
  19152176.319   -15759223.220 5 -12210132.163 5
  17828369.960   -27999600.269 7 -21725330.977 7
  20231341.710    -7154095.508 4  -5411629.016 2
  16954473.155   -16198524.404 7 -12550473.615 8
  17885288.218   -25664859.871 6 -19701528.582 7
 95 10 22  4 15 29.9870000  0  8  2 28 18 29 27 16 19 31
  19178849.585   -15226042.386 6 -10819431.134 6
  20220406.523   -12549893.899 5  -9619427.583 5
  17235138.819   -36813400.897 7 -28503377.241 8
  19162497.952   -15704985.417 5 -12167868.915 5
  17810087.038   -28095689.728 7 -21800205.847 8
  20219232.960    -7217779.681 4  -5461253.016 3
  16944932.968   -16248666.915 7 -12589545.665 8
  17877707.905   -25704684.138 6 -19732560.445 7
 95 10 22  4 15 59.9870000  0  8  2 28 18 29 27 16 19 31
  19157904.554   -15336110.179 5 -10905198.236 6
  20224373.132   -12529058.340 5  -9603192.096 5
  17239574.413   -36790091.880 7 -28485214.386 8
  19172872.874   -15650460.483 5 -12125381.973 5
  17791825.726   -28191643.520 7 -21874975.030 8
  20207211.187    -7280919.231 4  -5510452.673 3
  16935428.077   -16298603.240 7 -12628457.097 8
  17870240.554   -25743918.675 6 -19763132.808 7
 95 10 22  4 16 29.9870000  0  8  2 28 18 29 27 16 19 31
  19137012.546   -15445937.625 6 -10990778.038 6
  20228420.499   -12507764.812 5  -9586599.732 5
  17244095.812   -36766328.630 7 -28466697.582 8
  19183308.733   -15595637.784 5 -12082663.004 5
  17773590.687   -28287474.201 7 -21949648.288 8
  20195297.577    -7343524.688 4  -5559236.159 2
  16925965.194   -16348332.015 7 -12667206.793 8
  17862889.788   -25782558.377 6 -19793241.664 7
 95 10 22  4 16 59.9870000  0  8  2 28 18 29 27 16 19 31
  19116156.874   -15555515.760 5 -11076163.588 6
  20232563.515   -12486019.334 5  -9569655.206 5
  17248707.335   -36742094.568 7 -28447813.916 8
  19193796.452   -15540528.947 5 -12039721.075 5
  17755377.437   -28383186.416 7 -22024229.236 8
  20183483.249    -7405599.045 4  -5607605.788 3
  16916542.304   -16397853.588 7 -12705795.031 8
  17855650.390   -25820602.313 6 -19822886.282 7
 95 10 22  4 17 29.9870000  0  8  2 28 18 29 27 16 19 31
  19095351.093   -15664835.743 6 -11161347.982 6
  20236782.858   -12463824.644 5  -9552360.640 5
  17253409.382   -36717382.957 7 -28428558.125 8
  19204335.757   -15485145.544 5 -11996565.193 5
  17737189.382   -28478767.700 7 -22098708.159 8
  20171771.999    -7467151.022 5  -5655568.361 4
  16907157.515   -16447165.903 7 -12744220.203 8
  17848529.866   -25858026.463 6 -19852047.946 7
 95 10 22  4 17 59.9870000  0  8  2 28 18 29 27 16 19 31
  19074598.366   -15773898.631 6 -11246332.029 6
  20241091.015   -12441175.884 5  -9534712.257 5
  17258201.429   -36692199.667 7 -28408934.792 8
  19214923.421   -15429490.107 5 -11953197.339 5
  17719028.405   -28574201.762 7 -22173072.353 8
  20160161.179    -7528176.662 5  -5703120.826 3
  16897814.468   -16496264.862 7 -12782479.146 8
  17841525.984   -25894826.956 6 -19880723.651 7
 95 10 22  4 18 29.9870000  0  8  2 28 18 29 27 16 19 31
  19053885.546   -15882732.396 6 -11331137.549 6
  20245485.601   -12418080.852 5  -9516716.123 5
  17263080.530   -36666561.551 7 -28388957.058 8
  19225564.226   -15373583.766 5 -11909633.967 5
  17700895.468   -28669489.022 7 -22247322.167 8
  20148642.030    -7588681.727 5  -5750267.658 2
  16888512.265   -16545157.588 7 -12820577.372 8
  17834639.937   -25931008.079 6 -19908916.734 7
 95 10 22  4 18 59.9870000  0  8  2 28 18 29 27 16 19 31
  19033224.898   -15991326.973 6 -11415756.691 6
  20249968.523   -12394533.239 5  -9498367.342 5
  17268045.515   -36640472.739 7 -28368628.124 8
  19236249.007   -15317429.856 5 -11865877.698 5
  17682790.999   -28764622.229 7 -22321451.941 8
  20137236.374    -7648658.014 5  -5797002.410 1
  16879249.921   -16593825.851 7 -12858500.698 8
  17827875.030   -25966562.438 6 -19936621.419 7
 95 10 22  4 19 29.9870000  0  8  2 28 18 29 27 16 19 31
  19012596.218   -16099703.224 6 -11500205.700 6
  20254528.069   -12370546.323 5  -9479676.237 5
  17273089.984   -36613961.233 7 -28347969.830 8
  19246978.718   -15261035.314 5 -11821933.921 5
  17664715.835   -28859620.791 7 -22395476.785 8
  20125922.679    -7708127.195 5  -5843342.054 3
  16870033.015   -16642272.334 7 -12896251.200 8
  17821224.819   -26001499.666 6 -19963845.234 7
 95 10 22  4 19 59.9870000  0  8  2 28 18 29 27 16 19 31
  18992016.773   -16207847.138 6 -11584473.678 6
  20259179.491   -12346117.412 5  -9460640.722 5
  17278214.687   -36587023.181 7 -28326979.150 8
  19257760.171   -15204391.461 5 -11777795.865 5
  17646660.226   -28954498.015 7 -22469407.086 8
  20114703.468    -7767070.798 5  -5889272.140 2
  16860856.413   -16690491.827 7 -12933824.832 8
  17814691.116   -26035829.741 6 -19990595.939 7
 95 10 22  4 20 29.9870000  0  8  2 28 18 29 27 16 19 31
  18971489.851   -16315733.610 6 -11668541.051 6
  20263910.398   -12321242.794 5  -9441257.894 5
  17283424.499   -36559654.281 7 -28305652.746 8
  19268581.437   -15147498.650 5 -11733463.819 5
  17628629.038   -29049248.574 7 -22543238.695 8
  20103585.710    -7825474.905 5  -5934781.833 2
  16851725.413   -16738466.371 7 -12971207.598 8
  17808279.280   -26069538.203 6 -20016862.268 7
 95 10 22  4 20 59.9870000  0  8  2 28 18 29 27 16 19 31
  18951012.593   -16423349.351 6 -11752397.456 6
  20268731.327   -12295927.678 5  -9421531.830 5
  17288713.085   -36531862.769 7 -28283997.035 8
  19279454.999   -15090359.682 5 -11688939.967 5
  17610622.499   -29143875.707 7 -22616974.125 8
  20092575.655    -7883334.126 5  -5979866.968 4
  16842643.710   -16786203.368 7 -13008405.259 8
  17801983.359   -26102613.532 6 -20042635.241 7
 95 10 22  4 21 29.9870000  0  8  2 28 18 29 27 16 19 31
  18930586.218   -16530677.897 6 -11836030.078 6
  20273632.257   -12270172.080 5  -9401462.532 5
  17294083.413   -36503638.526 7 -28262004.124 8
  19290375.429   -15032977.269 5 -11644226.406 5
  17592640.702   -29238371.860 7 -22690607.480 8
  20081672.085    -7940644.591 5  -6024524.462 2
  16833598.726   -16833723.438 7 -13045433.887 8
  17795812.202   -26135054.548 6 -20067913.951 7
 95 10 22  4 21 59.9870000  0  8  2 28 18 29 27 16 19 31
  18910221.413   -16637718.301 6 -11919438.179 6
  20278614.991   -12243978.429 5  -9381051.902 5
  17299537.554   -36474982.047 7 -28239674.411 8
  19301343.062   -14975354.730 5 -11599325.740 5
  17574685.366   -29332723.366 7 -22764128.130 8
  20070870.382    -7997407.136 5  -6068755.029 3
  16824594.288   -16881046.892 7 -13082309.308 8
  17789760.554   -26166865.673 6 -20092701.836 7
 95 10 22  4 22 29.9870000  0  8  2 28 18 29 27 16 19 31
  18889902.554   -16744480.455 6 -12002629.452 6
  20283679.898   -12217354.123 5  -9360305.688 5
  17305072.585   -36445895.302 7 -28217009.427 8
  19312353.452   -14917497.258 5 -11554242.015 5
  17556759.085   -29426929.974 7 -22837535.878 8
  20060167.257    -8053643.916 5  -6112575.917 2
  16815627.210   -16928171.411 7 -13119029.709 8
  17783823.773   -26198049.930 6 -20117001.256 7
 95 10 22  4 22 59.9870000  0  8  2 28 18 29 27 16 19 31
  18869637.234   -16850973.533 6 -12085611.062 6
  20288833.187   -12190299.480 5  -9339224.159 5
  17310690.851   -36416368.295 7 -28194001.383 8
  19323409.507   -14859400.089 5 -11508971.512 5
  17538855.671   -29521009.226 7 -22910844.390 8
  20049563.921    -8109363.917 5  -6155994.094 4
  16806696.218   -16975097.284 7 -13155595.325 8
  17778008.796   -26228616.866 6 -20140819.648 7
 95 10 22  4 23 29.9870000  0  8  2 28 18 29 27 16 19 31
  18849424.171   -16957202.779 6 -12168387.081 6
  20294058.999   -12162815.636 5  -9317808.171 5
  17316395.515   -36386393.808 7 -28170644.653 8
  19334512.616   -14801063.298 5 -11463514.288 5
  17520980.499   -29614950.406 7 -22984045.307 8
  20039060.398    -8164571.832 5  -6199013.262 5
  16797805.749   -17021817.138 7 -13192000.413 8
  17772303.507   -26258593.048 6 -20164177.709 7
 95 10 22  4 23 59.9870000  0  8  2 28 18 29 27 16 19 31
  18829258.351   -17063175.706 6 -12250963.371 6
  20299371.624   -12134904.868 5  -9296059.524 5
  17322183.632   -36355973.838 7 -28146940.795 8
  19345659.726   -14742481.819 5 -11417866.404 5
  17503129.085   -29708751.066 7 -23057136.726 8
  20028649.593    -8219263.054 5  -6241629.805 3
  16788960.210   -17068306.353 7 -13228225.773 8
  17766713.851   -26287970.593 6 -20187069.291 7
 95 10 22  4 24 29.9870000  0  8  2 28 18 29 27 16 19 31
  18809141.280   -17168886.499 6 -12333335.412 6
  20304765.804   -12106564.266 5  -9273975.925 5
  17328058.773   -36325104.480 7 -28122886.760 8
  19356846.960   -14683662.581 5 -11372033.254 5
  17485307.327   -29802406.421 7 -23130114.935 8
  20018342.304    -8273428.096 5  -6283836.339 4
  16780161.905   -17114540.282 7 -13264252.206 8
  17761237.866   -26316732.429 6 -20209481.106 7
 95 10 22  4 24 59.9870000  0  8  2 28 18 29 27 16 19 31
  18789070.929   -17274355.719 6 -12415519.195 6
  20310241.249   -12077807.219 5  -9251567.843 5
  17334015.366   -36293803.653 7 -28098496.524 8
  19368085.968   -14624628.684 5 -11326032.828 5
  17467516.374   -29895902.598 7 -23202969.090 8
  20008139.726    -8327076.708 5  -6325640.469 3
  16771406.476   -17160543.833 7 -13300099.135 8
  17755880.718   -26344890.753 6 -20231422.657 7
 95 10 22  4 25 29.9870000  0  8  2 28 18 29 27 16 19 31
  18769049.960   -17379574.154 6 -12497507.569 6
  20315789.546   -12048629.945 3  -9228832.315 5
  17340052.749   -36262073.066 7 -28073771.402 8
  19379358.374   -14565376.273 5 -11279862.138 5
  17449761.546   -29989203.533 7 -23275671.112 8
  19998028.304    -8380204.360 5  -6367038.656 2
  16762697.905   -17206310.018 7 -13335761.099 8
  17750641.898   -26372431.723 6 -20252883.148 7
 95 10 22  4 25 59.9870000  0  8  2 28 18 29 27 16 19 31
  18749078.046   -17484532.401 6 -12579293.195 6
  20321421.944   -12019029.944 4  -9205767.374 4
  17346171.241   -36229922.614 7 -28048719.116 8
  19390682.444   -14505896.156 5 -11233514.023 5
  17432043.741   -30082309.959 7 -23348221.578 8
  19988016.359    -8432810.898 5  -6408030.770 4
  16754035.585   -17251833.460 7 -13371233.909 8
  17745523.515   -26399329.301 6 -20273842.300 7
 95 10 22  4 26 29.9870000  0  8  2 28 18 29 27 16 19 31
  18729152.530   -17589232.236 6 -12660877.465 6
  20327137.398   -11989010.073 4  -9182375.270 4
  17352366.898   -36197360.417 7 -28023345.991 8
  19402034.929   -14446189.011 5 -11186989.001 5
  17414363.710   -30175224.618 7 -23420622.614 8
  19978101.179    -8484904.616 5  -6448623.282 5
  16745418.640   -17297125.057 7 -13406526.067 8
  17740522.694   -26425592.093 6 -20294306.809 7
 95 10 22  4 26 59.9870000  0  8  2 28 18 29 27 16 19 31
  18709276.429   -17693666.346 6 -12742254.675 6
  20332918.265   -11958577.640 3  -9158661.682 4
  17358641.632   -36164388.189 7 -27997653.360 8
  19413444.476   -14386248.243 5 -11140281.924 5
  17396715.366   -30267966.241 7 -23492888.809 8
  19968287.554    -8536476.013 5  -6488808.784 4
  16736839.413   -17342199.144 7 -13441648.737 8
  17735644.062   -26451244.719 6 -20314295.862 7
 95 10 22  4 27 29.9870000  0  8  2 28 18 29 27 16 19 31
  18689459.226   -17797830.808 6 -12823421.776 6
  20338793.296   -11927733.995 4  -9134627.684 2
  17364993.398   -36131012.008 7 -27971645.962 8
  19424900.523   -14326066.188 5 -11093386.828 5
  17379094.374   -30360562.490 7 -23565041.730 8
  19958572.749    -8587515.941 5  -6528580.177 4
  16728306.843   -17387041.399 7 -13476590.748 8
  17730878.890   -26476290.962 6 -20333812.413 7
 95 10 22  4 27 59.9870000  0  8  2 28 18 29 27 16 19 31
  18669685.585   -17901718.158 6 -12904372.939 6
  20344743.171   -11896470.394 3  -9110266.416 4
  17371422.241   -36097218.719 7 -27945313.546 8
  19436395.218   -14265638.781 5 -11046300.573 5
  17361498.280   -30453028.965 7 -23637093.526 8
  19948967.046    -8638001.816 5  -6567919.827 5
  16719818.148   -17431647.055 7 -13511348.402 8
  17726230.452   -26500721.772 6 -20352849.408 7
 95 10 22  4 28 29.9870000  0  8  2 28 18 29 27 16 19 31
  18649967.140   -18005339.981 6 -12985117.200 6
  20350770.171   -11864796.286 4  -9085585.320 2
  17377934.827   -36063001.954 7 -27918651.147 8
  19447939.890   -14204983.367 5 -10999036.632 5
  17343927.093   -30545378.373 7 -23709054.109 8
  19939468.554    -8687932.333 5  -6606826.739 2
  16711373.913   -17476031.385 7 -13545933.594 8
  17721691.819   -26524550.973 6 -20371417.611 7
 95 10 22  4 28 59.9870000  0  8  2 28 18 29 27 16 19 31
  18630299.944   -18108703.078 6 -13065659.855 6
  20356873.562   -11832717.704 4  -9060589.003 2
  17384525.046   -36028370.783 7 -27891665.838 8
  19459523.944   -14144115.277 5 -10951606.974 5
  17326374.312   -30637612.932 7 -23780925.196 8
  19930067.984    -8737307.422 5  -6645300.835 4
  16702966.507   -17520197.695 7 -13580348.903 8
  17717273.921   -26547779.189 6 -20389517.522 7
 95 10 22  4 29 29.9870000  0  8  2 28 18 29 27 16 19 31
  18610680.241   -18211810.565 6 -13146003.336 6
  20363061.546   -11800228.655 5  -9035272.869 1
  17391193.640   -35993323.819 7 -27864356.537 8
  19471146.304   -14083039.879 5 -10904015.771 5
  17308846.999   -30729713.706 7 -23852692.026 8
  19920774.515    -8786136.258 5  -6683349.289 4
  16694605.976   -17564137.078 7 -13614587.391 8
  17712973.116   -26570379.136 6 -20407127.864 7
 95 10 22  4 29 59.9870000  0  8  2 28 18 29 27 16 19 31
  18591106.429   -18314664.632 6 -13226149.356 6
  20369318.046   -11767342.784 5  -9009647.496 2
  17397942.312   -35957861.342 7 -27836723.450 8
  19482803.843   -14021769.138 5 -10856272.344 5
  17291346.101   -30821677.273 7 -23924351.954 8
  19911585.726    -8834430.234 5  -6720980.975 5
  16686285.077   -17607864.649 7 -13648660.821 8
  17708791.405   -26592355.539 6 -20424252.327 7
 95 10 22  4 30 29.9870000  0  8  2 28 18 29 27 16 19 31
  18571584.187   -18417256.426 6 -13306090.992 6
  20375650.835   -11734059.672 5  -8983712.600 3
  17404767.710   -35921991.067 7 -27808772.608 8
  19494507.648   -13960288.224 5 -10808365.165 5
  17273878.288   -30913479.193 7 -23995885.918 8
  19902501.507    -8882186.337 5  -6758193.534 4
  16678008.241   -17651358.443 7 -13682552.091 8
  17704726.859   -26613708.966 6 -20440891.361 7
 95 10 22  4 30 59.9870000  0  8  2 28 18 29 27 16 19 31
  18552114.007   -18519572.615 6 -13385817.880 6
  20382064.155   -11700368.867 5  -8957460.012 4
  17411671.624   -35885716.330 7 -27780506.592 8
  19506249.366   -13898579.738 5 -10760280.645 5
  17256442.335   -31005099.417 7 -24067278.308 8
  19893519.749    -8929396.439 5  -6794980.630 3
  16669781.796   -17694589.111 7 -13716238.330 8
  17700784.499   -26634431.917 6 -20457039.111 7
 95 10 22  4 31 29.9860000  0  8  2 28 18 29 27 16 19 31
  18532698.268   -18621611.361 6 -13465328.574 6
  20388549.158   -11666281.266 5  -8930898.225 4
  17418649.174   -35849045.418 7 -27751931.869 8
  19518034.893   -13836657.201 5 -10712029.328 5
  17239043.096   -31096539.178 7 -24138530.065 8
  19884635.604    -8976068.439 5  -6831348.442 5
  16661604.455   -17737564.586 7 -13749725.711 8
  17696959.408   -26654531.911 6 -20472701.445 7
 95 10 22  4 31 59.9860000  0  8  2 28 18 29 27 16 19 31
  18513331.072   -18723371.628 6 -13544622.279 6
  20395111.635   -11631800.856 5  -8904030.374 4
  17425701.424   -35811985.701 7 -27723054.181 8
  19529855.065   -13774510.370 5 -10663603.253 5
  17221675.213   -31187807.690 7 -24209648.388 8
  19875852.166    -9022214.117 5  -6867306.108 4
  16653474.143   -17780290.935 7 -13783018.969 8
  17693250.518   -26674019.492 6 -20487886.566 7
 95 10 22  4 32 29.9860000  0  8  2 28 18 29 27 16 19 31
  18494019.119   -18824850.224 6 -13623696.488 6
  20401747.744   -11596928.079 5  -8876856.780 5
  17432824.025   -35774554.253 7 -27693886.833 8
  19541722.291   -13712153.493 5 -10615013.509 4
  17204340.190   -31278908.328 7 -24280635.894 8
  19867173.338    -9067837.403 5  -6902856.715 4
  16645389.924   -17822775.333 7 -13816123.695 8
  17689658.338   -26692894.096 6 -20502594.055 7
 95 10 22  4 32 59.9860000  0  8  2 28 18 29 27 16 19 31
  18474766.533   -18926047.094 6 -13702551.177 6
  20408458.807   -11561656.843 5  -8849372.692 5
  17440022.963   -35736726.458 7 -27664410.654 8
  19553624.822   -13649603.190 5 -10566273.024 4
  17187033.838   -31369847.688 7 -24351497.730 9
  19858587.721    -9112949.546 5  -6938009.062 4
  16637347.197   -17865039.666 7 -13849056.943 8
  17686187.049   -26711142.465 6 -20516813.557 7
 95 10 22  4 33 29.9860000  0  8  2 28 18 29 27 16 19 31
  18455556.221   -19026977.499 6 -13781198.233 6
  20415237.260   -11526002.317 5  -8821589.927 5
  17447297.588   -35698496.679 7 -27634621.231 7
  19565560.377   -13586884.203 5 -10517401.080 5
  17169756.408   -31460648.086 7 -24422251.283 8
  19850098.291    -9157574.902 5  -6972782.073 3
  16629342.166   -17907108.130 7 -13881837.561 8
  17682831.963   -26728771.627 6 -20530550.563 7
 95 10 22  4 33 59.9860000  0  8  2 28 18 29 27 16 19 31
  18436402.830   -19127649.356 6 -13859643.826 6
  20422105.893   -11489968.358 5  -8793511.526 5
  17454650.268   -35659857.568 7 -27604512.847 7
  19577532.377   -13523986.636 5 -10468390.033 4
  17152502.697   -31551308.471 7 -24492895.736 8
  19841699.533    -9201718.456 5  -7007179.650 5
  16621376.354   -17948965.105 7 -13914453.392 8
  17679593.135   -26745793.526 6 -20543814.376 7
 95 10 22  4 34 29.9860000  0  8  2 28 18 29 27 16 19 31
  18417286.182   -19228092.588 6 -13937911.259 6
  20429032.447   -11453564.833 5  -8765145.153 4
  17462080.588   -35620811.453 7 -27574087.327 7
  19589532.658   -13460929.397 5 -10419254.540 4
  17135277.588   -31641829.159 7 -24563431.335 9
  19833384.096    -9245382.014 5  -7041203.218 4
  16613451.705   -17990604.660 7 -13946899.802 8
  17676464.768   -26762228.398 6 -20556620.766 7
 95 10 22  4 34 59.9860000  0  8  2 28 18 29 27 16 19 31
  18398221.854   -19328290.729 6 -14015987.725 6
  20436032.861   -11416770.332 5  -8736474.109 5
  17469597.291   -35581314.647 7 -27543310.598 7
  19601561.893   -13397681.876 5 -10369970.768 4
  17118086.205   -31732165.543 7 -24633823.323 9
  19825179.104    -9288534.163 5  -7074828.277 4
  16605578.885   -18031983.452 7 -13979143.023 8
  17673449.791   -26778058.715 6 -20568956.083 7
 95 10 22  4 35 29.9860000  0  8  2 28 18 29 27 16 19 31
  18379198.221   -19428244.555 6 -14093873.804 6
  20443100.729   -11379604.063 5  -8707513.363 5
  17477191.604   -35541405.871 7 -27512212.867 7
  19613635.760   -13334247.172 5 -10320541.143 5
  17100933.971   -31822307.204 7 -24704063.567 9
  19817063.041    -9331166.368 5  -7108048.198 4
  16597757.088   -18073091.491 7 -14011175.264 8
  17670549.174   -26793307.591 6 -20580838.317 7
 95 10 22  4 35 59.9860000  0  8  2 28 18 29 27 16 19 31
  18360226.455   -19527938.344 6 -14171557.262 6
  20450239.205   -11342066.433 3  -8678263.248 5
  17484861.330   -35501100.110 7 -27480805.795 7
  19625745.236   -13270618.090 5 -10270960.063 5
  17083821.635   -31912233.772 7 -24774136.219 9
  19809054.400    -9373256.717 5  -7140845.868 5
  16589985.752   -18113926.668 7 -14042994.882 8
  17667757.971   -26807977.996 6 -20592269.803 7
 95 10 22  4 36 29.9860000  0  8  2 28 18 29 27 16 19 31
  18341309.111   -19627364.835 6 -14249032.436 6
  20457462.947   -11304152.044 5  -8648719.583 5
  17492605.111   -35460399.296 7 -27449090.894 7
  19637892.869   -13206799.574 5 -10221231.368 4
  17066748.447   -32001949.877 7 -24844044.878 9
  19801154.416    -9414790.120 5  -7173209.575 4
  16582262.916   -18154506.717 7 -14074615.704 8
  17665084.041   -26822042.895 6 -20603229.462 7
 95 10 22  4 36 59.9860000  0  8  2 28 18 29 27 16 19 31
  18322438.611   -19726514.235 6 -14326291.696 6
  20464747.471   -11265869.743 5  -8618889.235 5
  17500422.596   -35419314.350 7 -27417076.663 7
  19650071.190   -13142786.787 5 -10171351.278 4
  17049712.674   -32091477.806 7 -24913806.904 9
  19793353.330    -9455772.865 5  -7205144.197 4
  16574584.283   -18194860.853 7 -14106060.489 8
  17662523.260   -26835495.785 6 -20613712.233 7
 95 10 22  4 37 29.9860000  0  8  2 28 18 29 27 16 19 31
  18303624.627   -19825378.099 6 -14403328.460 6
  20472098.533   -11227221.650 4  -8588773.825 5
  17508312.088   -35377863.964 7 -27384777.675 7
  19662295.971   -13078571.004 5 -10121313.038 4
  17032710.736   -32180831.865 7 -24983433.439 9
  19785662.104    -9496207.537 5
  16566945.065   -18234996.864 7
  17660079.096   -26848334.889 6 -20623716.724 7
 95 10 22  4 37 59.9860000  0  8  2 28 18 29 27 16 19 31
  18284860.604   -19923978.149 6 -14480159.656 6
  20479523.447   -11188206.468 3  -8558372.385 5
  17516271.549   -35336043.617 7 -27352190.405 7
  19674549.338   -13014152.753 5 -10071117.006 3
  17015735.877   -32270034.918 7 -25052942.317 9
  19778067.197    -9536104.321 5
  16559349.072   -18274917.894 7
  17657751.174   -26860563.877 6 -20633245.807 7
 95 10 22  4 38 29.9860000  0  8  2 28 18 29 27 16 19 31
  18266146.744   -20022331.896 6 -14556798.934 6
  20487011.775   -11148829.339 3  -8527688.922 5
  17524299.861   -35293854.434 7 -27319315.734 7
  19686841.900   -12949532.956 5 -10020763.934 4
  16998788.041   -32359094.695 7 -25122339.551 9
  19770576.377    -9575474.894 5  -7298418.512 3
  16551793.588   -18314622.182 7 -14199380.996 8
  17655538.486   -26872183.199 6 -20642299.822 7
 95 10 22  4 38 59.9860000  0  8  2 28 18 29 27 16 19 31
  18247480.947   -20120429.093 6 -14633238.304 6
  20494575.268   -11109095.349 3  -8496727.378 5
  17532396.354   -35251302.861 7 -27286158.675 7
  19699175.361   -12884719.072 5  -9970259.609 4
  16981870.119   -32447995.257 7 -25191612.715 9
  19763182.541    -9614327.414 5  -7328693.204 4
  16544283.775   -18354091.337 7 -14230136.200 8
  17653441.861   -26883218.964 6 -20650899.120 7
 95 10 22  4 39 29.9860000  0  8  2 28 18 29 27 16 19 31
  18228858.049   -20218273.839 6 -14709480.947 6
  20502216.065   -11069000.489 3  -8465484.641 5
  17540561.768   -35208384.164 7 -27252715.553 7
  19711543.565   -12819722.961 5  -9919613.320 4
  16964987.799   -32536716.157 7 -25260745.881 9
  19755880.783    -9652661.973 5  -7358564.308 4
  16536822.893   -18393300.388 7 -14260688.708 8
  17651452.299   -26893667.378 6 -20659040.736 7
 95 10 22  4 39 59.9860000  0  8  2 28 18 29 27 16 19 31
  18210287.830   -20315872.986 6 -14785532.218 6
  20509906.596   -11028553.702 3  -8433967.686 3
  17548800.721   -35165089.072 6 -27218979.128 7
  19723950.385   -12754567.005 5  -9868842.466 4
  16948135.572   -32625262.082 7 -25329742.705 9
  19748690.197    -9690494.145 5  -7388043.936 5
  16529409.369   -18432252.261 7 -14291040.823 8
  17649577.291   -26903522.408 6 -20666719.979 7
 95 10 22  4 40 29.9860000  0  8  2 28 18 29 27 16 19 31
  18191767.400   -20413200.162 6 -14861371.564 6
  20517668.018   -10987757.182 3  -8402178.235 4
  17557113.166   -35121411.593 6 -27184944.747 7
  19736374.127   -12689253.532 4  -9817948.872 2
  16931320.447   -32713631.406 7 -25398601.914 9
  19741585.229    -9727827.357 5  -7417134.759 5
  16522044.229   -18470957.531 7 -14321200.774 8
  17647816.182   -26912775.747 6 -20673930.370 7
 95 10 22  4 40 59.9860000  0  8  2 28 18 29 27 16 19 31
  18173303.947   -20510242.929 6 -14936989.292 6
  20525504.432   -10946605.363 4  -8370111.857 4
  17565498.049   -35077352.371 6 -27150612.898 7
  19748834.111   -12623784.874 4  -9766934.348 3
  16914538.150   -32801821.720 7 -25467321.637 9
  19734577.088    -9764661.269 5  -7445836.538 4
  16514727.885   -18509408.459 7 -14351162.538 8
  17646170.502   -26921419.427 6 -20680665.704 7
 95 10 22  4 41 29.9860000  0  8  2 28 18 29 27 16 19 31
  18154886.869   -20607016.697 6 -15012397.410 6
  20533396.393   -10905106.193 4  -8337774.855 1
  17573953.541   -35032914.809 6 -27115986.244 7
  19761321.236   -12558164.006 3  -9715801.206 3
  16897790.877   -32889840.161 7 -25535907.436 9
  19727654.361    -9800994.679 5  -7474148.293 4
  16507456.775   -18547615.324 7 -14380934.122 8
  17644644.322   -26929444.902 6 -20686919.322 7
 95 10 22  4 41 59.9860000  0  8  2 28 18 29 27 16 19 31
  18136528.619   -20703493.365 6 -15087574.028 6
  20541359.924   -10863250.359 3  -8305159.883 2
  17582482.807   -34988098.273 6 -27081064.288 7
  19773839.440   -12492381.041 4  -9664541.787 3
  16881073.049   -32977678.436 7 -25604352.843 9
  19720848.822    -9836802.945 5  -7502050.858 3
  16500233.658   -18585571.539 7 -14410510.397 8
  17643237.775   -26936849.911 6 -20692689.458 7
 95 10 22  4 42 29.9860000  0  8  2 28 18 29 27 16 19 31
  18118220.799   -20799689.697 6 -15162532.198 6
  20549388.713   -10821052.966 4  -8272278.829 1
  17591078.627   -34942934.385 6 -27045871.661 7
  19786384.783   -12426450.563 3  -9613167.409 2
  16864394.354   -33065333.582 7 -25672655.554 9
  19714138.338    -9872090.957 5  -7529548.015 4
  16493055.221   -18623290.426 7 -14439901.740 8
  17641938.447   -26943662.384 6 -20697997.875 7
 95 10 22  4 42 59.9860000  0  8  2 28 18 29 27 16 19 31
  18099966.385   -20895618.615 6 -15237282.003 6
  20557487.424   -10778517.218 5
  17599738.541   -34897424.477 6 -27010409.413 7
  19798959.471   -12360376.159 3  -9561680.881 2
  16847752.150   -33152785.111 7 -25740799.601 9
  19707513.986    -9906858.624 5  -7556639.708 4
  16485928.393   -18660751.469 7 -14469092.159 8
  17640751.096   -26949884.548 6 -20702846.311 7
 95 10 22  4 43 29.9860000  0  7  2 18 29 27 16 19 31
  18081763.408   -20991276.435 6 -15311820.551 6
  17608465.111   -34851561.719 6 -26974672.214 7
  19811563.760   -12294153.550 4  -9510078.872 2
  16831152.432   -33240023.673 7 -25808777.697 9
  19701002.940    -9941099.632 5  -7583321.033 3
  16478846.838   -18697951.089 7 -14498078.885 8
  17639683.197   -26955522.628 6 -20707239.618 7
 95 10 22  4 43 59.9860000  0  7  2 18 29 27 16 19 31
  18063617.221   -21086649.415 6 -15386137.158 6
  17617259.619   -34805342.076 6 -26938656.923 7
  19824192.752   -12227767.151 4  -9458349.231 2
  16814589.940   -33327051.954 7 -25876591.952 9
  19694586.400    -9974826.478 5  -7609601.703 3
  16471820.619   -18734885.520 7 -14526858.965 8
  17638719.182   -26960573.136 6 -20711175.082 7
 95 10 22  4 44 29.9860000  0  7  2 18 29 27 16 19 31
  18045513.299   -21181759.840 6 -15460249.173 6
  17626121.354   -34758775.666 6 -26902371.427 7
  19836850.986   -12161226.845 3  -9406499.648 2
  16798066.736   -33413889.975 7 -25944257.940 9
  19688255.041   -10008068.617 5  -7635504.684 4
  16464839.932   -18771567.344 7 -14555442.207 8
  17637870.752   -26965040.498 6 -20714656.140 7
 95 10 22  4 44 59.9860000  0  7  2 18 29 27 16 19 31
  18027473.213   -21276579.848 6 -15534134.887 6
  17635052.502   -34711843.679 6 -26865801.060 7
  19849549.877   -12094514.495 3  -9354516.008 2
  16781578.354   -33500530.935 7 -26011770.372 9
  19682024.197   -10040809.132 5  -7661016.782 4
  16457911.260   -18807978.904 7 -14583814.853 8
  17637135.525   -26968899.352 6 -20717663.033 7
 95 10 22  4 45 29.9860000  0  7  2 18 29 27 16 19 31
  18009486.588   -21371102.956 6 -15607789.248 6
  17644051.822   -34664550.773 6 -26828949.457 7
  19862272.229   -12027635.335 3  -9302402.399 3
  16765126.260   -33586984.764 7 -26079136.990 9
  19675886.486   -10073055.952 5  -7686144.207 4
  16451032.432   -18844126.739 7 -14611981.997 8
  17636517.315   -26972154.931 6 -20720199.849 7
 95 10 22  4 45 59.9860000  0  7  2 18 29 27 16 19 31
  17991549.518   -21465354.304 6 -15681231.846 6
  17653113.611   -34616923.253 6 -26791837.123 7
  19875030.729   -11960622.197 3  -9250184.394 2
  16748706.221   -33673273.413 7 -26146374.893 9
  19669839.299   -10104835.011 5  -7710907.115 4
  16444200.877   -18880029.320 7 -14639958.036 8
  17636006.713   -26974826.304 6 -20722281.438 7
 95 10 22  4 46 29.9860000  0  7  2 18 29 27 16 19 31
  17973664.354   -21559334.138 6 -15754462.872 6
  17662242.213   -34568955.596 6 -26754459.749 7
  19887805.627   -11893491.866 3  -9197875.042 1
  16732323.940   -33759375.926 7 -26213467.767 9
  19663880.065   -10136128.950 5  -7735292.015 3
  16437417.377   -18915675.676 7 -14667734.418 8
  17635606.846   -26976916.798 6 -20723910.394 7
 95 10 22  4 46 59.9860000  0  7  2 18 29 27 16 19 31
  17955833.065   -21653053.332 6 -15827490.803 7
  17671438.908   -34520639.629 6 -26716810.957 7
  19900599.775   -11826245.670 3  -9145475.436 2
  16715976.088   -33845279.323 7 -26280405.482 9
  19658027.424   -10166939.891 5  -7759300.530 4
  16430683.775   -18951065.105 7 -14695310.599 8
  17635316.119   -26978441.005 6 -20725098.086 7
 95 10 22  4 47 29.9860000  0  7  2 18 29 27 16 19 31
  17938045.900   -21746516.471 6 -15900319.221 6
  17680699.650   -34471964.494 6 -26678882.295 7
  19913421.885   -11758870.598 3  -9092975.404 2
  16699670.955   -33930969.090 7 -26347176.727 9
  19652250.338   -10197254.617 5  -7782922.430 3
  16424001.080   -18986188.737 7 -14722679.667 8
  17635137.940   -26979391.514 6 -20725838.739 7
 95 10 22  4 47 59.9860000  0  7  2 18 29 27 16 19 31
  17920304.424   -21839743.001 6 -15972963.259 6
  17690026.338   -34422956.125 6 -26640693.975 7
  19926262.955   -11691369.309 3  -9040377.017 2
  16683402.385   -34016456.656 7 -26413790.419 9
  19646588.221   -10227075.348 5  -7806159.378 5
  16417361.432   -19021069.409 7 -14749859.411 8
  17635066.822   -26979771.066 6
 95 10 22  4 48 29.9860000  0  7  2 18 29 27 16 19 31
  17902609.596   -21932725.438 6 -16045417.102 7
  17699419.549   -34373603.630 6 -26602237.498 7
  19939136.197   -11623719.590 3  -8987662.970 3
  16667177.330   -34101732.429 7 -26480239.072 9
  19641005.174   -10256389.752 5  -7829001.790 5
  16410772.760   -19055709.378 7 -14776851.594 8
  17635108.229   -26979566.429 6
 95 10 22  4 48 59.9860000  0  7  2 18 29 27 16 19 31
  17884964.440          -0.88916
  17708874.385          -0.91616
  19952052.705          -0.46614
  16650988.018   -34186797.760 7 -26546523.743 9
  19635525.486          -0.51815
  16404222.729   -19090115.273 7 -14803661.389 8
  17635260.447          -0.40816
 95 10 22  4 49 29.9860000  0  7  2 18 29 27 16 19 31
  17867369.236      -92466.144 6        -0.25017
  17718388.143       50001.526 6        -0.49417
  19964977.580       67966.569 4        -0.09912
  16634836.658   -34271678.336 7 -26612664.453 9
  19630137.510      -28284.728 5
  16397716.463   -19124306.952 7 -14830304.258 8
  17635520.432        1377.536 6        -0.31317
 95 10 22  4 49 59.9860000  0  7  2 18 29 27 16 19 31
  17849831.385     -184649.368 6    -71831.319 7
  17727965.947      100325.681 6     39213.115 6
  19977939.799      136087.046 4     53080.807 2
  16618719.236   -34356368.109 7 -26678656.489 9
  19624861.713      -56046.823 5        -0.38813
  16391253.783   -19158265.155 7 -14856765.195 8
  17635894.307        3344.218 6      1532.167 7
 95 10 22  4 50 29.9860000  0  7  2 18 29 27 16 19 31
  17832346.650     -276541.071 6   -143435.230 7
  17737604.440      150982.888 6     78686.256 6
  19990930.252      204338.114 5    106263.419 3
  16602639.088   -34440867.215 7 -26744499.946 9
  19619677.916      -83282.729 5    -21223.202 3
  16384839.916   -19191977.986 7 -14883034.938 9
  17636374.768        5884.898 6      3511.922 7
 95 10 22  4 50 59.9850000  0  7  2 18 29 27 16 19 31
  17814915.380     -368129.713 6   -214802.985 7
  17747308.083      201973.272 6    118419.003 6
  20003937.880      272707.741 4    159538.453 3
  16586598.146   -34525164.865 7 -26810186.429 9
  19614588.958     -109979.098 5    -42025.576 2
  16378477.411   -19225410.232 7 -14909086.042 8
  17636968.685        9000.378 6      5939.569 7
 95 10 22  4 51 29.9850000  0  7  2 18 29 27 16 19 31
  17797537.317     -459441.624 6   -285955.108 7
  17757075.380      253298.662 6    158412.801 6
  20016972.989      341178.490 4    212892.264 3
  16570594.161   -34609273.435 7 -26875725.578 9
  19609616.052     -136149.055 5    -62417.762 3
  16372170.653   -19258552.200 7 -14934910.959 8
  17637676.458       12689.524 6      8814.231 7
 95 10 22  4 51 59.9850000  0  7  2 18 29 27 16 19 31
  17780214.575     -550495.550 6   -356906.203 7
  17766907.052      304955.475 6    198664.849 6
  20030016.607      409740.156 4    266316.920 2
  16554624.341   -34693183.376 7 -26941109.942 9
  19604723.427     -161819.649 5    -82420.839 4
  16365919.349   -19291404.030 7 -14960509.786 8
  17638482.208       16935.746 6     12122.968 7
 95 10 22  4 52 29.9850000  0  7  2 18 29 27 16 19 31
  17762935.271     -641283.259 6   -427649.852 7
  17776799.747      356951.958 6    239181.571 6
  20043082.700      478401.002 4    319818.867 3
  16538700.067   -34776875.123 7 -27006324.294 9
  19599939.232     -186989.527 5   -102033.747 3
  16359727.357   -19323955.351 7 -14985874.453 8
  17639395.591       21745.656 6     15870.951 7
 95 10 22  4 52 59.9850000  0  7  2 18 29 27 16 19 31
  17745705.380     -731836.840 6   -498211.076 7
  17786755.778      409254.973 6    279937.155 6
  20056162.841      547151.304 3    373390.508 2
  16522814.255   -34860363.015 7 -27071379.792 9
  19595234.778     -211703.262 5   -121291.222 3
  16353584.614   -19356232.143 7 -15011025.204 8
  17640416.560       27095.984 6     20040.043 7
 95 10 22  4 53 29.9850000  0  7  2 18 29 27 16 19 31
  17728531.927                          -0.01216
  17796778.403      461867.901 6    320934.425 6
  20069280.341      616000.489 3    427039.390 2
  16506977.450   -34943640.162 7 -27136270.888 9
  19590620.114                          -0.71515
  16347501.966          -0.37817
  17641549.911       32990.251 6     24633.170 7
 95 10 22  4 53 59.9850000  0  7  2 18 29 27 16 19 31
  17711389.896      -90062.516 6        -0.11617
  17806847.919      514786.313 6    362169.525 6
  20082403.396      684962.185 3    480775.766 2
  16491172.630   -35026704.666 7 -27200996.481 9
  19586081.614                      -23866.956 5
  16341456.958      -31771.442 7        -0.15418
  17642776.560       39427.431 6     29649.138 7
 95 10 22  4 54 29.9850000  0  7  2 18 29 27 16 19 31
  17694306.849     -179857.803 6    -69970.463 7
  17816973.489      568003.321 6    403637.311 6
  20095545.614      754039.239 3    534601.988 2
  16475406.864   -35109558.380 7 -27265557.821 9
  19581632.802      -47290.546 5        -0.38712
  16335459.192      -63284.516 7    -24555.802 8
  17644102.474       46420.994 6     35098.667 7
 95 10 22  4 54 59.9850000  0  7  2 18 29 27 16 19 31
  17677263.317     -269403.796 6   -139746.547 7
  17827158.317      621517.075 6    445336.325 6
  20108720.255      823229.196 3    588516.196 1
  16459678.966   -35192205.227 7 -27329957.963 9
  19577249.388      -70266.876 4    -17904.016 2
  16329509.833      -94550.599 7    -48918.988 8
  17645542.232       53979.560 6     40988.461 7
 95 10 22  4 55 29.9850000  0  7  2 18 29 27 16 19 31
  17660277.302     -358688.292 6   -209318.874 7
  17837402.349      675352.333 6    487285.875 6
  20121907.700      892552.460 3    642534.293 1
  16443990.849   -35274641.504 7 -27394194.025 9
  19572973.325      -92752.399 4    -35425.231 2
  16323608.974     -125555.315 7    -73078.515 8
  17647093.669       62121.295 6     47332.669 7
 95 10 22  4 55 59.9850000  0  7  2 18 29 27 16 19 31
  17643331.732     -447713.548 6   -278689.188 7
  17847707.732      729497.005 6    529476.502 6
  20135123.732      961986.056 3    696638.355 1
  16428342.849   -35356872.900 7 -27458270.440 9
  19568794.630     -114722.832 4    -52545.049 3
  16317760.341     -156293.759 7    -97030.536 8
  17648750.911       70832.613 6     54120.717 7
 95 10 22  4 56 29.9850000  0  7  2 18 29 27 16 19 31
  17626440.466     -536485.751 6   -347862.325 7
  17858070.419      783950.446 6    571907.749 6
  20148345.474     1031513.772 2    750815.825 1
  16412735.067   -35438893.852 7 -27522182.870 9
  19564710.044     -136186.091 4    -69269.695 2
  16311960.224     -186775.596 7   -120782.634 8
  17650517.817       80111.599 6     61351.089 7
 95 10 22  4 56 59.9850000  0  7  2 18 29 27 16 19 31
  17609598.364     -625007.434 6   -416840.249 6
  17868489.192      838711.419 6    614578.619 6
  20161593.857     1101135.820 3    805066.729 1
  16397167.435   -35520701.127 7 -27585928.802 9
  19560713.044     -157152.432 4    -85607.108 2
  16306208.224     -217002.500 7   -144336.063 8
  17652389.333       89948.629 6     69016.303 7
 95 10 22  4 57 29.9850000  0  7  2 18 29 27 16 19 31
  17592801.333     -713253.878 6   -485603.704 7
  17878964.630      893760.746 6    657474.183 6
  20174867.278     1170842.287 3    859383.440 1
  16381641.286   -35602291.042 7 -27649505.361 9
  19556823.880     -177633.997 4   -101566.770 2
  16300508.286     -246963.328 7   -167682.168 8
  17654363.982      100327.318 6     77103.591 7
 95 10 22  4 57 59.9850000  0  7  2 18 29 27 16 19 31
  17576064.575     -801213.179 6   -554143.398 6
  17889496.138      949094.642 6    700591.493 6
  20188139.653     1240628.005 3    913761.931 1
  16366162.716   -35683642.012 7 -27712895.728 9
  19553010.786     -197661.406 4   -117172.597 2
  16294856.442     -276649.698 7   -190814.405 8
  17656441.747      111258.312 6     85621.248 7
 95 10 22  4 58 29.9850000  0  7  2 18 29 27 16 19 31
  17559382.521     -888892.878 6   -622465.233 7
  17900078.177     1004714.708 6    743931.796 6
  20201441.677     1310517.595 3
  16350725.630   -35764747.577 7 -27776094.868 9
  19549278.989     -217236.081 4   -132425.609 1
  16289260.138     -306063.124 7   -213733.960 8
  17658625.255      122739.523 6     94567.651 7
 95 10 22  4 58 59.9850000  0  7  2 18 29 27 16 19 31
  17542752.341     -976281.966 6   -690560.611 7
  17910719.255     1060628.294 6    787500.803 6
  20214762.208     1380512.373 3        -0.28111
  16335340.747   -35845602.073 7 -27839098.382 9
  19545656.302     -236341.965 4   -147313.310 1
  16283717.474     -335192.126 7   -236431.891 8
  17660917.208      134769.229 6    103941.446 7
 95 10 22  4 59 29.9850000  0  7  2 18 29 27 16 19 31
  17526175.669    -1063381.953 6   -758430.713 7
  17921414.005     1116842.062 6    831303.724 6
  20228098.896     1450604.300 3     54616.865 2
  16320002.536   -35926206.067 7 -27901906.690 9
  19542104.935     -254972.061 3   -161830.312 1
  16278228.317     -364035.658 7   -258907.370 8
  17663311.403      147347.835 6    113742.959 7
 95 10 22  4 59 59.9850000  0  7  2 18 29 27 16 19 31
  17509650.591    -1150219.231 6   -826096.111 7
  17932166.942     1173344.478 6    875331.560 6
  20241455.732     1520778.344 4    109297.906 1
  16304708.114   -36006582.625 7 -27964537.775 9
  19538653.224     -273132.091 4   -175981.000 2
  16272788.919     -392621.732 7   -281182.235 8
  17665804.403      160452.581 6    123954.447 7
 95 10 22  5  0 29.9850000  0  6  2 18 27 16 19 31
  17493177.638    -1236791.082 6   -893554.678 7
  17942973.552     1230126.084 6    919576.957 6
  16289454.989   -36086739.339 7 -28026997.555 9
  19535290.778     -290794.019 3   -189743.558 3
  16267398.958     -420944.066 7   -303251.592 8
  17668397.958      174077.284 6    134571.099 7
 95 10 22  5  0 59.9850000  0  7  2  7 18 27 16 19 31
  17476752.622    -1323105.768 6   -960812.862 7
  20042429.989          -0.65813
  17953828.271     1287170.071 6    964026.801 6
  16274237.396   -36166695.447 7 -28089301.021 9
  19532020.302     -307987.099 3   -203140.799 4
  16262059.411     -448998.697 7   -325112.345 8
  17671090.302      188225.373 6    145595.593 7
 95 10 22  5  1 29.9850000  0  7  2  7 18 27 16 19 31
  17460374.591    -1409182.816 6  -1027885.866 7
  20014133.708     -148686.103 3        -0.35612
  17964731.114     1344459.190 6   1008667.659 6
  16259059.294   -36246457.302 7 -28151453.112 9
  19528840.630     -324738.974 4   -216194.229 2
  16256772.099     -476795.470 7   -346772.173 8
  17673878.388      202883.375 6    157017.406 7
 95 10 22  5  1 59.9850000  0  7  2  7 18 27 16 19 31
  17444040.419    -1495011.377 6  -1094765.247 7
  19985851.747     -297335.236 3   -115830.827 4
  17975678.919     1401995.239 6   1053500.934 6
  16243920.927   -36326005.854 7 -28213438.995 9
  19525732.435     -341038.785 4   -228895.377 3
  16251533.560     -504317.343 7   -368217.795 8
  17676770.380      218072.781 6    168853.302 7
 95 10 22  5  2 29.9850000  0  7  2  7 18 27 16 19 31
  17427754.036    -1580601.362 6  -1161458.732 7
  19957569.396     -445961.271 3   -231643.314 3
  17986674.927     1459779.274 6   1098527.435 6
  16228827.708   -36405332.713 7 -28275252.135 9
  19522710.786     -356894.773 4   -241250.731 3
  16246348.935     -531560.376 7   -389446.137 8
  17679762.630      233801.631 6    181109.547 7
 95 10 22  5  2 59.9850000  0  7  2  7 18 27 16 19 31
  17411515.075    -1665936.358 6  -1227953.519 7
  19929287.294     -594566.403 3   -347439.495 2
  17997722.794     1517838.636 6   1143768.478 6
  16213778.638   -36484412.750 7 -28336872.941 9
  19519775.185     -372310.346 3   -253262.871 2
  16241218.232     -558521.573 7   -410454.867 8
  17682861.560      250082.087 6    193795.622 7
 95 10 22  5  3 29.9850000  0  7  2  7 18 27 16 19 31
  17395325.857    -1751004.982 6  -1294240.740 7
  19901010.130     -743155.926 4   -463223.543 3
  18008827.989     1576181.641 6   1189230.553 6
  16198779.646   -36563234.924 7 -28398292.817 9
  19516940.833     -387263.673 4   -264914.835 1
  16236140.005     -585215.330 7   -431255.205 8
  17686059.083      266900.358 6    206900.771 7
 95 10 22  5  3 59.9850000  0  7  2  7 18 27 16 19 31
  17379191.950    -1835783.293 6  -1360301.754 7
  19872737.974     -891721.356 3   -578988.810 2
  18019982.599     1634820.770 6   1234923.368 6
  16183832.825   -36641777.612 7 -28459494.912 9
  19514181.419     -401727.621 4   -276185.462 2
  16231114.982     -611619.687 7   -451830.028 8
  17689366.317      284272.613 6    220437.590 7
 95 10 22  5  4 29.9850000  0  7  2  7 18 27 16 19 31
  17363111.294    -1920283.703 6  -1426146.205 7
  19844465.872    -1040292.857 4   -694758.772 2
  18031196.911     1693748.722 6   1280841.237 6
  16168937.599   -36720053.233 7 -28520488.900 9
  19511493.802     -415740.790 3   -287104.824 2
  16226143.177     -637749.857 7   -472191.212 8
  17692773.935      302175.407 6    234387.819 7
 95 10 22  5  4 59.9850000  0  7  2  7 18 27 16 19 31
  17347083.896    -2004505.176 6  -1491773.313 7
  19816194.974    -1188864.607 4   -810528.968 2
  18042465.888     1752964.440 6   1326983.336 6
  16154093.505   -36798066.620 7 -28581278.557 9
  19508919.575     -429309.170 3   -297677.630 2
  16221222.567     -663599.170 7   -492333.531 8
  17696281.138      320607.624 6    248750.584 7
 95 10 22  5  5 29.9850000  0  7  2  7 18 27 16 19 31
  17331107.833    -2088466.878 6  -1557198.003 7
  19787923.044    -1337433.722 3   -926297.086 2
  18053783.372     1812445.551 6   1373332.239 6
  16139295.005   -36875833.722 7 -28641876.298 9
  19506447.857     -442429.159 5   -307900.980 2
  16216358.138     -689161.214 7   -512252.011 8
  17699886.325      339555.475 6    263515.141 7
 95 10 22  5  5 59.9850000  0  7  2  7 18 27 16 19 31
  17315175.052    -2172190.256 6  -1622436.982 7
  19759648.817    -1485999.015 3  -1042062.243 2
  18065151.911     1872177.763 6   1419876.810 6
  16124540.903   -36953367.153 7 -28702291.956 9
  19504010.896     -455135.287 3   -317801.890 2
  16211548.130     -714440.033 7   -531949.801 8
  17703592.138      359020.844 6    278682.968 6
 95 10 22  5  6 29.9850000  0  7  2  7 18 27 16 19 31
  17299285.325    -2255678.827 6  -1687492.996 7
  19731381.442    -1634549.388 3  -1157815.760 2
  18076568.700     1932172.454 6   1466625.900 5
  16109828.974   -37030680.867 7 -28762536.414 9
  19501671.692     -467428.933 3   -327381.391 3
  16206792.013     -739438.965 7   -551429.490 8
  17707393.513      379006.284 6    294256.032 7
 95 10 22  5  6 59.9850000  0  7  2  7 18 27 16 19 31
  17283444.724    -2338929.267 6  -1752363.448 7
  19703117.286    -1783067.954 3  -1273544.539 1
  18088032.528     1992424.283 6   1513575.364 6
  16095155.669   -37107787.222 7 -28822619.293 9
  19499430.950     -479282.292 5   -336617.789 3
  16202087.739     -764153.643 7   -570687.690 8
  17711294.474      399502.736 6    310227.298 6
 95 10 22  5  7 29.9850000  0  7  2  7 18 27 16 19 31
  17267651.177    -2421929.117 6  -1817038.642 7
  19674861.732    -1931545.213 3  -1389241.066 2
  18099548.622     2052933.696 6   1560725.545 6
  16080524.497   -37184676.343 7 -28882532.893 9
  19497254.067     -490691.811 4   -345508.333 2
  16197438.075     -788588.542 7   -589727.869 8
  17715290.646      420501.842 6    326590.237 6
 95 10 22  5  7 59.9850000  0  7  2  7 18 27 16 19 31
  17251909.122    -2504661.012 6  -1881505.043 7
  19646622.778    -2079978.175 3  -1504903.122 1
  18111112.052     2113700.691 6   1608076.438 6
  16065933.185   -37261349.499 7 -28942278.205 9
  19495175.286     -501677.592 5   -354068.715 4
  16192839.349     -812757.458 7   -608560.799 8
  17719381.778      441997.276 6    343339.932 6
 95 10 22  5  8 29.9850000  0  7  2  7 18 27 16 19 31
  17236221.583    -2587104.199 6  -1945746.472 7
  19618391.146    -2228345.928 3  -1620514.343 2
  18122726.333     2174725.500 6   1655628.229 6
  16051385.185   -37337794.453 7 -29001845.711 9
  19493156.841     -512212.614 4   -362277.840 2
  16188294.622     -836642.258 7   -627172.337 8
  17723563.192      463982.218 6    360471.051 6
 95 10 22  5  8 59.9850000  0  7  2  7 18 27 16 19 31
  17220589.560    -2669256.462 6  -2009761.210 7
  19590165.224    -2376648.396 3  -1736074.697 2
  18134381.521     2235987.967 6   1703365.199 6
  16036885.341   -37413990.713 7 -29061219.425 9
  19491233.888     -522299.263 4   -370137.571 3
  16183803.052     -860246.369 7   -645565.158 8
  17727838.513      486448.746 6    377977.435 6
 95 10 22  5  9 29.9850000  0  7  2  7 18 27 16 19 31
  17205009.560    -2751129.492 6  -2073558.367 7
  19561953.302    -2524897.805 3  -1851593.688 1
  18146082.786     2297471.410 6   1751274.361 6
  16022435.591   -37489929.856 7 -29120392.783 9
  19489396.325     -531967.240 4   -377671.098 2
  16179363.130     -883580.971 7   -663747.964 8
  17732204.224      509388.683 6    395852.713 6
 95 10 22  5  9 59.9840000  0  7  2  7 18 27 16 19 31
  17189479.274    -2832738.667 6  -2137149.919 7
  19533754.758    -2673096.676 3  -1967073.309 1
  18157819.797     2359165.413 6   1799347.589 5
  16008034.781   -37565611.915 7 -29179365.819 9
  19487638.945     -541218.653 4   -384880.005 3
  16174973.609     -906638.343 7   -681714.753 8
  17736659.977      532801.759 6    414096.671 6
 95 10 22  5 10 29.9840000  0  7  2  7 18 27 16 19 31
  17173995.055    -2914090.927 6  -2200541.279 7
  19505564.024    -2821250.730 3  -2082517.992 2
  18169603.992     2421078.084 6   1847591.205 6
  15993686.969   -37641016.764 7 -29238122.844 9
  19485944.500     -550033.137 3   -391748.445 3
  16170643.992     -929394.029 7   -699446.463 8
  17741208.664      556704.737 6    432722.365 6
 95 10 22  5 10 59.9840000  0  7  2  7 18 27 16 19 31
  17158560.758    -2995196.139 6  -2263740.128 7
  19477377.484    -2969371.453 3  -2197936.738 3
  18181425.399     2483201.812 6   1895999.296 5
  15979390.156   -37716140.367 7 -29296660.723 9
  19484358.484     -558436.771 4   -398296.759 2
  16166369.734     -951855.885 7   -716949.215 8
  17745848.703      581096.025 6    451728.564 7
 95 10 22  5 11 29.9840000  0  7  2  7 18 27 16 19 31
  17143177.203    -3076038.232 6  -2326733.967 7
  19449203.172    -3117427.585 3  -2313305.122 2
  18193292.399     2545559.556 6   1944589.736 5
  15965149.086   -37790977.178 7 -29354975.129 9
  19482849.516     -566412.244 5   -404511.422 4
  16162155.938     -973996.721 7   -734201.810 8
  17750589.531      605996.535 6    471131.563 6
 95 10 22  5 11 59.9840000  0  7  2  7 18 27 16 19 31
  17127844.117    -3156627.138 6  -2389530.500 7
  19421039.242    -3265417.921 3  -2428622.243 2
  18205201.906     2608148.806 6   1993360.568 5
  15950960.742   -37865536.471 7 -29413073.279 9
  19481399.414     -573957.009 4   -410390.491 3
  16158004.633     -995820.010 7   -751206.984 8
  17755423.008      631400.852 6    490927.129 6
 95 10 22  5 12 29.9840000  0  7  2  7 18 27 16 19 31
  17112558.930    -3236954.358 6  -2452123.125 7
  19392893.195    -3413326.293 3  -2543875.521 5
  18217158.586     2670977.371 6   2042317.881 5
  15936824.063   -37939813.263 7 -29470951.296 9
  19480057.852     -581075.588 5   -415937.442 2
  16153910.820    -1017328.994 7   -767967.235 8
  17760354.774      657317.539 6    511121.951 6
 95 10 22  5 12 59.9840000  0  7  2  7 18 27 16 19 31
  17097321.219    -3317038.097 6  -2514526.032 7
  19364764.367    -3561151.708 4  -2659064.144 4
  18229160.469     2734048.961 6   2091464.564 5
  15922740.656   -38013825.628 7 -29528623.271 9
  19478786.016     -587777.526 5   -421159.760 2
  16149874.945    -1038541.200 7   -784496.235 8
  17765382.047      683740.345 6    531711.154 6
 95 10 22  5 13 29.9840000  0  7  2  7 18 27 16 19 31
  17082123.930    -3396886.314 6  -2576745.411 7
  19336646.539    -3708898.047 4  -2774191.145 5
  18241208.586     2797361.178 6   2140798.748 5
  15908704.508   -38087586.991 7 -29586099.654 9
  19477579.180     -594059.430 5   -426054.752 3
  16145893.055    -1059467.388 7   -800802.359 8
  17770505.469      710664.080 6    552690.689 6
 95 10 22  5 13 59.9840000  0  7  2  7 18 27 16 19 31
  17066973.195    -3476517.466 6  -2638795.652 7
  19308544.328    -3856585.829 4  -2889272.523 4
  18253297.383     2860897.668 6   2190307.688 5
  15894714.766   -38161101.477 7 -29643383.673 9
  19476463.016     -599941.708 5   -430638.375 3
  16141959.547    -1080129.777 7   -816902.922 8
  17775727.375      738075.087 6    574049.919 6
 95 10 22  5 14 29.9840000  0  7  2  7 18 27 16 19 31
  17051861.453    -3555927.174 6  -2700673.344 7
  19280450.414    -4004214.084 4  -3004307.513 4
  18265431.188     2924657.806 6   2239990.904 5
  15880772.836   -38234366.400 7 -29700473.214 9
  19475419.578     -605422.583 5   -434909.211 2
  16138079.211    -1100525.080 7   -832795.371 8
  17781029.664      765970.677 6    595786.739 6
 95 10 22  5 14 59.9840000  0  7  2  7 18 27 16 19 31
  17036794.336    -3635112.730 6  -2762376.365 7
  19252371.711    -4151783.843 5  -3119296.936 5
  18277606.399     2988632.813 6   2289841.541 5
  15866878.375   -38307384.002 7 -29757370.053 9
  19474450.328     -610485.034 5   -438853.991 3
  16134249.406    -1120651.450 7   -848478.265 8
  17786431.524      794341.247 6    617893.679 6
 95 10 22  5 15 29.9840000  0  7  2  7 18 27 16 19 31
  17021772.320    -3714041.848 6  -2823879.567 7
  19224303.609    -4299276.196 4  -3234226.024 3
  18289821.547     3052823.564 6   2339860.299 5
  15853035.563   -38380128.229 7 -29814053.863 9
  19473578.344     -615123.553 5   -442468.434 4
  16130472.516    -1140498.344 7   -863943.381 8
  17791918.586      823182.959 6    640367.745 6
 95 10 22  5 15 59.9840000  0  7  2  7 18 27 16 19 31
  17006802.320    -3792710.122 6  -2885179.511 7
  19196251.500    -4446684.357 5  -3349089.506 4
  18302075.742     3117219.547 6   2390038.971 5
  15839246.789   -38452588.905 7 -29870516.725 9
  19472763.117     -619344.110 5   -445757.205 3
  16126749.352    -1160060.400 7   -879186.547 8
  17797493.164      852480.944 6    663197.350 6
 95 10 22  5 16 29.9840000  0  7  2  7 18 27 16 19 31
  16991883.383    -3871110.226 6  -2946270.490 7
  19168215.391    -4594015.741 4  -3463893.178 4
  18314366.563     3181811.218 5   2440370.138 5
  15825510.234   -38524776.483 7 -29926766.787 9
  19472045.578     -623144.715 5   -448718.724 2
  16123081.508    -1179338.984 7   -894208.828 8
  17803156.063      882227.316 6    686376.336 6
 95 10 22  5 16 59.9840000  0  7  2  7 18 27 16 19 31
  16977016.305    -3949229.040 6  -3007142.289 7
  19140193.531    -4741267.437 4  -3578634.733 4
  18326692.711     3246587.459 5   2490845.119 5
  15811826.258   -38596685.993 7 -29982800.168 9
  19471399.125     -626543.739 5   -451367.351 3
  16119466.055    -1198336.082 7   -909011.766 8
  17808903.555      912426.365 6    709908.063 6
 95 10 22  5 17 29.9840000  0  7  2  7 18 27 16 19 31
  16962206.641    -4027058.976 6  -3067788.983 7
  19112189.711    -4888438.248 5  -3693313.274 4
  18339053.367     3311543.259 5   2541460.015 5
  15798195.852   -38668313.770 7 -30038614.024 9
  19470820.313     -629570.718 5   -453726.050 4
  16115905.563    -1217045.114 7   -923590.235 8
  17814733.469      943076.123 6    733790.989 6
 95 10 22  5 17 59.9840000  0  7  2  7 18 27 16 19 31
  16947447.133    -4104616.044 6  -3128223.056 7
  19084196.039    -5035537.515 5  -3807936.064 4
  18351449.211     3376681.364 5   2592216.962 5
  15784617.945   -38739668.926 7 -30094215.444 9
  19470322.219     -632228.438 5   -455797.022 3
  16112402.219    -1235459.198 7   -937938.882 8
  17820652.359      974185.845 6    758032.329 6
 95 10 22  5 18 29.9840000  0  7  2  7 18 27 16 19 31
  16932738.516    -4181906.459 6  -3188449.346 7
  19056218.219    -5182565.266 4  -3922503.139 4
  18363878.781     3442004.460 5   2643118.064 5
  15771091.125   -38810752.646 7 -30149605.360 9
  19469887.641     -634519.446 5   -457582.250 2
  16108952.016    -1253587.140 7   -952064.551 8
  17826660.195     1005761.081 6    782636.417 6
 95 10 22  5 18 59.9840000  0  7  2  7 18 27 16 19 31
  16918078.602    -4258941.678 6  -3248476.786 7
  19028256.203    -5329514.411 4  -4037008.934 3
  18376346.547     3507510.315 5   2694161.570 5
  15757618.883   -38881555.874 7 -30204776.700 9
  19469511.422     -636460.706 4   -459094.944 3
  16105556.828    -1271427.654 7   -965966.262 8
  17832756.117     1037793.525 6    807596.757 6
 95 10 22  5 19 29.9840000  0  7  2  7 18 27 16 19 31
  16903464.656    -4335735.573 6  -3308316.172 7
  19000310.211    -5476371.126 5  -4151442.713 5
  18388847.547     3573214.008 5   2745359.227 5
  15744200.492   -38952072.469 7 -30259724.706 9
  19469213.680     -638028.712 4   -460316.775 3
  16102218.484    -1288967.438 7   -979633.632 8
  17838938.672     1070281.650 6    832912.177 6
 95 10 22  5 19 59.9840000  0  7  2  7 18 27 16 19 31
  16888895.297    -4412302.607 6  -3367978.789 7
  18972380.547    -5623132.377 4  -4265802.109 4
  18401387.859     3639109.139 5   2796706.056 5
  15730836.664   -39022305.095 7 -30314451.430 9
  19468990.688     -639200.217 4   -461229.663 3
  16098938.266    -1306214.047 7   -993072.552 8
  17845208.281     1103226.312 6    858583.348 6
 95 10 22  5 20 29.9840000  0  7  2  7 18 27 16 19 31
  16874374.484    -4488614.800 6  -3427442.832 7
  18944481.070    -5769764.984 5  -4380061.266 4
  18413966.797     3705202.121 5   2848207.078 5
  15717528.328   -39092236.487 7 -30368943.427 9
  19468855.539     -639957.171 4   -461819.510 4
  16095716.422    -1323143.013 7  -1006263.959 8
  17851566.047     1136640.482 6    884620.361 6
 95 10 22  5 20 59.9840000  0  7  2  7 18 27 16 19 31
  16859902.781    -4564677.029 6  -3486712.097 7
  18916599.242    -5916271.056 5  -4494221.830 4
  18426581.859     3771483.462 5   2899854.865 5
  15704274.024   -39161879.784 7 -30423210.930 9
  19468778.797     -640312.345 5
  16092556.024    -1339752.423 7  -1019206.360 8
  17858011.102     1170510.425 6    911012.525 6
 95 10 22  5 21 29.9840000  0  8  2  7 18 12 27 16 19 31
  16845476.617    -4640495.936 6  -3545791.762 7
  18888743.414    -6062648.199 5  -4608281.930 3
  18439224.063     3837944.829 5   2951642.931 5
  19475967.359     -105286.837 2
  15691071.836   -39231250.216 7 -30477265.815 9
  19468789.289     -640263.716 4
  16089455.008    -1356046.140 7  -1031902.769 8
  17864540.156     1204832.182 6    937756.762 6
 95 10 22  5 21 59.9840000  0  7  2  7 18 27 16 19 31
  16831094.555    -4716053.371 6  -3604667.680 7
  18860913.774    -6208895.325 5  -4722240.714 4
  18451903.289     3904591.358 5   3003575.282 5
  15677926.422   -39300332.140 7 -30531095.890 9
  19468868.836     -639821.167 3
  16086413.789    -1372026.130 7  -1044354.713 8
  17871163.086     1239605.761 6    964853.049 6
 95 10 22  5 22 29.9840000  0  8  2  7 18 12 27 16 19 31
  16816765.680    -4791342.450 6  -3663334.485 7
  18833106.609    -6355016.260 5  -4836101.170 3
  18464626.141     3971422.020 5   3055651.111 5
  19435930.031          -0.62812
  15664839.477   -39369112.708 7 -30584691.135 9
  19469029.680     -639009.748 4   -461081.350 2
  16083433.734    -1387692.372 7  -1056562.179 8
  17877865.805     1274824.124 6    992295.936 6
 95 10 22  5 22 59.9840000  0  8  2  7 18 12 27 16 19 31
  16802487.477    -4866390.586 6  -3721813.549 7
  18805324.336    -6501027.347 5  -4949876.043 4
  18477376.750     4038420.649 5   3107857.820 5
  19415920.711     -105100.619 2        -0.36511
  15651808.352   -39437597.012 7 -30638055.535 9
  19469249.984     -637853.395 4   -460180.319 2
  16080505.445    -1403072.227 7  -1068546.484 8
  17884648.141     1310471.682 6   1020073.252 6
 95 10 22  5 23 29.9840000  0  8  2  7 18 12 27 16 19 31
  16788252.578    -4941204.816 6  -3780110.350 7
  18777559.492    -6646930.618 5  -5063566.898 4
  18490150.664     4105574.087 5   3160185.161 5
  19395934.000                          -0.31813
  15638832.125   -39505775.101 7 -30691181.315 9
  19469537.164     -636357.473 4   -459014.692 3
  16077634.172    -1418167.021 7  -1080308.669 8
  17891512.453     1346549.016 6   1048185.472 6
 95 10 22  5 23 59.9840000  0  8  2  7 18 12 27 16 19 31
  16774056.594    -5015781.560 6  -3838222.093 7
  18749816.125    -6792728.717 5  -5177175.777 4
  18502961.000     4172884.533 5   3212634.850 5
  19375959.641     -104984.131 3        -0.28511
  15625920.930   -39573635.375 7 -30744059.451 9
  19469880.078     -634533.915 3   -457593.747 2
  16074816.102    -1432972.458 7  -1091845.375 8
  17898451.875     1383050.620 6   1076628.273 6
 95 10 22  5 24 29.9840000  0  8  2  7 18 12 27 16 19 31
  16759913.274    -5090121.304 6  -3896149.162 7
  18722090.492    -6938408.760 5  -5290692.685 4
  18515797.570     4240351.785 5   3265206.723 5
  19355997.195     -209905.025 3    -81756.819 2
  15613065.578   -39641186.699 7 -30796696.850 9
  19470293.797     -632372.910 3   -455909.878 1
  16072056.930    -1447474.914 7  -1103145.994 8
  17905484.641     1419987.981 6   1105410.630 6
 95 10 22  5 24 59.9840000  0  8  2  7 18 12 27 16 19 31
  16745809.430    -5164238.393 6  -3953902.730 7
  18694390.336    -7083974.415 5  -5404120.467 5
  18528670.695     4307981.362 5   3317905.077 5
  19336038.274     -314769.085 3   -163469.065 2
  15600265.195   -39708448.886 7 -30849108.941 9
  19470763.625     -629869.400 3   -453959.122 2
  16069355.867    -1461671.111 7  -1114207.971 8
  17912592.820     1457346.895 6   1134521.466 6
 95 10 22  5 25 29.9840000  0  8  2  7 18 12 27 16 19 31
  16731749.774    -5238122.033 6  -4011474.401 7
  18666714.516    -7229420.727 5  -5517455.236 5
  18541571.656     4375789.033 5   3370742.207 5
  19316099.242     -419575.619 3   -245136.446 2
  15587521.094   -39775420.675 7 -30901294.754 9
  19471310.734     -627011.843 3   -451732.441 2
  16066716.359    -1475540.221 7  -1125015.069 8
  17919783.953     1495126.337 6   1163959.993 6
 95 10 22  5 25 59.9840000  0  8  2  7 18 12 27 16 19 31
  16717734.555    -5311763.207 6  -4068857.127 7
  18639059.453    -7374738.199 5  -5630689.600 5
  18554513.727     4443790.786 5   3423730.570 5
  19296166.109     -524322.813 3   -326757.618 1
  15574831.516   -39842104.462 7 -30953256.149 9
  19471917.508     -623784.353 3   -449217.573 2
  16064139.320    -1489082.618 7  -1135567.591 8
  17927053.680     1533325.867 6   1193725.860 6
 95 10 22  5 26 29.9840000  0  8  2  7 18 12 27 16 19 31
  16703769.344    -5385157.435 6  -4126047.427 7
  18611434.274    -7519915.890 5  -5743815.062 5
  18567490.477     4511987.334 5   3476870.726 5
  19276244.774     -629007.276 3   -408329.878 2
  15562197.531   -39908497.785 7 -31004991.207 9
  19472612.820     -620168.203 3   -446399.790 1
  16061625.828    -1502293.738 7  -1145861.978 8
  17934407.922     1571953.355 6   1223825.194 6
 95 10 22  5 26 59.9840000  0  8  2  7 18 12 27 16 19 31
  16689845.750    -5458317.892 6  -4183055.569 7
  18583834.344    -7664969.406 5  -5856843.751 5
  18580498.336     4580350.152 5   3530140.436 5
  19256331.859     -733645.049 3   -489865.784 2
  15549618.672   -39974611.249 7 -31056508.193 9
  19473364.016     -616177.580 3   -443290.245 1
  16059171.375    -1515189.155 7  -1155910.359 8
  17941830.461     1610987.172 6   1254241.151 6
 95 10 22  5 27 29.9840000  0  8  2  7 18 12 27 16 19 31
  16675977.281    -5531217.743 6  -4239860.631 7
  18556256.547    -7809882.401 5  -5969762.960 5
  18593535.758     4648860.039 5   3583524.749 5
  19236427.906     -838228.655 3   -571359.480 1
  15537090.211   -40040432.522 7 -31107797.498 9
  19474200.500     -611813.608 3   -439889.789 1
  16056775.391    -1527776.037 7  -1165718.330 8
  17949339.274     1650434.196 6   1284979.088 6
 95 10 22  5 27 59.9840000  0  8  2  7 18 12 27 16 19 31
  16662150.024    -5603857.856 6  -4296463.322 7
  18528706.875    -7954652.704 5  -6082570.954 5
  18606598.789     4717500.336 5   3637010.684 5
  19216536.758     -942754.516 4   -652808.184 1
  15524622.984   -40105963.152 7 -31158860.330 9
  19475106.883     -607069.618 3   -436193.176 1
  16054437.555    -1540066.298 7  -1175295.161 8
  17956922.336     1690285.611 6   1316032.135 6
 95 10 22  5 28 29.9840000  0  8  2  7 18 12 27 16 19 31
  16648376.633    -5676245.609 6  -4352869.351 8
  18501188.852    -8099287.211 5  -6195273.141 5
  18619680.274     4786246.112 5   3690578.810 5
  19196658.914    -1047225.060 4   -734213.802 1
  15512205.102   -40171206.652 7 -31209699.422 9
  19476078.031     -601965.993 3   -432216.351 2
  16052153.961    -1552064.899 7  -1184644.731 8
  17964582.547     1730532.058 6   1347393.001 6
 95 10 22  5 28 59.9840000  0  8  2  7 18 12 27 16 19 31
  16634652.070    -5748380.512 6  -4409078.366 7
  18473685.250    -8243780.815 5  -6307865.555 5
  18632783.180     4855101.060 5   3744232.001 5
  19176792.274    -1151640.304 4   -815576.301 2
  15499844.961   -40236157.001 7 -31260310.090 9
  19477112.258     -596521.106 3   -427973.602 1
  16049925.539    -1563779.465 7  -1193772.975 8
  17972305.797     1771167.179 6   1379056.725 6
 95 10 22  5 29 29.9830000  0  8  2  7 18 12 27 16 19 31
  16620967.769    -5820266.338 6  -4465093.288 7
  18446219.886    -8388121.902 5  -6420339.115 5
  18645910.308     4924078.772 5   3797980.858 4
  19156929.667    -1255992.698 4   -896889.866 1
  15487548.066   -40300791.483 7 -31310674.621 9
  19478216.511     -590731.666 3   -423462.353 2
  16047748.222    -1575219.198 7  -1202687.054 8
  17980125.362     1812193.941 6   1411025.636 6
 95 10 22  5 29 59.9830000  0  8  2  7 18 12 27 16 19 31
  16607330.066    -5891935.670 6  -4520939.525 7
  18418780.292    -8532325.794 5  -6532705.755 5
  18659061.144     4993185.368 5   3851830.130 5
  19137081.800    -1360297.399 4   -978166.204 1
  15475306.206   -40365108.840 7 -31360792.047 9
  19479378.948     -584605.962 3   -418689.122 1
  16045626.542    -1586369.711 7  -1211375.770 8
  17987991.105     1853615.881 5   1443302.469 6
 95 10 22  5 30 29.9830000  0  8  2  7 18 12 27 16 19 31
  16593736.433    -5963378.286 6  -4576609.095 7
  18391367.495    -8676371.309 5  -6644949.001 5
  18672237.206     5062430.724 5   3905787.541 4
  19117245.417    -1464545.452 4  -1059398.431 1
  15463133.245   -40429085.379 7 -31410643.894 9
  19480608.941     -578162.129 3   -413667.969 1
  16043562.784    -1597217.391 7  -1219828.518 8
  17995969.862     1895448.865 6   1475899.599 6
 95 10 22  5 30 59.9830000  0  8  2  7 18 12 27 16 19 31
  16580187.292    -6034584.426 6  -4632094.404 7
  18363987.901    -8820251.950 5  -6757063.769 5
  18685440.769     5131829.644 5   3959864.628 5
  19097423.761    -1568728.867 4  -1140580.302 2
  15451025.480   -40492702.818 7 -31460215.926 9
  19481893.073     -571389.329 3   -408390.463 1
  16041558.956    -1607744.990 7  -1228031.852 8
  18004003.159     1937704.185 6   1508825.826 6
 95 10 22  5 31 29.9830000  0  8  2  7 18 12 27 16 19 31
  16566679.480    -6105570.940 6  -4687408.568 7
  18336642.816    -8963984.835 5  -6869063.401 5
  18698676.237     5201364.000 5   4014047.220 5
  19077607.339    -1672861.545 4  -1221722.619 1
  15438987.136   -40555968.894 7 -31509514.172 9
  19483238.878     -564300.990 3   -402867.109 2
  16039616.292    -1617949.647 7  -1235983.536 8
  18012125.792     1980367.929 6   1542070.308 6
 95 10 22  5 31 59.9830000  0  8  2  7 18 12 27 16 19 31
  16553215.816    -6176316.159 6  -4742534.712 8
  18309318.995    -9107556.784 5  -6980937.635 5
  18711932.714     5271037.900 5   4068338.554 4
  19057801.339    -1776931.631 3
  15427014.956   -40618882.820 7 -31558538.011 9
  19484645.550     -556898.753 3   -397099.127 2
  16037741.105    -1627801.598 7  -1243660.384 8
  18020323.066     2023447.124 6   1575638.511 6
 95 10 22  5 32 29.9830000  0  8  2  7 18 12 27 16 19 31
  16539798.245    -6246815.191 6  -4797469.025 7
  18282025.573    -9250979.148 5  -7092695.308 5
  18725216.105     5340844.207 5   4122733.068 4
  19038002.597    -1880950.278 3
  15415106.901   -40681463.744 7 -31607302.368 9
  19486126.886     -549191.929 4   -391093.846 1
  16035928.753    -1637327.283 7  -1251083.008 8
  18028594.597     2066934.587 6   1609524.852 6
 95 10 22  5 32 59.9830000  0  8  2  7 18 12 27 16 19 31
  16526433.089    -6317054.817 6  -4852201.199 8
  18254760.175    -9394246.564 5  -7204332.248 5
  18738528.675     5410793.497 5   4177239.007 5
  19018217.409    -1984913.888 3        -0.21411
  15403262.737   -40743715.950 7 -31655810.582 9
  19487642.597     -541162.456 3   -384837.116 1
  16034179.472    -1646522.694 7  -1258248.270 8
  18036950.120     2110820.346 6   1643721.557 6
 95 10 22  5 33 29.9830000  0  8  2  7 18 12 27 16 19 31
  16513117.847    -6387037.517 7  -4906733.176 8
  18227534.058    -9537339.117 5  -7315832.931 5
  18751865.987     5480890.494 5   4231860.038 4
  18998450.487    -2088819.032 3    -80965.270 1
  15391474.753   -40805648.164 7 -31704069.450 9
  19489233.183     -532807.821 3   -378327.070 1
  16032491.628    -1655391.736 7  -1265159.227 8
  18045374.362     2155092.316 6   1678219.190 6
 95 10 22  5 33 59.9830000  0  8  2  7 18 12 27 16 19 31
  16499850.448    -6456760.817 7  -4961063.017 8
  18200337.581    -9680258.167 5  -7427198.407 5
  18765232.245     5551116.001 5   4286581.184 4
  18978685.198    -2192674.384 3   -161891.533 1
  15379744.136   -40867289.924 7 -31752101.992 9
  19490883.198     -524127.718 3   -371563.363 1
  16030862.347    -1663949.691 7  -1271827.764 8
  18053869.823     2199745.344 6   1713013.762 6
 95 10 22  5 34 29.9830000  0  8  2  7 18 12 27 16 19 31
  16486628.870    -6526229.727 6  -5015194.640 8
  18173171.534    -9822991.961 5  -7538419.540 5
  18778620.886     5621468.778 5   4341401.530 4
  18958933.511    -2296478.889 3   -242778.109 1
  15368070.964   -40928640.324 7 -31799907.507 9
  19492607.605     -515114.712 4   -364540.247 2
  16029292.011    -1672207.969 7  -1278262.794 8
  18062433.198     2244772.215 5   1748099.633 6
 95 10 22  5 34 59.9830000  0  8  2  7 18 12 27 16 19 31
  16473455.105    -6595458.356 6  -5069139.025 8
  18146051.105    -9965533.550 5  -7649490.892 5
  18792029.308     5691943.067 5   4396316.543 4
  18939191.925    -2400227.897 3   -323621.476 2
  15356454.206   -40989694.420 7 -31847482.127 9
  19494384.550     -505774.442 3   -357262.127 2
  16027778.503    -1680157.220 7  -1284457.025 8
  18071072.972     2290154.082 5   1783462.124 6
 95 10 22  5 35 29.9830000  0  8  2  7 18 12 27 16 19 31
  16460326.456    -6664465.729 7  -5122911.004 8
  18118955.948   -10107892.833 5  -7760420.188 5
  18805458.151     5762504.290 5   4451299.304 2
  18919456.792    -2503928.731 3   -404427.278 1
  15344888.573   -41050451.122 7 -31894825.023 9
  19496220.058     -496123.138 3   -349741.659 1
  16026324.331    -1687805.879 7  -1290417.025 8
  18079775.675     2335900.164 5   1819108.418 6
 95 10 22  5 35 59.9830000  0  8  2  7 18 12 27 16 19 31
  16447234.800    -6733241.414 7  -5176502.441 8
  18091905.425   -10250076.687 5  -7871212.784 5
  18818900.464     5833145.971 5   4506344.762 3
  18899727.175    -2607576.818 3   -485191.979 1
  15333392.472   -41110881.455 7 -31941913.586 9
  19498116.987     -486160.647 4   -341978.694 1
  16024924.831    -1695153.168 7  -1296142.191 8
  18088563.597     2382023.561 5   1855048.724 6
 95 10 22  5 36 29.9830000  0  8  2  7 18 12 27 16 19 31
  16434194.245    -6801794.392 7  -5229920.337 8
  18064881.355   -10392079.839 5  -7981864.572 5
  18832361.636     5903882.741 5   4561464.298 3
  18880018.714    -2711166.787 3   -565911.445 1
  15321958.597   -41170949.600 7 -31988719.931 9
  19500062.956     -475902.777 3   -333985.553 1
  16023586.151    -1702197.242 7  -1301631.091 8
  18097394.667     2428504.920 5   1891267.969 6
 95 10 22  5 36 59.9830000  0  8  2  7 18 12 27 16 19 31
  16421185.167    -6870126.716 7  -5283166.298 8
  18037891.081   -10533917.862 5  -8092387.694 5
  18845835.300     5974706.464 5   4616651.612 4
  18860319.230    -2814707.884 3   -646592.817 1
  15310601.612   -41230658.888 7 -32035246.654 9
  19502071.589     -465371.575 3   -325779.448 2
  16022304.737    -1708924.667 7  -1306873.251 8
  18106307.026     2475334.646 5   1927758.666 6
 95 10 22  5 37 29.9830000  0  8  2  7 18 12 27 16 19 31
  16408228.605    -6938227.396 7  -5336231.753 8
  18010928.042   -10675591.379 5  -8202782.634 5
  18859332.784     6045618.495 5   4671907.718 2
  18840629.261    -2918200.960 3   -727236.747 1
  15299305.300   -41289999.635 7 -32081486.196 9
  19504120.503     -454566.910 3   -317360.271 2
  16021084.159    -1715332.721 7  -1311866.549 8
  18115279.566     2522519.193 5   1964525.837 6
 95 10 22  5 37 59.9830000  0  8  2  7 18 12 27 16 19 31
  16395317.136    -7006091.868 7  -5389113.151 8
  17984003.745   -10817088.322 5  -8313039.979 5
  18872848.198     6116641.190 5   4727250.056 2
  18820946.651    -3021643.363 3   -807841.214 2
  15288080.542   -41348982.664 7 -32127446.998 9
  19506232.878     -443487.488 4   -308726.967 1
  16019929.073    -1721409.977 7  -1316602.079 8
  18124339.112     2570038.135 6   2001553.587 6
 95 10 22  5 38 29.9830000  0  8  2  7 18 12 27 16 19 31
  16382446.573    -7073728.691 7  -5441817.162 8
  17957115.956   -10958397.815 5  -8423151.266 5
  18886380.534     6187773.070 5   4782677.498 4
  18801259.878    -3125041.865 3   -888411.462 3
  15276922.355   -41407629.794 7 -32173146.063 8
  19508396.011     -432140.513 5   -299885.158 2
  16018836.026    -1727150.466 7  -1321075.194 8
  18133434.284     2617884.825 5   2038836.714 5
 95 10 22  5 38 59.9830000  0  8  2  7 18 12 27 16 19 31
  16369621.214    -7141114.090 7  -5494325.269 8
  17930262.581   -11099500.128 5  -8533101.118 5
  18899940.097     6259019.733 5   4838194.336 4
  18781598.816    -3228381.934 3   -968936.169 2
  15265827.534   -41465938.772 7 -32218581.631 9
  19510614.956     -420490.428 4   -290807.202 2
  16017809.245    -1732545.250 7  -1325278.930 8
  18142616.644     2666091.597 6   2076400.450 6
 95 10 22  5 39 29.9830000  0  8  2  7 18 12 27 16 19 31
  16356841.003    -7208271.561 7  -5546655.759 8
  17903448.886   -11240390.268 5  -8642885.625 5
  18913516.816     6330357.363 5   4893782.100 4
  18761942.589    -3331679.500 4  -1049427.762 2
  15254794.019   -41523920.817 7 -32263762.449 9
  19512879.026     -408545.876 3   -281499.785 1
  16016841.776    -1737640.492 7  -1329249.254 8
  18151850.823     2714646.198 5   2114235.202 6
 95 10 22  5 39 59.9830000  0  8  2  7 18 12 27 16 19 31
  16344107.706    -7275189.040 7  -5598799.240 8
  17876683.386   -11381039.708 5  -8752482.581 5
  18927107.480     6401792.881 4   4949446.118 2
  18742295.151    -3434919.938 4  -1129874.860 1
  15243825.058   -41581566.076 7 -32308680.830 8
  19515211.480     -396291.922 4   -271951.264 2
  16015930.237    -1742430.564 7  -1332981.786 8
  18161173.581     2763567.245 6   2152355.499 6
 95 10 22  5 40 29.9830000  0  8  2  7 18 12 27 16 19 31
  16331416.417    -7341882.772 7  -5650768.376 8
  17849966.362   -11521456.520 5  -8861898.275 5
  18940716.987     6473305.233 5   5005169.997 3
  18722658.042    -3538121.073 5  -1210291.296 3
  15232917.644   -41638874.975 7 -32353337.122 9
  19517602.386     -383762.031 4   -262187.717 3
  16015070.933    -1746934.622 7  -1336491.439 8
  18170539.370     2812845.872 6   2190754.435 6
 95 10 22  5 40 59.9830000  0  8  2  7 18 12 27 16 19 31
  16318772.112    -7408341.655 7  -5702554.520 8
  17823287.691   -11661639.959 5  -8971132.118 5
  18954341.995     6544892.834 5   5060952.552 3
  18703024.417    -3641273.863 5  -1290670.101 2
  15222076.042   -41695838.043 7 -32397723.931 8
  19520036.300     -370962.091 3   -252213.766 2
  16014271.941    -1751140.237 7  -1339768.564 8
  18179979.706     2862482.526 5   2229432.355 6
 95 10 22  5 41 29.9830000  0  8  2  7 18 12 27 16 19 31
  16306168.581    -7474563.227 7  -5754155.730 8
  17796661.612   -11801582.989 5  -9080178.624 5
  18967979.628     6616558.297 5   5116795.753 2
  18683404.691    -3744372.183 5  -1371006.430 2
  15211303.683   -41752449.366 7 -32441836.661 9
  19522519.128     -357909.846 3   -242043.194 2
  16013533.495    -1755017.599 7  -1342789.887 8
  18189497.284     2912477.638 5   2268389.581 6
 95 10 22  5 41 59.9830000  0  8  2  7 18 12 27 16 19 31
  16293609.159    -7540549.309 7  -5805573.453 8
  17770072.409   -11941310.457 5  -9189057.162 6
  18981628.198     6688297.318 4   5172696.266 2
  18663799.644    -3847421.962 5  -1451304.978 2
  15200600.011   -41808720.341 7 -32485684.172 9
  19525047.589     -344619.414 3   -231687.050 2
  16012860.933    -1758551.080 7  -1345543.259 8
  18199066.792     2962809.599 5   2307609.288 6
 95 10 22  5 42 29.9830000  0  8  2  7 18 12 27 16 19 31
  16281099.542    -7606309.179 7  -5856814.902 8
  17743519.753   -12080856.930 6  -9297794.664 5
  18995290.730     6760092.063 4   5228640.220 2
  18644195.261    -3950434.130 5  -1531574.188 2
  15189951.378   -41864657.331 7 -32529271.437 9
  19527621.355     -331096.082 3   -221149.402 4
  16012253.519    -1761742.055 7  -1348029.740 8
  18208708.855     3013449.727 5   2347069.122 6
 95 10 22  5 42 59.9830000  0  8  2  7 18 12 27 16 19 31
  16268622.441    -7671857.852 7  -5907891.793 8
  17716989.667   -12220247.744 5  -9406410.873 6
  19008956.855     6831925.797 4   5284614.564 3
  18624597.941    -4053415.053 5  -1611819.057 3
  15179369.331   -41920276.260 7 -32572610.863 8
  19530248.644     -317314.463 3   -210410.514 2
  16011709.464    -1764608.053 7  -1350262.992 8
  18218406.980     3064381.180 5   2386755.960 6
 95 10 22  5 43 29.9830000  0  8  2  7 18 12 27 16 19 31
  16256194.019    -7737185.096 7  -5958796.130 8
  17690497.511   -12359472.769 5  -9514897.895 6
  19022641.433     6903819.702 4   5340635.743 2
  18605013.542    -4156347.633 4  -1692026.236 2
  15168850.651   -41975547.331 7 -32615679.238 9
  19532922.769     -303239.585 3   -199443.085 1
  16011222.847    -1767153.153 7  -1352246.201 8
  18228150.800     3115619.046 5   2426681.576 6
 95 10 22  5 43 59.9830000  0  8  2  7 18 12 27 16 19 31
  16243801.980    -7802287.800 7  -6009525.506 8
  17664036.784   -12498531.818 5  -9623255.586 6
  19036334.769     6975779.602 4   5396708.375 3
  18585434.573    -4259226.136 4  -1772191.296 2
  15158404.659   -42030455.833 7 -32658465.087 9
  19535668.097     -288847.596 3   -188228.584 2
  16010799.636    -1769388.377 7  -1353987.942 8
  18237957.948     3167171.423 5   2466852.260 6
 95 10 22  5 44 29.9830000  0  8  2  7 18 12 27 16 19 31
  16231455.901    -7867179.568 7  -6060090.515 8
  17637605.480   -12637419.383 5  -9731479.656 5
  19050040.792     7047795.587 5   5452824.705 4
  18565864.167    -4362062.322 4  -1852323.400 3
  15148020.542   -42085005.586 7 -32700971.390 8
  19538456.730     -274144.100 2   -176771.313 1
  16010431.605    -1771327.359 7  -1355498.846 8
  18247835.417     3219040.984 5   2507270.095 6
 95 10 22  5 44 59.9830000  0  8  2  7 18 12 27 16 19 31
  16219148.675    -7931863.025 7  -6110493.203 8
  17611218.034   -12776102.202 5  -9839544.175 6
  19063757.909     7119870.416 5   5508986.882 2
  18546302.066    -4464856.594 4  -1932422.818 2
  15137707.816   -42139194.533 7 -32743196.539 8
  19541308.323     -259153.682 2   -165090.522 1
  16010115.183    -1772975.058 7  -1356782.780 8
  18257765.401     3271236.959 5   2547942.283 6
 95 10 22  5 45 29.9830000  0  8  2  7 18 12 27 16 19 31
  16206882.464    -7996316.068 7  -6160716.352 8
  17584872.355   -12914544.523 5  -9947421.300 6
  19077482.909     7192016.418 5   5565204.526 2
  18526758.136    -4567592.720 4  -2012476.937 2
  15127468.987   -42193003.482 7 -32785125.599 9
  19544217.714     -243894.158 3   -153199.999 2
  16009862.073    -1774302.075 7  -1357816.826 8
  18267767.995     3323777.671 6   2588883.089 5
 95 10 22  5 45 59.9830000  0  8  2  7 18 12 27 16 19 31
  16194661.120    -8060547.661 7  -6210766.932 8
  17558577.222   -13052729.066 5 -10055097.557 6
  19091221.636     7264222.762 5   5621469.208 2
  18507214.691    -4670285.285 3  -2092497.085 2
  15117296.980   -42246459.451 7 -32826779.598 9
  19547165.792     -228394.831 2   -141122.611 2
  16009673.472    -1775302.556 7  -1358596.433 8
  18277831.339     3376648.910 6   2630081.470 5
 95 10 22  5 46 29.9830000  0  7  2  7 18 12 27 19 31
  16182480.612    -8124556.688 7  -6260644.096 8
  17532330.237   -13190632.242 5 -10162554.571 6
  19104980.042     7336489.538 5   5677780.947 2
  18487677.698    -4772932.653 3  -2172482.045 1
  15107190.667   -42299567.675 7 -32868162.640 9
  16009546.495    -1775971.298 7  -1359117.542 8
  18287946.886     3429838.151 5   2671527.642 5
 95 10 22  5 46 59.9830000  0  8  2  7 18 12 27 26 19 31
  16170341.058    -8188340.026 6  -6310345.390 8
  17506143.870   -13328262.050 5 -10269798.563 6
  19118740.581     7408817.861 5   5734140.669 1
  18468153.276    -4875537.673 3  -2252433.992 1
  15097149.425   -42352335.636 7 -32909280.533 9
  19516653.956     -128905.048 5
  16009483.730    -1776311.538 7
  18298130.667     3483334.515 6   2713213.126 5
 95 10 22  5 47 29.9830000  0  8  2  7 18 12 27 26 19 31
  16158248.081    -8251881.127 7  -6359857.929 8
  17480003.995   -13465614.538 6 -10376826.466 6
  19132521.472     7481232.189 5   5790567.409 2
  18448633.839    -4978087.341 3  -2332342.825 2
  15087178.800   -42404743.999 7 -32950118.219 9
  19492175.105     -257538.090 5        -0.25512
  16009484.730    -1776304.270 7
  18308371.128     3537144.115 6   2755142.687 5
 95 10 22  5 47 59.9830000  0  8  2  7 18 12 27 26 19 31
  16146201.761    -8315185.398 7  -6409185.938 8
  17453912.776   -13602701.721 5 -10483647.638 6
  19146317.612     7553733.456 4   5847061.879 2
  18429131.941    -5080589.202 3  -2412214.392 1
  15077275.261   -42456783.255 7 -32990668.293 9
  19467747.519     -385900.884 5   -100023.231 2
  16009549.644    -1775960.684 7
  18318662.386     3591253.098 5   2797305.528 5
 95 10 22  5 48 29.9830000  0  8  2  7 18 12 27 26 19 31
  16134204.526    -8378245.126 7  -6458323.379 8
  17427879.206   -13739554.322 6 -10590286.020 6
  19160125.230     7626310.548 4   5903615.472 2
  18409636.839    -5183041.300 3  -2492047.199 2
  15067442.683   -42508442.283 7 -33030922.080 9
  19443369.003     -513996.023 5   -199837.618 1
  16009676.144    -1775283.996 7  -1358582.025 8
  18329017.339     3645654.745 5   2839696.430 5
 95 10 22  5 48 59.9820000  0  8  2  7 18 12 27 26 19 31
  16122244.451    -8441076.620 7  -6507282.979 8
  17401867.951   -13876206.953 6 -10696768.580 6
  19173946.365     7698925.807 4   5960198.756 2
  18390146.443    -5285459.777 3  -2571853.759 1
  15057685.170   -42559734.433 7 -33070889.994 9
  19419042.858     -641846.870 5
  16009862.795    -1774295.332 7  -1357811.647 8
  18339417.045     3700321.540 5   2882293.945 5
 95 10 22  5 49 29.9820000  0  8  2  7 18 12 27 26 19 31
  16110333.147    -8503681.136 7  -6556065.718 8
  17375912.443   -14012652.674 6 -10803089.911 6
  19187770.631     7771574.970 4   6016808.461 2
  18370669.123    -5387835.002 3  -2651626.627 2
  15047994.881   -42610644.832 7 -33110560.433 9
  19394764.404     -769441.525 5        -0.12611
  16010114.865    -1772975.206 7  -1356782.986 8
  18349867.998     3755265.346 5   2925107.299 5
 95 10 22  5 49 59.9820000  0  8  2  7 18 12 27 26 19 31
  16098463.647    -8566062.923 7  -6604674.896 8
  17349983.850   -14148887.461 6 -10909246.874 6
  19201601.373     7844239.936 4   6073430.509 1
  18351197.412    -5490161.643 4  -2731361.658 3
  15038378.904   -42661178.021 7 -33149936.945 9
  19370530.061     -896768.902 4    -99216.272 1
  16010430.873    -1771329.088 7  -1355500.315 8
  18360384.865     3810493.059 5   2968141.894 5
 95 10 22  5 50 29.9820000  0  8  2  7 18 12 27 26 19 31
  16086627.365    -8628247.820 7  -6653130.656 8
  17324095.295   -14284918.540 6 -11015245.105 6
  19215426.029     7916896.906 4   6130046.334 1
  18331730.959    -5592455.964 5  -2811071.507 1
  15028831.397   -42711361.124 7 -33189040.668 9
  19346347.834    -1023844.794 3   -198236.507 1
  16010802.201    -1769380.286 7  -1353981.775 8
  18370946.100     3865993.436 5   3011388.935 5
 95 10 22  5 50 59.9820000  0  8  2  7 18 12 27 26 19 31
  16074828.654    -8690251.555 7  -6701445.249 7
  17298255.358   -14420720.988 6 -11121065.184 6
  19229248.717     7989551.972 4   6186660.604 1
  18312269.053    -5694718.354 5  -2890756.467 2
  15019350.381   -42761185.313 7 -33227864.713 9
  19322218.584    -1150664.453 3   -297057.049 1
  16011227.209    -1767133.273 7  -1352230.865 8
  18381553.272     3921778.694 5   3054857.982 5
 95 10 22  5 51 29.9820000  0  8  2  7 18 12 27 26 19 31
  16063069.373    -8752048.883 7  -6749599.005 7
  17272467.897   -14556242.800 6 -11226666.585 6
  19243083.842     8062254.512 4   6243311.955 1
  18292817.897    -5796922.769 5  -2970396.244 2
  15009944.936   -42810613.553 7 -33266380.222 9
  19298139.006    -1277203.998 3   -395659.310 1
  16011717.826    -1764569.181 7  -1350232.896 8
  18392240.998     3977885.564 5   3098577.609 5
 95 10 22  5 51 59.9820000  0  8  2  7 18 12 27 26 19 31
  16051346.139    -8813656.675 7  -6797605.070 7
  17246730.740   -14691493.097 6 -11332056.417 6
  19256926.951     8134992.384 4   6299990.795 1
  18273380.170    -5899089.158 5  -3050006.409 2
  15000610.522   -42859658.079 7 -33304596.744 9
  19274106.873    -1403484.569 3   -494059.756 1
  16012261.279    -1761715.637 7  -1348009.349 8
  18402962.404     4034288.363 5   3142527.833 5
 95 10 22  5 52 29.9820000  0  8  2  7 18 12 27 26 19 31
  16039664.529    -8875058.855 7  -6845450.921 8
  17221041.553   -14826463.768 6 -11437228.357 6
  19270771.498     8207766.959 4   6356698.287 2
  18253946.639    -6001211.491 5  -3129582.224 2
  14991349.889   -42908314.376 7 -33342510.741 9
  19250127.006    -1529494.400 3   -592249.263 2
  16012860.803    -1758555.578 7  -1345546.991 8
  18413751.912     4090973.882 5   3186698.361 5
 95 10 22  5 52 59.9820000  0  8  2  7 18 12 27 26 19 31
  16028016.490    -8936251.134 7  -6893133.213 8
  17195413.100   -14961170.768 6 -11542194.847 6
  19284625.514     8280557.157 4   6413417.916 2
  18234519.561    -6103300.983 5  -3209132.481 1
  14982165.545   -42956591.174 7 -33380129.026 9
  19226193.998    -1655242.505 3   -690234.791 1
  16013520.654    -1755082.367 7  -1342840.610 8
  18424592.608     4147917.860 5   3231070.291 5
 95 10 22  5 53 29.9820000  0  8  2  7 18 12 27 26 19 31
  16016417.014    -8997221.096 7  -6940642.271 8
  17169829.631   -15095617.038 6 -11646958.164 6
  19298483.600     8353364.082 4   6470150.528 2
  18215101.443    -6205347.036 5  -3288648.874 3
  14973048.006   -43004493.554 7 -33417455.548 9
  19202320.670    -1780715.606 3   -788006.052 2
  16014246.029    -1751276.577 7  -1339875.070 8
  18435474.467     4205119.204 5   3275642.782 5
 95 10 22  5 53 59.9820000  0  8  2  7 18 12 27 26 19 31
  16004854.420    -9057965.124 7  -6987975.281 8
  17144291.568   -15229815.142 6 -11751528.110 6
  19312333.311     8426162.215 4   6526876.349 1
  18195686.943    -6307353.219 5  -3368134.202 4
  14964001.631   -43052040.225 7 -33454504.916 9
  19178498.693    -1905905.640 3   -885556.719 2
  16015034.084    -1747125.409 7  -1336640.409 8
  18446410.912     4262564.481 5   3320405.329 5
 95 10 22  5 54 29.9820000  0  8  2  7 18 12 27 26 19 31
  15993342.428    -9118477.546 7  -7035127.815 8
  17118803.318   -15363763.550 6 -11855903.487 6
  19326190.756     8498964.396 3   6583605.285 1
  18176284.537    -6409316.364 5  -3447585.976 4
  14955019.576   -43099230.153 7 -33491276.289 9
  19154730.639    -2030805.417 3   -982881.197 3
  16015893.850    -1742618.700 7  -1333128.695 8
  18457391.920     4320264.979 5   3365366.751 5
 95 10 22  5 54 59.9820000  0  8  2  7 18 12 27 26 19 31
  15981869.178    -9178772.773 7  -7082111.110 8
  17093359.303   -15497447.108 6 -11960072.473 6
  19340045.733     8571773.526 3   6640339.668 2
  18156889.881    -6511239.089 5  -3527006.272 2
  14946109.709   -43146057.173 7 -33527764.877 9
  19131020.350    -2155424.537 4  -1079987.027 3
  16016816.358    -1737764.347 7  -1329346.103 8
  18468421.975     4378227.679 5   3410532.501 5
 95 10 22  5 55 29.9820000  0  8  2  7 18 12 27 26 19 31
  15970433.240    -9238867.175 7  -7128937.911 8
  17067975.686   -15630850.115 6 -12064022.859 6
  19353898.217     8644597.655 3   6697085.712 1
  18137503.826    -6613121.083 5  -3606394.815 4
  14937268.967   -43192518.300 7 -33563968.358 8
  19107355.904    -2279760.489 4  -1176872.200 3
  16017804.475    -1732578.177 7  -1325304.944 8
  18479498.029     4436462.047 5   3455909.924 5
 95 10 22  5 55 59.9820000  0  8  2  7 18 12 27 26 19 31
  15959036.154    -9298749.999 7  -7175599.855 8
  17042647.467   -15763952.942 6 -12167739.340 6
  19367762.045     8717443.668 3   6753848.836 2
  18118124.443    -6714960.277 5  -3685750.011 4
  14928502.014   -43238597.130 7 -33599873.942 9
  19083754.154    -2403801.762 5  -1273527.740 3
  16018853.201    -1727060.183 7  -1321005.219 8
  18490636.631     4494965.554 5   3501497.080 5
 95 10 22  5 56 29.9820000  0  8  2  7 18 12 27 26 19 31
  15947681.139    -9358428.859 7  -7222102.864 8
  17017373.576   -15896757.579 6 -12271223.464 6
  19381628.428     8790315.079 3   6810631.720 1
  18098755.147    -6816755.544 5  -3765070.991 4
  14919807.295   -43284281.694 7 -33635472.306 9
  19060206.943    -2527544.434 5  -1369950.599 3
  16019964.631    -1721223.234 7  -1316456.960 8
  18501814.608     4553734.263 5   3547290.880 5
 95 10 22  5 56 59.9820000  0  8  2  7 15 12 27 26 19 31
  15936361.889    -9417914.283 7  -7268455.133 8
  16992159.443   -16029278.680 6 -12374486.654 6
  19114460.693          -0.64513
  18079388.483    -6918516.647 5  -3844365.343 4
  14911186.139   -43329580.846 7 -33670770.351 8
  19036710.748    -2650996.251 5  -1466146.847 4
  16021131.420    -1715088.507 7  -1311676.663 8
  18513057.084     4612750.640 5   3593277.668 5
 95 10 22  5 57 29.9820000  0  8  2  7 15 12 27 26 19 31
  15925078.951    -9477192.069 7  -7314645.627 8
  16966991.537   -16161521.909 6 -12477533.313 6
  19095603.756      -99093.986 3
  18060033.498    -7020234.470 5  -3923625.975 4
  14902643.756   -43374478.328 7 -33705755.401 9
  19013280.436    -2774133.850 5  -1562098.228 3
  16022356.811    -1708654.341 7  -1306663.038 8
  18524320.967     4672008.570 5   3639452.687 5
 95 10 22  5 57 59.9820000  0  8  2  7 15 12 27 26 19 31
  15913844.951    -9536239.057 7  -7360656.264 8
  16941880.647   -16293492.438 6 -12580367.477 6
  19076805.842     -197885.351 3
  18040685.834    -7121901.471 5  -4002847.011 3
  14894178.522   -43418958.265 7 -33740415.094 9
  18989908.537    -2896956.556 5  -1657804.235 4
  16023640.170    -1701909.115 7  -1301407.033 8
  18535647.897     4731494.131 5   3685805.074 5
 95 10 22  5 58 29.9820000  0  8  2  7 15 12 27 26 19 31
  15902645.748    -9595076.206 7  -7406503.390 8
  16916814.725   -16425210.326 6 -12683004.786 6
  19058060.811     -296386.248 3        -0.32514
  18021346.842    -7223532.362 5  -4082039.902 4
  14885793.022   -43463031.610 7 -33774757.960 9
  18966592.850    -3019488.824 5  -1753283.939 4
  16024979.693    -1694865.456 7  -1295918.479 8
  18547000.381     4791185.926 5   3732318.154 5
 95 10 22  5 58 59.9820000  0  8  2  7 15 12 27 26 19 31
  15891492.733    -9653706.108 7  -7452189.027 8
  16891799.022   -16556664.481 6 -12785436.585 6
  19039379.740     -394597.983 4    -76528.925 4
  18002014.037    -7325131.426 5  -4161208.007 3
  14877481.014   -43506697.110 7 -33808783.037 9
  18943328.264    -3141739.767 5  -1848544.419 5
  16026378.818    -1687510.431 7  -1290187.305 8
  18558397.990     4851083.084 4   3778991.266 5
 95 10 22  5 59 29.9820000  0  8  2  7 15 12 27 26 19 31
  15880377.178    -9712117.130 7  -7497704.107 8
  16866839.139   -16687832.043 6 -12887645.065 6
  19020750.162     -492500.616 4   -152816.643 5
  17982687.412    -7426681.783 4  -4240338.143 4
  14869253.451   -43549932.343 7 -33842472.829 9
  18920123.865    -3263687.862 5  -1943568.903 5
  16027845.475    -1679806.506 7  -1284184.261 8
  18569841.826     4911199.696 4   3825835.383 4
 95 10 22  5 59 59.9820000  0  8  2  7 15 12 27 26 19 31
  15869300.811    -9770330.026 7  -7543064.803 8
  16841929.881   -16818718.140 6 -12989634.225 6
  19002171.717     -590103.240 4   -228870.614 5
  17963370.865    -7528195.561 5  -4319439.770 2
  14861104.686   -43592759.347 7 -33875844.528 9
  18896973.162    -3385345.513 5  -2038367.096 4
  16029379.147    -1671747.930 7  -1277904.860 8
  18581324.264     4971534.131 4   3872849.234 3
 95 10 22  6  0 29.9820000  0  8  2  7 15 12 27 26 19 31
  15858256.756    -9828361.372 7  -7588284.035 8
  16817084.256   -16949309.862 6 -13091393.993 6
  18983655.264     -687399.145 4   -304685.565 5
  17944063.678    -7629668.726 5  -4398509.777 3
  14853031.131   -43635184.885 7 -33908903.389 9
  18873877.912    -3506695.360 4  -2132925.406 3
  16030980.897    -1663334.290 7  -1271348.794 8
  18592846.318     5032109.109 3   3920050.510 4
 95 10 22  6  0 59.9820000  0  8  2  7 15 12 27 26 19 31
  15847246.451    -9886198.564 7  -7633351.967 8
  16792286.834   -17079600.105 6 -13192918.854 6
  18965204.803     -784377.447 5   -380253.068 4
  17924762.248    -7731093.424 5  -4477542.010 2
  14845035.045   -43677210.215 7 -33941650.401 9
  18850846.912    -3627719.390 4  -2227229.851 2
  16032651.311    -1654559.686 7  -1264511.454 8
  18604424.568     5092938.531 4   3967450.067 3
 95 10 22  6  1 29.9820000  0  8  2  7 15 12 27 26 19 31
  15836278.772    -9943846.652 7  -7678272.552 8
  16767549.256   -17209598.218 6 -13294216.067 6
  18946802.123     -881044.216 4   -455577.800 5
  17905464.318    -7832478.743 5  -4556543.566 3
  14837112.334   -43718852.976 7 -33974099.313 9
  18827877.709    -3748422.219 4  -2321284.015 3
  16034383.693    -1645450.934 7  -1257413.731 8
  18616042.467     5154013.012 3   4015040.596 3
 95 10 22  6  1 59.9820000  0  8  2  7 15 12 27 26 19 31
  15825348.451   -10001284.618 7  -7723029.415 8
  16742870.342   -17339298.692 6 -13395281.362 6
  18928469.701     -977398.378 5   -530658.941 5
  17886180.975    -7933826.532 5  -4635515.871 2
  14829255.936   -43760127.169 7 -34006261.020 9
  18804972.701    -3868812.022 4  -2415094.268 2
  16036177.647    -1636026.377 7  -1250069.938 8
  18627721.303     5215324.673 5   4062815.914 2
 95 10 22  6  2 29.9820000  0  8  2  7 15 12 27 26 19 31
  15814463.108   -10058495.214 7  -7767609.087 8
  16718247.365   -17468689.873 6 -13496105.640 6
  18910200.428    -1073433.189 5   -605491.243 5
  17866904.451    -8035132.873 5  -4714455.880 3
  14821472.522   -43801028.768 7 -34038132.400 9
  18782118.037    -3988888.255 3  -2508660.157 2
  16038030.990    -1626286.200 7  -1242480.204 8
  18639427.115     5276866.987 5   4110770.989 2
 95 10 22  6  2 59.9820000  0  8  2  7 15 12 27 26 19 31
  15803619.787   -10115466.936 7  -7812002.637 8
  16693683.436   -17597766.407 6 -13596684.752 6
  18891986.123    -1169147.042 5   -680073.449 5
  17847631.623    -8136399.114 5  -4793364.652 3
  14813761.576   -43841561.844 7 -34069716.621 9
  18759331.678    -4108649.965 4  -2601980.976 4
  16039945.662    -1616223.938 7  -1234639.492 8
  18651176.764     5338621.896 5   4158891.712 4
 95 10 22  6  3 29.9820000  0  8  2  7 15 12 27 26 19 31
  15792822.826   -10172204.476 7  -7856213.702 8
  16669179.912   -17726528.382 6 -13697018.746 6
  18873833.803    -1264536.148 5   -754402.593 5
  17828370.006    -8237624.189 5  -4872241.331 4
  14806119.139   -43881716.491 7 -34101005.956 9
  18736600.108    -4228094.384 4  -2695054.563 4
  16041922.045    -1605841.674 7  -1226549.425 7
  18662967.733     5400582.001 5   4207172.307 4
 95 10 22  6  3 59.9820000  0  8  2  7 15 12 27 26 19 31
  15782068.256   -10228727.050 7  -7900257.264 8
  16644741.053   -17854974.323 6 -13797106.480 7
  18855737.209    -1359593.743 5   -828473.432 4
  17809114.334    -8338804.460 5  -4951083.097 3
  14798550.537   -43921482.652 7 -34131992.585 9
  18713934.412    -4347205.063 5  -2787868.098 3
  16043959.943    -1595128.115 7  -1218201.207 7
  18674795.951     5462745.166 5   4255611.168 4
 95 10 22  6  4 29.9820000  0  8  2  7 15 12 27 26 19 31
  15771345.264   -10285080.328 7  -7944168.904 8
  16620353.647   -17983107.642 6 -13896950.612 6
  18837715.670    -1454325.646 5   -902290.482 4
  17789869.381    -8439948.819 5  -5029896.876 4
  14791058.147   -43960855.308 7 -34162672.578 9
  18691334.350    -4465983.366 5  -2880422.617 4
  16046060.006    -1584090.872 7  -1209600.775 8
  18686665.717     5525115.279 5   4304211.262 5
 95 10 22  6  4 59.9820000  0  8  2  7 15 12 27 26 19 31
  15760651.608   -10341267.949 7  -7987951.458 8
  16596034.178   -18110931.190 6 -13996553.362 7
  18819749.740    -1548728.026 5   -975850.765 5
  17770629.303    -8541055.953 5  -5108681.664 3
  14783644.209   -43999821.332 7 -34193035.716 8
  18668798.100    -4584412.281 5  -2972704.898 4
  16048220.100    -1572737.072 7  -1200753.670 7
  18698568.272     5587702.109 5   4352980.247 4
 95 10 22  6  5 29.9820000  0  8  2  7 15 12 27 26 19 31
  15749990.404   -10397293.516 7  -8031607.741 8
  16571766.154   -18238453.833 6 -14095921.650 7
  18801851.654    -1642801.208 5  -1049154.510 5
  17751396.522    -8642129.185 5  -5187440.014 4
  14776309.818   -44038367.308 7 -34223071.544 9
  18646325.623    -4702498.521 5  -3064720.159 4
  16050439.826    -1561069.032 7  -1191661.699 7
  18710525.779     5650503.032 5   4401916.031 5
 95 10 22  6  5 59.9820000  0  8  2  7 15 12 27 26 19 31
  15739363.975   -10453138.315 7  -8075123.171 8
  16547560.826   -18365647.839 6 -14195033.849 7
  18784011.537    -1736531.682 5  -1122191.244 5
  17732173.295    -8743157.610 5  -5266163.438 2
  14769054.233   -44076488.705 7 -34252776.533 9
  18623922.600    -4820238.593 5  -3156465.683 4
  16052726.006    -1549068.172 7  -1182310.398 7
  18722521.943     5713523.751 5   4451023.101 5
 95 10 22  6  6 29.9820000  0  8  2  7 15 12 27 26 19 31
  15728777.537   -10508775.679 7  -8118476.959 8
  16523416.170   -18492521.262 6 -14293896.244 7
  18766237.295    -1829919.875 5  -1194961.251 5
  17712952.264    -8844144.078 5  -5344854.178 4
  14761881.233   -44114183.358 7 -34282148.995 8
  18601580.279    -4937641.259 5  -3247948.294 4
  16055070.826    -1536734.830 7  -1172700.010 7
  18734550.834     5776747.916 5   4500288.696 5
 95 10 22  6  6 59.9820000  0  8  2  7 15 12 27 26 19 31
  15718233.295   -10564170.621 7  -8161641.844 8
  16499333.451   -18619074.387 6 -14392509.053 7
  18748539.123    -1922954.095 5  -1267455.447 3
  17693747.303    -8945080.099 5  -5423505.615 3
  14754792.678   -44151442.957 7 -34311182.453 8
  18579307.436    -5054697.543 5  -3339160.977 3
  16057484.756    -1524054.739 7  -1162819.438 7
  18746619.725     5840159.093 5   4549700.013 5
 95 10 22  6  7 29.9820000  0  8  2  7 15 12 27 26 19 31
  15707735.873   -10619336.676 7  -8204628.380 8
  16475314.123   -18745305.717 6 -14490871.117 7
  18730902.358    -2015636.702 5  -1339675.638 3
  17674550.303    -9045970.759 5  -5502121.699 4
  14747783.295   -44188282.031 7 -34339888.234 8
  18557096.006    -5171422.780 5  -3430115.717 4
  16059962.389    -1511031.367 7  -1152671.365 7
  18758714.170     5903734.531 4   4599239.315 5
 95 10 22  6  7 59.9820000  0  8  2  7 15 12 27 26 19 31
  15697278.772   -10674287.468 7  -8247447.177 8
  16451355.529   -18871214.381 6 -14588981.756 7
  18713327.990    -2107966.101 5  -1411620.604 4
  17655355.498    -9146817.217 5  -5580703.336 4
  14740850.639   -44224709.136 7 -34368272.993 8
  18534941.006    -5287815.402 5  -3520811.278 4
  16062503.451    -1497679.997 7  -1142267.718 7
  18770843.693     5967480.566 4   4648911.560 5
 95 10 22  6  8 29.9810000  0  8  2  7 15 12 27 26 19 31
  15686862.025   -10729035.974 7  -8290108.347 8
  16427455.235   -18996810.534 6 -14686848.874 7
  18695832.665    -2199941.624 5  -1483289.834 3
  17636175.009    -9247621.170 5  -5659251.836 4
  14733996.329   -44260720.265 7 -34396333.620 9
  18512860.845    -5403868.306 5  -3611242.118 5
  16065103.923    -1484016.388 7  -1131620.761 7
  18783014.556     6031401.216 5   4698719.849 5
 95 10 22  6  8 59.9810000  0  8  2  7 15 12 27 26 19 31
  15676481.751   -10783599.465 7  -8332625.355 8
  16403616.392   -19122079.642 6 -14784461.161 7
  18678396.775    -2291557.728 5  -1554678.993 4
  17617001.790    -9348380.370 5  -5737765.479 5
  14727220.860   -44296319.259 7 -34424073.096 8
  18490844.095    -5519576.635 5  -3701404.462 5
  16067765.079    -1470031.872 7  -1120723.751 7
  18795208.978     6095516.197 5   4748679.582 5
 95 10 22  6  9 29.9810000  0  8  2  7 15 12 27 26 19 31
  15666126.493   -10837998.259 7  -8375014.024 8
  16379838.001   -19247027.221 6 -14881822.896 7
  18661035.431    -2382818.654 5  -1625791.403 4
  17597833.532    -9449101.533 5  -5816249.491 5
  14720527.782   -44331512.316 7 -34451496.254 9
  18468886.978    -5634946.377 5  -3791302.953 5
  16070485.579    -1455742.976 7  -1109589.555 7
  18807448.759     6159827.091 4   4798791.999 3
